[[{"header":{"parameterUnit":"m.s-1","parameterCategory":1,"la1":30.6,"la2":29.2853,"lo1":-89.7004,"lo2":-87.6739,"dx":0.0162,"dy":0.0183,"nx":112,"ny":82,"refTime":"2023-01-09T06:00:00:Z","depth":0,"parameterNumber":2,"parameterNumberName":"U-component_of_WINDS"},"data":[0.0,0.0,0.0,0.0,0.0,0.0,0.0,0.0,0.0,0.0,0.0,0.0,0.0,0.0,0.0,0.0,0.0,0.0,0.0,0.0,0.0,0.0,0.0,0.0,0.0,0.0,0.0,0.0,0.0,0.0,0.0,0.0,0.0,0.0,0.0,0.0,0.0,0.0,0.0,0.0,0.0,0.0,0.0,0.0,0.0,0.0,0.0,0.0,0.0,0.0,0.0,0.0,0.0,0.0,0.0,0.0,0.0,0.0,0.0,0.0,0.0,0.0,0.0,0.0,0.0,0.0,0.0,0.0,0.0,0.0,0.0,0.0,0.0,0.0,0.0,0.0,0.0,0.0,0.0,0.0,0.0,0.0,0.0,0.0,0.0,0.0,0.0,0.0,0.0,0.0,2.9084,3.2155,3.522,3.6966,3.6688,3.5147,3.1439,2.4979,0.0,0.0,0.0,0.0,0.0,0.0,0.0,0.0,0.0,0.0,0.0,0.0,0.0,0.0,0.0,0.0,0.0,0.0,0.0,0.0,0.0,0.0,0.0,0.0,0.0,0.0,0.0,0.0,0.0,0.0,0.0,0.0,0.0,0.0,0.0,0.0,0.0,0.0,0.0,0.0,0.0,0.0,0.0,0.0,0.0,0.0,0.0,0.0,0.0,0.0,0.0,0.0,0.0,0.0,0.0,0.0,0.0,0.0,0.0,0.0,0.0,0.0,0.0,0.0,0.0,0.0,0.0,0.0,0.0,0.0,0.0,0.0,0.0,0.0,0.0,0.0,0.0,0.0,0.0,0.0,0.0,0.0,0.0,0.0,0.0,0.0,0.0,0.0,0.0,0.0,0.0,0.0,0.0,0.0,0.0,0.0,0.0,0.0,0.0,0.0,0.0,0.0,0.0,0.0,3.0552,3.7505,3.8546,3.8632,3.8363,3.6853,3.3146,2.6644,0.0,0.0,0.0,0.0,0.0,0.0,0.0,0.0,0.0,0.0,0.0,0.0,0.0,0.0,0.0,0.0,0.0,0.0,0.0,0.0,0.0,0.0,0.0,0.0,0.0,0.0,0.0,0.0,0.0,0.0,0.0,0.0,0.0,0.0,0.0,0.0,0.0,0.0,0.0,0.0,0.0,0.0,0.0,0.0,0.0,0.0,0.0,0.0,0.0,0.0,0.0,0.0,0.0,0.0,0.0,0.0,0.0,0.0,0.0,0.0,0.0,0.0,0.0,0.0,0.0,0.0,0.0,0.0,0.0,0.0,0.0,0.0,0.0,0.0,0.0,0.0,0.0,0.0,0.0,0.0,0.0,0.0,0.0,0.0,0.0,0.0,0.0,0.0,0.0,0.0,0.0,0.0,0.0,0.0,0.0,0.0,0.0,0.0,0.0,0.0,0.0,0.0,0.0,2.8909,3.371,3.9584,4.0188,3.9961,3.9402,3.787,3.3997,2.7047,2.4735,0.0,0.0,0.0,0.0,0.0,0.0,0.0,0.0,0.0,0.0,0.0,0.0,0.0,0.0,0.0,0.0,0.0,0.0,0.0,0.0,0.0,0.0,0.0,0.0,0.0,0.0,0.0,0.0,0.0,0.0,0.0,0.0,0.0,0.0,0.0,0.0,0.0,0.0,0.0,0.0,0.0,0.0,0.0,0.0,0.0,0.0,0.0,0.0,0.0,0.0,0.0,0.0,0.0,0.0,0.0,0.0,0.0,0.0,0.0,0.0,0.0,0.0,0.0,0.0,0.0,0.0,0.0,0.0,0.0,0.0,0.0,0.0,0.0,0.0,0.0,0.0,0.0,0.0,0.0,0.0,0.0,0.0,0.0,0.0,0.0,0.0,0.0,0.0,0.0,0.0,0.0,0.0,0.0,0.0,0.0,0.0,0.0,0.0,0.0,0.0,0.0,0.0,3.3965,3.7129,4.0866,4.1515,4.1258,4.0267,3.888,3.4952,2.7635,2.5658,0.0,0.0,0.0,0.0,0.0,0.0,0.0,0.0,0.0,0.0,0.0,0.0,0.0,0.0,0.0,0.0,0.0,0.0,0.0,0.0,0.0,0.0,0.0,0.0,0.0,0.0,0.0,0.0,0.0,0.0,0.0,0.0,0.0,0.0,0.0,0.0,0.0,0.0,0.0,0.0,0.0,0.0,0.0,0.0,0.0,0.0,0.0,0.0,0.0,0.0,0.0,0.0,0.0,0.0,0.0,0.0,0.0,0.0,0.0,0.0,0.0,0.0,0.0,0.0,0.0,0.0,0.0,0.0,0.0,0.0,0.0,0.0,0.0,0.0,0.0,0.0,0.0,0.0,0.0,0.0,0.0,0.0,0.0,0.0,0.0,0.0,0.0,0.0,0.0,0.0,0.0,0.0,0.0,0.0,0.0,0.0,0.0,0.0,0.0,0.0,0.0,0.0,3.5825,4.0059,4.2403,4.3057,4.269,4.1158,4.023,3.6615,2.9299,2.7317,0.0,0.0,0.0,0.0,0.0,0.0,0.0,0.0,0.0,0.0,0.0,0.0,0.0,0.0,0.0,0.0,0.0,0.0,0.0,0.0,0.0,0.0,0.0,0.0,0.0,0.0,0.0,0.0,0.0,0.0,0.0,0.0,0.0,0.0,0.0,0.0,0.0,0.0,0.0,0.0,0.0,0.0,0.0,0.0,0.0,0.0,0.0,0.0,0.0,0.0,0.0,0.0,0.0,0.0,0.0,0.0,0.0,0.0,0.0,0.0,0.0,0.0,0.0,0.0,0.0,0.0,0.0,0.0,0.0,0.0,0.0,0.0,0.0,0.0,0.0,0.0,0.0,0.0,0.0,0.0,0.0,0.0,0.0,0.0,0.0,0.0,0.0,0.0,0.0,0.0,0.0,0.0,0.0,0.0,0.0,0.0,0.0,0.0,0.0,0.0,0.0,0.0,3.509,3.9183,4.2459,4.3226,4.2845,4.1242,4.0359,3.671,2.9223,0.0,0.0,0.0,0.0,0.0,0.0,0.0,0.0,0.0,0.0,0.0,0.0,0.0,0.0,0.0,0.0,0.0,0.0,0.0,0.0,0.0,0.0,0.0,0.0,0.0,0.0,0.0,0.0,0.0,0.0,0.0,0.0,0.0,0.0,0.0,0.0,0.0,0.0,0.0,0.0,0.0,0.0,0.0,0.0,0.0,0.0,0.0,0.0,0.0,0.0,0.0,0.0,0.0,0.0,0.0,0.0,0.0,0.0,0.0,0.0,0.0,0.0,0.0,0.0,0.0,0.0,0.0,0.0,0.0,0.0,0.0,0.0,0.0,0.0,0.0,0.0,0.0,0.0,0.0,0.0,0.0,0.0,0.0,0.0,0.0,0.0,0.0,0.0,0.0,0.0,0.0,0.0,0.0,0.0,0.0,0.0,0.0,0.0,0.0,0.0,0.0,0.0,3.0587,3.5216,3.9445,4.2692,4.3078,4.2671,4.158,4.0506,3.6673,2.9087,0.0,0.0,0.0,0.0,0.0,0.0,0.0,0.0,0.0,0.0,0.0,0.0,0.0,0.0,0.0,0.0,0.0,0.0,0.0,0.0,0.0,0.0,0.0,0.0,0.0,0.0,0.0,0.0,0.0,0.0,0.0,0.0,0.0,0.0,0.0,0.0,0.0,0.0,0.0,0.0,0.0,0.0,0.0,0.0,0.0,0.0,0.0,0.0,0.0,0.0,0.0,0.0,0.0,0.0,0.0,0.0,0.0,0.0,0.0,0.0,0.0,0.0,0.0,0.0,0.0,0.0,0.0,0.0,0.0,0.0,0.0,0.0,0.0,0.0,0.0,0.0,0.0,0.0,0.0,0.0,0.0,0.0,0.0,0.0,0.0,0.0,0.0,0.0,0.0,0.0,0.0,0.0,0.0,0.0,0.0,0.0,0.0,0.0,0.0,0.0,0.0,0.0,3.0554,3.6641,4.1508,4.3316,4.28,4.2323,4.2304,4.0818,3.6673,0.0,0.0,0.0,0.0,0.0,0.0,0.0,0.0,0.0,0.0,0.0,0.0,0.0,0.0,0.0,0.0,0.0,0.0,0.0,0.0,0.0,0.0,0.0,0.0,0.0,0.0,0.0,0.0,0.0,0.0,0.0,0.0,0.0,0.0,0.0,0.0,0.0,0.0,0.0,0.0,0.0,0.0,0.0,0.0,0.0,0.0,0.0,0.0,0.0,0.0,0.0,0.0,0.0,0.0,0.0,0.0,0.0,0.0,0.0,0.0,0.0,0.0,0.0,0.0,0.0,0.0,0.0,0.0,0.0,0.0,0.0,0.0,0.0,0.0,0.0,0.0,0.0,0.0,0.0,0.0,0.0,0.0,0.0,0.0,0.0,0.0,0.0,0.0,0.0,0.0,0.0,0.0,0.0,0.0,0.0,0.0,0.0,0.0,0.0,0.0,0.0,0.0,0.0,3.0554,3.7604,4.2745,4.3426,4.3791,4.3525,4.2396,4.135,3.7191,2.8837,0.0,0.0,0.0,0.0,0.0,0.0,0.0,0.0,0.0,0.0,0.0,0.0,0.0,0.0,0.0,0.0,0.0,0.0,0.0,0.0,0.0,0.0,0.0,0.0,0.0,0.0,0.0,0.0,0.0,0.0,0.0,0.0,0.0,0.0,0.0,0.0,0.0,0.0,0.0,0.0,0.0,0.0,0.0,0.0,0.0,0.0,0.0,0.0,0.0,0.0,0.0,0.0,0.0,0.0,0.0,0.0,0.0,0.0,0.0,0.0,0.0,0.0,0.0,0.0,0.0,0.0,0.0,0.0,0.0,0.0,0.0,0.0,0.0,0.0,0.0,0.0,0.0,0.0,0.0,0.0,0.0,0.0,0.0,0.0,0.0,0.0,0.0,0.0,0.0,0.0,0.0,0.0,0.0,0.0,0.0,0.0,0.0,0.0,0.0,0.0,0.0,0.0,3.0554,3.7742,4.292,4.3444,4.3644,4.347,4.2818,4.1255,3.7592,3.1202,0.0,0.0,0.0,0.0,0.0,0.0,0.0,0.0,0.0,0.0,0.0,0.0,0.0,0.0,0.0,0.0,0.0,0.0,0.0,0.0,0.0,0.0,0.0,0.0,0.0,0.0,0.0,0.0,0.0,0.0,0.0,0.0,0.0,0.0,0.0,0.0,0.0,0.0,0.0,0.0,0.0,0.0,0.0,0.0,0.0,0.0,0.0,0.0,0.0,0.0,0.0,0.0,0.0,0.0,0.0,0.0,0.0,0.0,0.0,0.0,0.0,0.0,0.0,0.0,0.0,0.0,0.0,0.0,0.0,0.0,0.0,0.0,0.0,0.0,0.0,0.0,0.0,0.0,0.0,0.0,0.0,0.0,0.0,0.0,0.0,0.0,0.0,0.0,0.0,0.0,0.0,0.0,0.0,0.0,0.0,0.0,0.0,0.0,0.0,0.0,0.0,0.0,3.0554,3.7372,4.2478,4.3389,4.291,4.2782,4.3433,4.0921,3.7948,3.4809,0.0,0.0,0.0,0.0,0.0,0.0,0.0,0.0,0.0,0.0,0.0,0.0,0.0,0.0,0.0,0.0,0.0,0.0,0.0,0.0,0.0,0.0,0.0,0.0,0.0,0.0,0.0,0.0,0.0,0.0,0.0,0.0,0.0,0.0,0.0,0.0,0.0,0.0,0.0,0.0,0.0,0.0,0.0,0.0,0.0,0.0,0.0,0.0,0.0,0.0,0.0,0.0,0.0,0.0,0.0,0.0,0.0,0.0,0.0,0.0,1.867,1.6192,0.0,0.0,0.0,0.0,0.0,0.0,0.0,0.0,0.0,0.0,0.0,0.0,0.0,0.0,0.0,0.0,0.0,0.0,0.0,0.0,0.0,0.0,0.0,0.0,0.0,0.0,0.0,0.0,0.0,0.0,0.0,0.0,0.0,0.0,0.0,0.0,0.0,0.0,0.0,0.0,3.0479,3.7873,4.3088,4.3471,4.3901,4.3993,4.3543,4.1762,3.8775,3.4342,3.1968,0.0,0.0,0.0,0.0,0.0,0.0,0.0,0.0,0.0,0.0,0.0,0.0,0.0,0.0,0.0,0.0,0.0,0.0,0.0,0.0,0.0,0.0,0.0,0.0,0.0,0.0,0.0,0.0,0.0,0.0,0.0,0.0,0.0,0.0,0.0,0.0,0.0,0.0,0.0,0.0,0.0,0.0,0.0,0.0,0.0,0.0,0.0,0.0,0.0,0.0,0.0,0.0,0.0,0.0,0.0,0.0,0.0,0.0,0.0,2.0728,1.8994,0.0,0.0,0.0,0.0,0.0,0.0,0.0,0.0,0.0,0.0,0.0,0.0,0.0,0.0,0.0,0.0,0.0,0.0,0.0,0.0,0.0,0.0,0.0,0.0,0.0,0.0,0.0,0.0,0.0,0.0,0.0,0.0,0.0,0.0,0.0,0.0,0.0,0.0,0.0,0.0,3.1068,3.8134,4.3137,4.3464,4.3864,4.3956,4.3543,4.1914,3.9779,3.7146,3.3714,0.0,0.0,0.0,0.0,0.0,0.0,0.0,0.0,0.0,0.0,0.0,0.0,0.0,0.0,0.0,0.0,0.0,0.0,0.0,0.0,0.0,0.0,0.0,0.0,0.0,0.0,0.0,0.0,0.0,0.0,0.0,0.0,0.0,0.0,0.0,0.0,0.0,0.0,0.0,0.0,0.0,0.0,0.0,0.0,0.0,0.0,0.0,0.0,0.0,0.0,0.0,0.0,0.0,2.3156,2.3729,2.3729,2.3729,2.4775,2.6452,2.3226,2.2487,2.3349,2.0247,0.0,0.0,0.0,0.0,0.0,0.0,0.0,0.0,0.0,0.0,0.0,0.0,0.0,0.0,0.0,0.0,0.0,0.0,0.0,0.0,0.0,0.0,2.6531,2.5993,2.7892,2.873,2.4745,0.0,0.0,0.0,0.0,0.0,0.0,0.0,0.0,0.0,0.0,0.0,3.2467,3.862,4.2973,4.3457,4.3506,4.3506,4.3506,4.1955,4.0838,4.0528,3.6131,3.2694,0.0,0.0,0.0,0.0,0.0,0.0,0.0,0.0,0.0,0.0,0.0,0.0,0.0,0.0,0.0,0.0,0.0,0.0,0.0,0.0,0.0,0.0,0.0,0.0,0.0,0.0,0.0,0.0,0.0,0.0,0.0,0.0,1.7512,1.7512,0.0,0.0,0.0,0.0,0.0,0.0,0.0,0.0,0.0,0.0,0.0,0.0,0.0,2.1694,2.1992,2.4011,2.5026,2.505,2.7148,2.8157,2.8157,2.8157,2.8656,2.9485,2.8351,0.0,2.4321,2.3814,0.0,0.0,0.0,0.0,0.0,0.0,0.0,0.0,0.0,0.0,0.0,0.0,0.0,0.0,0.0,0.0,0.0,0.0,0.0,0.0,0.0,0.0,3.18,3.2394,3.2852,3.2999,3.2357,2.8453,2.4543,2.2717,2.2455,2.1762,0.0,0.0,0.0,0.0,0.0,0.0,3.5386,3.9937,4.2973,4.3457,4.3506,4.3506,4.3506,4.2624,4.1875,4.1369,3.9794,3.7347,3.3874,3.1723,0.0,0.0,0.0,0.0,0.0,0.0,0.0,0.0,0.0,0.0,0.0,0.0,0.0,0.0,0.0,0.0,0.0,0.0,0.0,0.0,0.0,0.0,0.0,0.0,0.0,0.0,0.0,0.0,0.0,1.7052,1.7721,1.7543,1.7474,1.6753,0.0,0.0,0.0,0.0,0.0,0.0,0.0,0.0,0.0,2.2589,2.3309,2.41,2.5036,2.6756,2.7835,2.8267,2.9672,3.0744,3.1461,3.1461,3.1647,3.1941,3.1613,3.049,2.8722,2.6606,2.4585,2.2716,0.0,0.0,0.0,0.0,2.2665,2.2953,2.4889,2.5716,2.5618,2.4023,0.0,0.0,0.0,0.0,0.0,0.0,0.0,2.6376,2.933,3.1154,3.2563,3.3965,3.4305,3.4261,3.4115,3.2148,2.9597,2.6907,2.5648,2.3994,2.0734,2.2295,0.0,0.0,0.0,3.4685,3.6891,4.0706,4.3277,4.3477,4.3506,4.3506,4.3506,4.2904,4.2094,4.1111,4.042,3.8887,3.6256,3.4395,3.1722,0.0,0.0,0.0,0.0,0.0,0.0,0.0,0.0,0.0,0.0,0.0,0.0,0.0,0.0,0.0,0.0,0.0,0.0,0.0,0.0,0.0,0.0,0.0,0.0,0.0,0.0,0.0,0.0,1.7989,1.8576,1.8197,1.9018,1.8461,0.0,0.0,0.0,0.0,0.0,0.0,2.1399,2.1649,2.2747,2.4873,2.5731,2.6767,2.8013,2.9183,3.0038,3.0588,3.1314,3.2182,3.3156,3.3322,3.3396,3.3396,3.3396,3.3085,3.2351,2.9356,2.7799,2.7173,2.6082,2.5405,2.5185,2.6116,2.6471,2.6776,2.8848,2.9719,2.9704,2.8306,2.7897,2.7478,2.5009,0.0,0.0,0.0,0.0,2.9472,3.213,3.2865,3.3327,3.4951,3.5348,3.535,3.5342,3.5106,3.3977,3.0839,2.9268,2.7379,2.4012,2.6377,0.0,2.7419,3.2918,3.7591,3.8729,4.1576,4.3506,4.3506,4.3383,4.3304,4.3304,4.2789,4.2102,4.1271,4.0987,4.023,3.8863,3.7361,3.5469,3.314,0.0,0.0,0.0,0.0,0.0,0.0,0.0,0.0,0.0,0.0,0.0,0.0,0.0,0.0,0.0,0.0,0.0,0.0,0.0,0.0,0.0,0.0,0.0,0.0,0.0,0.0,0.0,0.0,0.0,2.0494,2.1102,0.0,0.0,0.0,0.0,2.022,2.1559,2.2982,2.4405,2.5262,2.6436,2.8025,2.9404,3.0156,3.0244,3.0931,3.131,3.1354,3.2031,3.2389,3.2467,3.3113,3.3396,3.3396,3.3396,3.3379,3.3288,3.2385,3.0787,2.8874,2.8807,2.7876,2.6767,2.8282,2.8824,2.9044,3.0557,3.1092,3.1172,3.1442,3.1067,3.0555,3.0844,2.9916,0.0,0.0,3.1399,3.2252,3.4696,3.5515,3.5924,3.6846,3.7058,3.7271,3.795,3.731,3.5979,3.3945,3.3495,3.2896,3.1164,0.0,3.3038,3.4288,3.6309,3.8733,4.1685,4.29,4.3506,4.3506,4.3041,4.275,4.275,4.2193,4.2062,4.2571,4.2584,4.243,4.2084,4.1254,3.9316,3.6153,3.3628,0.0,0.0,0.0,0.0,0.0,0.0,0.0,0.0,0.0,0.0,0.0,0.0,0.0,0.0,0.0,0.0,0.0,0.0,0.0,0.0,0.0,0.0,0.0,0.0,0.0,0.0,0.0,0.0,2.1738,2.3307,0.0,2.0557,2.2107,2.3101,2.261,2.441,2.5795,2.6404,2.7141,2.7841,2.8474,2.9791,3.027,2.9881,3.0506,3.1064,3.1541,3.2199,3.2985,3.3846,3.4505,3.4833,3.4833,3.4833,3.4833,3.4799,3.4529,3.3406,3.1833,3.1833,3.1495,3.114,3.2165,3.2537,3.2689,3.3683,3.4021,3.3944,3.3387,3.2546,3.1757,3.1931,3.1931,3.2118,3.3212,3.3972,3.4827,3.6381,3.6861,3.7057,3.7538,3.765,3.7818,3.8372,3.8503,3.8382,3.7987,3.6981,3.5668,3.4002,3.591,3.7423,3.6721,3.9094,4.1492,4.2887,4.3322,4.3506,4.3506,4.3788,4.3832,4.3441,4.3246,4.3056,4.2841,4.2749,4.2662,4.2568,4.26,4.1625,3.9433,3.7507,3.3892,0.0,0.0,0.0,0.0,0.0,0.0,0.0,0.0,0.0,0.0,0.0,0.0,0.0,0.0,0.0,0.0,0.0,0.0,0.0,0.0,0.0,0.0,0.0,0.0,0.0,2.1944,2.3593,2.2686,2.4715,2.5086,2.222,2.4275,2.557,2.509,2.6865,2.8011,2.8107,2.8557,2.8839,2.8919,2.9945,3.0308,2.9907,3.0522,3.1087,3.1571,3.2272,3.3074,3.3962,3.4847,3.5253,3.5276,3.5504,3.56,3.5616,3.5898,3.5436,3.4523,3.4241,3.414,3.4207,3.4692,3.4878,3.4945,3.5442,3.578,3.587,3.5067,3.4476,3.4096,3.4269,3.4869,3.5602,3.6142,3.6549,3.6976,3.7682,3.7738,3.7677,3.7853,3.7893,3.8046,3.8614,3.9186,3.9829,4.0579,3.9645,3.8358,3.7242,3.9243,4.0366,3.8577,4.1243,4.3348,4.3118,4.3818,4.4314,4.4314,4.4427,4.4334,4.3942,4.2772,4.2406,4.3251,4.2135,4.2038,4.3321,4.2417,4.1387,4.0314,3.8707,3.536,3.0216,0.0,0.0,0.0,0.0,0.0,0.0,0.0,0.0,0.0,0.0,0.0,0.0,0.0,0.0,0.0,0.0,0.0,0.0,0.0,0.0,0.0,0.0,0.0,2.1815,2.3095,2.3926,2.3486,2.5342,2.5866,2.3909,2.603,2.7511,2.7531,2.8738,2.9487,2.9503,2.9591,2.9636,2.9636,3.0223,3.0537,3.0537,3.1182,3.1511,3.1511,3.2244,3.2614,3.2682,3.4016,3.4645,3.4709,3.5378,3.5667,3.5718,3.6513,3.6829,3.6761,3.5983,3.5667,3.5667,3.5667,3.5667,3.5667,3.5667,3.618,3.6791,3.6541,3.6935,3.7619,3.8136,3.8788,3.936,3.936,3.8968,3.8574,3.8619,3.8288,3.7927,3.7973,3.7961,3.8159,3.8882,3.9454,4.0217,4.1545,4.1449,4.116,4.1168,4.1837,4.1846,4.0275,4.2727,0.0,4.2616,4.4452,4.5865,4.5792,4.4741,4.4052,4.403,4.0616,4.0104,4.3896,4.0994,4.0835,4.4554,4.0956,3.8846,3.8773,3.7165,3.5128,3.2681,0.0,0.0,0.0,0.0,0.0,0.0,0.0,0.0,0.0,0.0,0.0,0.0,0.0,0.0,0.0,0.0,0.0,0.0,0.0,0.0,0.0,2.153,2.3448,2.3385,2.4814,2.601,2.6371,2.6954,2.7106,2.6551,2.7158,2.7769,2.8258,2.8638,2.9061,2.9558,3.0003,3.0253,3.0253,3.0897,3.1227,3.1227,3.1406,3.1511,3.1511,3.2244,3.2855,3.3368,3.4748,3.5696,3.6231,3.6956,3.7268,3.7285,3.7516,3.7601,3.7584,3.7352,3.7268,3.7268,3.7268,3.7268,3.7268,3.7268,3.7415,3.7591,3.7517,3.7614,3.7819,3.798,3.8146,3.8317,3.8317,3.8219,3.8222,3.8749,3.88,3.8819,3.9372,3.9491,3.9542,3.9745,4.0225,4.0844,4.164,4.2044,4.2368,4.2759,4.3516,4.3892,4.3452,4.4635,4.5406,4.4966,4.548,4.5223,4.3479,4.3211,4.2913,4.2343,4.1061,4.1597,4.4698,4.3502,4.3288,4.4646,4.3636,4.2223,4.0479,3.8293,3.6229,0.0,0.0,0.0,0.0,0.0,0.0,0.0,0.0,0.0,0.0,0.0,0.0,0.0,0.0,0.0,0.0,0.0,0.0,0.0,0.0,0.0,0.0,2.3554,2.5179,2.5478,2.6378,2.7165,2.754,2.76,2.7705,2.7991,2.8021,2.8306,2.8979,2.925,2.9564,2.9967,3.0582,3.0927,3.0927,3.1301,3.1511,3.1511,3.1511,3.1645,3.1914,3.2362,3.2908,3.3604,3.4704,3.5626,3.6382,3.7103,3.7402,3.7443,3.8089,3.8158,3.7861,0.0,0.0,0.0,0.0,3.8108,3.8328,3.8012,3.8108,3.8311,3.8007,3.8108,3.8362,3.8362,3.8582,3.8819,3.8819,3.8819,3.892,3.9356,3.9457,3.9559,3.9994,4.0096,4.0096,4.0096,4.0516,4.1087,4.1675,4.2553,0.0,4.3914,4.4397,4.459,4.425,4.5461,4.6076,4.5147,4.5912,4.587,4.42,4.3977,4.374,4.3279,4.202,0.0,0.0,0.0,4.3287,4.3206,4.3187,0.0,0.0,0.0,3.9038,3.9059,3.7983,0.0,0.0,3.3482,3.3172,0.0,0.0,0.0,0.0,0.0,0.0,0.0,0.0,0.0,0.0,0.0,0.0,0.0,0.0,0.0,0.0,2.5402,2.6914,2.751,2.76,2.76,2.76,2.766,2.7959,2.8547,2.8667,2.8994,2.9653,3.0193,3.0537,3.0598,3.1182,0.0,0.0,0.0,3.154,3.1615,3.1615,3.1944,3.2602,3.2602,3.2961,3.3652,3.4312,3.5066,3.5849,3.6534,3.6816,3.693,3.8388,3.8618,3.808,3.8118,3.8147,3.8147,3.8147,3.8565,3.9022,3.8379,0.0,0.0,3.8362,3.8582,3.9119,3.9119,3.9576,4.0096,4.0096,4.0096,4.0096,4.0096,4.0096,4.0096,4.0096,4.0096,4.0096,4.0096,4.0473,4.1024,4.1799,4.2933,4.4038,4.483,4.4975,4.4718,4.402,4.5801,4.6511,4.4474,4.6075,4.7042,4.6094,4.5468,0.0,4.5104,4.2999,4.3009,4.62,4.4158,4.2516,4.1811,4.169,4.1635,4.1635,4.1635,4.27,4.4828,4.5167,4.5544,4.5738,3.7781,3.5902,0.0,0.0,0.0,0.0,0.0,0.0,0.0,0.0,0.0,0.0,0.0,0.0,0.0,0.0,0.0,2.4261,2.6093,2.745,2.7585,2.76,2.76,2.76,2.8081,2.8457,2.8592,2.9099,2.9668,3.0283,3.0432,3.0732,3.1271,3.1436,3.1511,3.1511,3.1511,3.1765,3.2303,3.2318,3.2632,3.3305,3.3305,0.0,3.4324,3.5055,3.5801,3.6546,3.7277,3.759,3.7647,3.8553,3.9207,3.967,3.9661,3.966,3.966,3.966,3.9762,3.9876,3.9711,3.9762,3.9846,3.9711,3.9762,3.9893,3.9893,3.9994,0.0,4.0096,4.0096,4.0096,4.0096,4.0096,4.0096,4.0096,4.0096,4.0096,4.0096,4.0179,4.0741,4.2454,4.2995,4.3914,4.6239,4.6636,4.6581,4.6425,4.7361,4.7746,4.6827,4.7096,4.6403,4.3777,4.3109,4.2779,4.2608,4.2285,4.3314,4.6224,4.6261,4.6104,4.5957,4.5324,4.4966,4.4966,4.4966,4.5204,4.5663,4.5998,4.6375,4.6706,4.3926,4.3886,0.0,0.0,0.0,0.0,0.0,0.0,0.0,0.0,0.0,0.0,0.0,2.0498,2.1465,0.0,2.4941,2.5944,2.6944,2.772,2.8051,2.8096,2.8096,2.8096,2.8397,2.8846,2.949,2.9849,3.0313,3.0957,3.1002,3.1151,3.1481,3.1511,3.1511,3.1511,3.1824,3.2168,3.2497,3.2826,3.3335,3.3994,3.3994,3.4345,3.5003,3.5384,3.5952,3.667,3.7047,3.7427,3.7849,3.8594,3.9368,4.0096,4.0096,4.0096,4.0096,4.0096,4.0096,4.0096,4.0096,4.0096,4.0096,4.0096,4.0096,4.0096,4.0096,4.0096,4.0096,4.0096,4.0096,4.0096,4.0096,4.0096,4.0096,4.0096,4.0096,4.0096,4.0096,4.0635,4.1469,4.2752,4.3864,4.5132,4.6806,4.7424,4.7709,4.7709,4.7789,4.7625,4.6988,4.6635,4.5745,4.3892,4.352,4.3361,4.3261,4.39,4.5175,4.7212,4.7564,4.7709,4.7709,4.7305,4.7095,4.7095,4.7095,4.7095,4.7095,4.7278,4.7553,4.7927,4.7478,4.7569,0.0,0.0,0.0,0.0,0.0,0.0,0.0,1.7728,1.8401,2.0273,2.1719,2.2977,2.3984,2.5285,2.6497,2.745,2.7705,2.7976,2.8517,2.8607,2.8697,2.8936,2.8966,2.937,3.0402,3.0613,3.0927,3.1466,3.1511,3.1511,3.1511,3.1511,3.157,3.169,3.2228,3.2632,3.2901,3.3425,3.4039,3.4682,3.4682,3.4982,3.5504,3.5504,3.5815,3.6384,3.6384,3.6919,3.7851,3.8442,3.9156,3.9889,4.0033,4.0096,4.0096,4.0096,4.0096,4.0096,4.0096,4.0096,4.0096,4.0096,4.0096,4.0096,4.0096,4.0096,4.0096,4.0096,4.0096,4.0096,4.0096,4.0096,4.0096,4.0096,4.0096,4.0146,4.0269,4.127,4.2375,4.3266,4.4954,4.645,4.7192,4.7874,4.8296,4.8296,4.7787,4.7161,4.6489,4.5865,4.5267,4.4668,4.4615,4.4692,4.4934,4.5828,4.6937,4.822,4.8296,4.8296,4.8296,4.8296,4.8296,4.8296,4.8296,4.8296,4.8296,4.8296,4.8504,4.8913,4.9234,4.909,1.563,1.5847,1.6619,1.7606,1.8481,1.9734,0.0,2.2377,2.2408,2.3767,2.5109,2.6105,2.624,2.735,2.8126,2.7675,2.8096,2.8502,2.8592,2.8607,2.9026,3.0148,3.0298,3.0342,3.0492,3.1046,3.1421,3.1496,3.1511,3.1511,3.1511,3.1511,3.1765,3.2377,3.2467,3.308,3.4263,3.4338,3.4727,3.5385,3.5385,3.5429,3.5504,3.5504,3.5553,3.5619,3.5619,3.6446,3.7822,3.7892,3.8358,3.9113,3.9808,4.0096,4.0096,4.0096,4.0096,4.0096,4.0096,4.0096,4.0096,4.0096,4.0096,4.0096,4.0096,4.0096,4.0096,4.0096,4.0096,4.0096,4.0096,4.0096,4.0096,4.0096,4.0096,4.0282,4.0933,4.1672,4.2747,4.4663,4.571,4.6682,4.7944,4.8241,4.8296,4.8296,4.7787,4.7161,4.6489,4.5865,4.5267,4.4668,4.4615,4.5039,4.6112,4.6324,4.6937,4.822,4.8296,4.8296,4.8296,4.8296,4.8296,4.8296,4.8296,4.8296,4.8296,4.8296,4.8504,4.8905,4.8955,4.9484,1.9059,1.9404,1.9755,2.0747,2.1227,2.1864,2.3459,2.3818,2.4298,2.5989,2.6794,2.7168,2.7168,2.7645,2.7929,2.7645,2.7839,2.8291,2.9069,2.9189,2.949,3.0294,3.0382,3.0572,3.1049,3.091,3.0999,3.1452,3.1511,3.1511,3.1511,3.1511,3.1809,3.2482,3.2886,3.3529,3.4503,3.4892,3.522,3.5504,3.5504,3.5504,3.5504,3.5504,3.5718,3.6134,3.6134,3.7025,3.8442,3.8442,3.8897,3.9636,3.9982,4.0096,4.0096,4.0096,4.0096,4.0096,4.0096,4.0096,4.0096,4.0096,4.0096,4.0096,4.0096,4.0096,4.0096,4.0096,4.0096,4.0096,4.0096,4.0096,4.0096,4.0096,4.0422,4.0815,4.1136,4.2099,4.3373,4.5,4.5863,4.6656,4.7612,4.7777,4.7645,4.7241,4.6988,4.6583,4.5952,4.5359,4.4879,4.4626,4.492,4.5472,4.6336,4.6756,4.7356,4.8239,4.8296,4.8296,4.8296,4.8296,4.8296,4.8296,4.8296,4.8296,4.8296,4.8296,4.8659,4.9316,4.9512,5.027,2.0817,2.1436,2.177,2.2852,2.3288,2.3663,2.45,2.491,2.5601,2.7263,2.76,2.76,2.76,2.775,2.7824,2.763,2.7764,2.8201,2.9189,2.9324,2.9523,3.0032,2.9849,2.9994,3.0807,3.0527,3.0539,3.1117,3.138,3.1511,3.1511,3.1511,3.1809,3.2482,3.3155,3.3829,3.4503,3.516,3.5504,3.5504,3.5504,3.5504,3.5504,3.5717,3.6227,3.6919,3.6919,3.7687,3.8894,3.8894,3.9232,3.9795,4.002,4.0096,4.0096,4.0096,4.0096,4.0096,4.0096,4.0096,4.0096,4.0096,4.0096,4.0096,4.0096,4.0096,4.0096,4.0096,4.0096,4.0096,4.0096,4.0096,4.0146,4.0354,4.0798,4.1309,4.1715,4.2788,4.4018,4.5149,4.5923,4.656,4.7033,4.711,4.691,4.6252,4.6143,4.6002,4.5563,4.4971,4.4615,4.4615,4.4984,4.5558,4.6336,4.6853,4.756,4.8598,4.8434,4.8416,4.8655,4.8434,4.8296,4.8296,4.8545,4.8655,4.8655,4.8875,4.9315,4.9941,5.0176,5.0906,1.9779,2.0483,2.1418,2.3077,2.4414,2.5507,2.6264,2.6437,2.6662,2.7431,2.76,2.76,2.76,2.8126,2.8366,2.7705,2.8141,2.8577,2.8622,2.8622,2.8876,2.9536,2.8696,2.8422,2.9274,2.9939,3.0314,3.0329,3.1058,3.1511,3.1511,3.1511,3.1809,3.2482,3.3155,3.3829,3.4503,3.516,3.5504,3.5504,3.5504,3.5504,3.5521,3.6243,3.6994,3.7748,3.7748,3.8189,3.8894,3.8894,3.8908,3.9002,3.9795,4.0096,4.0096,4.0096,4.0096,4.0096,4.0096,4.0096,4.0096,4.0096,4.0096,4.0096,4.0096,4.0096,4.0096,4.0096,4.0096,4.0096,4.0096,4.0096,4.0282,4.1001,4.1187,4.158,4.3017,4.388,4.4588,4.5346,4.5984,4.6407,4.643,4.643,4.6228,4.5622,4.5537,4.5507,4.5494,4.4971,4.4615,4.4615,4.4612,4.5115,4.63,4.643,4.734,4.9431,4.8765,4.8673,4.9537,4.8746,4.8296,4.8296,4.9142,4.9555,4.9555,5.0343,5.0747,5.0765,5.0775,5.1226,2.0435,2.159,2.3061,2.5018,2.544,2.5714,2.6956,2.6852,2.6708,2.7446,2.76,2.76,2.76,2.7779,2.7857,2.763,2.7794,2.8081,2.8532,2.8607,2.8631,2.8732,2.8426,2.826,2.8428,2.9031,2.9675,3.0269,3.1043,3.1511,3.1511,3.1511,3.1809,3.2482,3.315,3.4069,3.5217,3.5401,3.6014,3.7026,3.7026,3.7026,3.7041,3.7279,3.7804,3.8497,3.8007,3.8527,3.9649,3.9113,3.9206,3.9714,3.9978,4.0096,4.0096,4.0096,4.0096,4.0096,4.0096,4.0096,4.0096,4.0096,4.0096,4.0096,4.0096,4.0096,4.0197,4.0679,4.0832,4.0832,4.0832,4.12,4.1504,4.1271,4.1952,4.2797,4.3304,4.4014,4.473,4.5369,4.5673,4.5808,4.5808,4.5808,4.5597,4.4984,4.4906,4.4906,4.4906,4.472,4.4615,4.4615,4.4957,4.5758,4.7143,4.7627,4.8594,5.0285,4.9619,4.9527,5.0362,4.9601,4.9407,4.9958,5.0251,5.0398,5.0398,5.0674,5.1077,5.1591,5.1591,5.2032,2.1202,2.2126,2.3192,2.5217,2.5147,2.4965,2.6468,2.6456,2.639,2.7395,2.7405,2.724,2.724,2.724,2.724,2.724,2.7632,2.8021,2.8216,2.8442,2.8467,2.809,2.7991,2.7997,2.8093,2.8709,2.9448,3.0239,3.1043,3.1511,3.1511,3.1511,3.1705,3.2138,3.303,3.3923,3.4834,3.5566,3.6571,3.7807,3.7807,3.7807,3.7822,3.8078,3.8456,3.8894,3.8707,3.9186,4.0058,3.9542,3.9636,4.0096,4.0096,4.0096,4.0096,4.0096,4.0096,4.0096,4.0096,4.0096,4.0096,4.0096,4.0282,4.0438,4.018,4.0468,4.0929,4.1136,4.139,4.1593,4.1593,4.1931,4.2252,4.2036,4.2713,4.349,4.3775,4.4245,4.4706,4.5102,4.5178,4.5178,4.5178,4.5178,4.5052,4.4668,4.4615,4.4615,4.4615,4.4615,4.4685,4.4956,4.534,4.6265,4.7951,4.8448,4.9396,5.1128,5.0482,5.039,5.1206,5.0463,5.028,5.0802,5.1077,5.1224,5.1224,5.1518,5.1922,5.2435,5.2435,5.2711,2.1917,2.2074,2.2017,2.3843,2.3693,2.3501,2.5049,2.537,2.5755,2.7195,2.6954,2.6491,2.6497,2.6524,2.6554,2.6554,2.7664,2.8336,2.769,2.8141,2.8321,2.7675,2.7442,2.7591,2.831,2.8944,2.9607,3.0316,3.1073,3.1525,3.1539,3.1553,3.1568,3.1611,3.2867,3.357,3.3602,3.5738,3.7172,3.7849,3.7892,3.7923,3.7935,3.8635,3.8962,3.9002,3.9769,4.0096,4.0096,4.0096,4.0096,4.0096,4.0096,4.0096,4.0096,4.0096,4.0117,4.0163,4.0163,4.013,4.0096,4.0096,4.0608,4.1068,4.0371,4.1166,4.2151,4.1508,4.1813,4.2367,4.2367,4.2401,4.2574,4.3237,4.344,4.366,4.4432,4.4615,4.4615,4.4615,4.4615,4.4615,4.4615,4.4615,4.4615,4.4615,4.4615,4.4601,4.4649,4.4651,4.4939,4.5686,4.5771,4.6597,4.868,4.8863,4.9775,5.1933,5.1316,5.1224,5.2024,5.1279,5.0875,5.092,5.1665,5.206,5.206,5.2839,5.3196,5.3196,5.3196,5.3196,2.1503,2.2226,2.2951,2.4025,2.3693,2.3501,2.5049,2.4965,2.4871,2.5836,2.5498,2.5051,2.5106,2.5513,2.5854,2.5854,2.6988,2.7809,2.7615,2.775,2.7794,2.7615,2.7542,2.7974,2.916,2.9412,2.9989,3.1116,3.138,3.1739,3.2285,3.2313,3.2559,3.305,3.3883,3.4578,3.513,3.7325,3.847,3.8635,3.9239,3.9506,3.9519,3.9705,3.9795,3.9808,4.002,4.0096,4.0096,4.0096,4.0096,4.0096,4.0096,4.0096,4.0096,4.0096,4.0455,4.0916,4.0916,4.0557,4.0096,4.0096,4.0608,4.1157,4.0984,4.1559,4.2384,4.273,4.2966,4.3118,4.3118,4.3555,4.3907,4.349,4.3859,4.4347,4.455,4.4615,4.4615,4.4615,4.4615,4.4615,4.4615,4.4615,4.4615,4.4615,4.4615,4.4804,4.5348,4.5415,4.5703,4.643,4.6515,4.7383,4.9505,4.969,5.0599,5.2765,5.2142,5.205,5.2847,5.2123,5.1977,5.2572,5.2792,5.2884,5.2884,5.3104,5.3196,5.3196,5.3196,5.3196,2.1995,2.2631,2.32,2.3662,2.3439,2.3348,2.4304,2.4432,2.4327,2.4289,2.4184,2.3851,2.3046,2.4126,2.5064,2.4765,2.6587,2.7944,2.7645,2.7854,2.7931,2.763,2.7869,2.844,2.9503,2.9832,3.0417,3.1421,3.1511,3.1668,3.2106,3.2424,3.2761,3.3159,3.4099,3.526,3.6652,3.7906,3.8819,3.9437,3.9889,4.0096,4.0096,4.0096,4.0096,4.0096,4.0096,4.0096,4.0096,4.0096,4.0096,4.0096,4.0096,4.0096,4.0146,4.0455,4.0832,4.1255,4.1576,4.142,4.1064,4.1064,4.1559,4.2104,4.1779,4.2439,4.3332,4.3389,4.3643,4.3927,4.3927,4.4262,4.4482,4.4028,4.4279,4.4615,4.4615,4.4615,4.4615,4.4615,4.4615,4.4615,4.4615,4.4615,4.4615,4.4615,4.4888,4.5348,4.6092,4.5906,4.6109,4.7175,4.7293,4.8155,5.0288,5.0474,5.1262,5.3085,5.2784,5.2729,5.3177,5.2766,5.2747,5.3196,5.3196,5.3196,5.3196,5.3196,5.3196,5.3196,5.3196,5.3196,2.2844,2.3108,2.3108,2.3108,2.3108,2.3124,2.3231,2.3635,2.3701,2.2639,2.2768,2.2582,2.0992,2.2766,2.4306,2.3819,2.6393,2.8248,2.7675,2.8096,2.8261,2.766,2.8186,2.8861,2.9533,3.0148,3.0777,3.1451,3.1511,3.1582,3.1768,3.2381,3.2815,3.2986,3.4124,3.5757,3.7877,3.7893,3.8633,4.0096,4.0096,4.0096,4.0096,4.0096,4.0096,4.0096,4.0096,4.0096,4.0096,4.0096,4.0096,4.0096,4.0096,4.0096,4.018,4.0815,4.1187,4.1441,4.2066,4.2435,4.257,4.2367,4.2811,4.3288,4.2642,4.345,4.4448,4.3775,4.4062,4.4615,4.4615,4.4615,4.4615,4.4615,4.4615,4.4615,4.4615,4.4615,4.4615,4.4615,4.4615,4.4615,4.4615,4.4615,4.4618,4.4719,4.528,4.6007,4.6836,4.6397,4.6517,4.7904,4.8056,4.888,5.0928,5.1099,5.1703,5.3103,5.3196,5.3196,5.3196,5.3196,5.3196,5.3196,5.3196,5.3196,5.3196,5.3196,5.3196,5.3196,5.3196,5.3196,2.3058,2.3108,2.3108,2.3108,2.3108,2.2987,2.2582,2.2152,2.1665,2.1084,2.0612,2.0386,2.0652,2.2373,2.3913,2.435,2.6303,2.7735,2.7627,2.7705,2.7735,2.76,2.8186,2.8861,2.9533,3.0148,3.0777,3.1451,3.1511,3.2006,3.3182,3.3365,3.3925,3.5028,3.5316,3.6217,3.7877,3.7893,3.8633,4.0096,4.0096,4.0096,4.0096,4.0096,4.0096,4.0096,4.0096,4.0096,4.0096,4.0096,4.0096,4.0096,4.0096,4.0096,4.013,4.0235,4.1064,4.2117,4.2266,4.3129,4.3992,4.2706,4.2811,4.3389,4.3254,4.3859,4.4567,4.4432,4.4482,4.4615,4.4615,4.4615,4.4615,4.4615,4.4615,4.4615,4.4615,4.4615,4.4615,4.4615,4.4615,4.4615,4.4615,4.4615,4.4804,4.5415,4.5618,4.6179,4.7532,4.7599,4.7853,4.8731,4.88,4.9429,5.0981,5.1099,5.1703,5.3103,5.3196,5.3196,5.3196,5.3196,5.3196,5.3196,5.3196,5.3196,5.3196,5.3196,5.3196,5.3196,5.3196,5.3196,2.3108,2.3108,2.3108,2.3108,2.3108,2.2896,2.206,2.1603,2.0941,1.945,1.9145,1.9024,1.8676,2.0524,2.2313,2.2986,2.5046,2.6674,2.7031,2.7375,2.76,2.76,2.85,2.9249,2.9563,3.0462,3.1152,3.1481,3.1511,3.1965,3.3026,3.3735,3.4568,3.5577,3.6011,3.6755,3.7877,3.8278,3.9017,4.0096,4.0096,4.0096,4.0096,4.0096,4.0096,4.0096,4.0096,4.0096,4.0096,4.0096,4.0096,4.0096,4.0096,4.0096,4.0146,4.0523,4.1119,4.1779,4.2181,4.2773,4.3281,4.2536,4.3081,4.4012,4.4012,4.4296,4.4615,4.4615,4.4615,4.4615,4.4615,4.4615,4.4615,4.4615,4.4615,4.4615,4.4615,4.4615,4.4615,4.4615,4.4615,4.4615,4.4615,4.4922,4.528,4.5652,4.6348,4.7109,4.7819,4.8242,4.8597,4.8968,4.9001,4.9566,5.0981,5.0743,5.1138,5.2543,5.264,5.264,5.264,5.2999,5.3196,5.3196,5.3196,5.3196,5.3196,5.3196,5.3196,5.3196,5.3196,5.3196,2.3108,2.3108,2.3108,2.3108,2.3108,2.2818,2.1732,2.1244,2.0427,1.8431,1.827,1.8252,1.7473,1.9298,2.1186,2.1979,2.4062,2.5827,2.6509,2.718,2.7645,2.7809,2.8873,2.9653,2.9773,3.0837,3.1511,3.1511,3.1782,3.2201,3.2774,3.4103,3.5063,3.5588,3.6378,3.7156,3.7893,3.8633,3.9372,4.0096,4.0096,4.0096,4.0096,4.0096,4.0096,4.0096,4.0096,4.0096,4.0096,4.0096,4.0096,4.0096,4.0096,4.0096,4.018,4.076,4.1068,4.1275,4.1863,4.2181,4.23,4.23,4.3112,4.411,4.411,4.4212,4.4347,4.4347,4.4465,4.4615,4.4615,4.4615,4.4615,4.4615,4.4615,4.4615,4.4615,4.4615,4.4615,4.4615,4.4615,4.4615,4.4615,4.5213,4.5703,4.5703,4.6957,4.7904,4.7904,4.8529,4.9001,4.9001,4.9138,4.9666,5.077,5.0472,5.0765,5.2012,5.2101,5.2159,5.2335,5.2886,5.3196,5.3196,5.3196,5.3196,5.3196,5.3196,5.3196,5.3196,5.3196,5.3104,2.3108,2.3108,2.3108,2.3108,2.3108,2.2818,2.1732,2.0557,1.9484,1.8838,1.8226,1.8132,1.9211,2.0627,2.2009,2.3236,2.4657,2.5827,2.6509,2.718,2.7824,2.844,2.9159,2.9817,3.0357,3.1062,3.1511,3.1511,3.2678,3.3443,3.3492,3.4776,3.5543,3.56,3.6378,3.7156,3.7893,3.8633,3.9372,4.0096,4.0096,4.0096,4.0096,4.0096,4.0096,4.0096,4.0096,4.0096,4.0096,4.0096,4.0096,4.0096,4.0096,4.0096,4.0113,4.018,4.0625,4.1208,4.1288,4.1728,4.23,4.23,4.2401,4.252,4.252,4.298,4.3507,4.3507,4.4045,4.4615,4.4615,4.4615,4.4615,4.4615,4.4615,4.4615,4.4615,4.4615,4.4615,4.4615,4.4615,4.4615,4.4615,4.5213,4.5703,4.5703,4.6957,4.7904,4.7904,4.8529,4.9001,4.9001,4.9534,4.9962,5.0086,5.0649,5.1317,5.2047,5.2101,5.2393,5.3082,5.3164,5.3196,5.3196,5.3196,5.3196,5.3196,5.3196,5.3196,5.3196,5.3196,5.281,2.3108,2.3108,2.3108,2.3108,2.2857,2.2412,2.1624,2.0457,1.9399,1.8849,1.8189,1.7997,1.8927,1.9525,2.0468,2.2183,2.3236,2.407,2.4713,2.5719,2.6632,2.7333,2.8338,2.9385,3.0402,3.1107,3.1668,3.2134,3.305,3.3773,3.4186,3.5549,3.6315,3.6315,3.7494,3.8273,3.8565,3.9288,3.9808,4.0096,4.0096,4.0096,4.0096,4.0096,4.0096,4.0096,4.0096,4.0096,4.0096,4.0096,4.0096,4.0096,4.0096,4.0096,4.0096,4.0096,4.0286,4.054,4.054,4.0726,4.098,4.098,4.098,4.1132,4.2029,4.2506,4.2828,4.3288,4.3626,4.3995,4.4465,4.4615,4.4615,4.4615,4.4615,4.4615,4.4615,4.4615,4.4615,4.4615,4.4615,4.4615,4.4615,4.5582,4.621,4.5771,4.7329,4.8394,4.7954,4.8529,4.9001,4.9001,4.9241,4.9563,4.9962,4.9893,5.0118,5.0792,5.1249,5.1636,5.1928,5.2754,5.3196,5.3196,5.3196,5.3196,5.3196,5.3196,5.2957,5.2472,5.2472,5.205,2.3007,2.3108,2.3108,2.3108,2.2694,2.214,2.1542,2.0479,1.9498,1.9086,1.8454,1.8192,1.8867,1.9084,1.9655,2.116,2.2079,2.2827,2.3496,2.4571,2.5618,2.6509,2.7617,2.8815,3.0103,3.1002,3.181,3.2532,3.3209,3.3899,3.4564,3.6204,3.7021,3.6812,3.8239,3.9,3.9,3.9728,4.0096,4.0096,4.0096,4.0096,4.0096,4.0096,4.0096,4.0096,4.0096,4.0096,4.0096,4.0096,4.0096,4.0096,4.0096,4.0096,4.0096,4.0096,4.0096,4.0096,4.0096,4.0096,4.0096,4.0096,4.0096,4.0299,4.1335,4.1961,4.2418,4.2929,4.3389,4.3893,4.4448,4.4615,4.4615,4.4615,4.4615,4.4615,4.4615,4.4615,4.4615,4.4615,4.4615,4.4615,4.4615,4.5633,4.6295,4.5788,4.7411,4.8479,4.7971,4.8529,4.9001,4.9001,4.9001,4.9197,4.9664,4.9447,4.9492,4.9962,5.0689,5.1189,5.1381,5.2561,5.3196,5.3196,5.3196,5.3196,5.3196,5.2957,5.2546,5.1987,5.1767,5.1206,2.2807,2.3108,2.3108,2.3108,2.2694,2.214,2.1542,2.0479,1.962,1.9675,1.9151,1.8888,1.9573,2.0011,2.0389,2.0668,2.1605,2.26,2.3479,2.4182,2.5109,2.645,2.721,2.8139,2.9473,3.0762,3.181,3.2532,3.3209,3.3899,3.4564,3.6695,3.755,3.6829,3.8239,3.9,3.9,3.9728,4.0096,4.0096,4.0096,4.0096,4.0096,4.0096,4.0096,4.0096,4.0096,4.0096,4.0096,4.0096,4.0096,4.0096,4.0096,4.0096,4.0096,4.0096,4.0096,4.0096,4.0096,4.0096,4.0096,4.0096,4.0096,4.0096,4.013,4.1132,4.23,4.2317,4.3416,4.4598,4.4615,4.4615,4.4615,4.4615,4.4615,4.4615,4.4615,4.4615,4.4615,4.4615,4.4615,4.4615,4.4615,4.5227,4.572,4.5703,4.6957,4.7904,4.7904,4.8529,4.9001,4.9001,4.9001,4.9001,4.9001,4.9622,4.999,5.0004,5.0689,5.1393,5.2059,5.2791,5.3196,5.3196,5.3196,5.3196,5.3196,5.2399,5.2005,5.1987,5.1187,5.039,2.192,2.2008,2.192,2.1557,2.0752,2.0093,2.0263,1.9691,1.9224,1.962,1.9528,1.9444,1.9654,2.0035,2.0696,2.1864,2.2589,2.3131,2.3539,2.4971,2.6123,2.6554,2.8771,3.0433,3.0867,3.1256,3.181,3.2532,3.3209,3.3899,3.4564,3.6695,3.7787,3.755,3.8983,3.9745,3.9745,3.9982,4.0096,4.0096,4.0096,4.0096,4.0096,4.0096,4.0096,4.0096,4.0096,4.0096,4.0096,4.0096,4.0096,4.0096,4.0096,4.0096,4.0096,4.0096,4.0096,4.0096,4.0096,4.0096,4.0096,4.0096,4.0096,4.0096,4.0096,4.0777,4.1762,4.2763,4.3792,4.4615,4.4615,4.4615,4.4615,4.4615,4.4615,4.4615,4.4615,4.4615,4.4615,4.4615,4.4615,4.4615,4.4615,4.5633,4.6278,4.5788,4.738,4.8462,4.7971,4.8529,4.9001,4.9001,4.8546,4.8242,4.8242,4.8434,4.8345,4.7846,4.8893,4.9884,5.0629,5.1246,5.2076,5.3177,5.2656,5.238,5.238,5.2115,5.1436,5.0335,4.9481,4.8948,2.0904,2.103,2.0841,2.0729,2.0003,1.939,1.973,1.9491,1.9304,1.9636,1.9708,1.9708,1.9708,1.9845,2.0314,2.1388,2.1709,2.2164,2.313,2.4534,2.5941,2.72,2.9371,3.0867,3.1092,3.1346,3.181,3.2532,3.2986,3.362,3.4552,3.6428,3.7614,3.7893,3.9339,4.0096,4.0096,4.0096,4.0096,4.0096,4.0096,4.0096,4.0096,4.0096,4.0096,4.0096,4.0096,4.0096,0.0,4.0096,4.0096,4.0096,4.0096,4.0096,4.0096,4.0096,4.0096,4.0096,4.0096,4.0096,4.0096,4.0096,4.0286,4.0574,4.0857,4.1251,4.1931,4.3436,4.4198,4.4615,4.4615,4.4615,4.4615,4.4615,4.4615,4.4615,4.4615,4.4615,4.4615,4.4615,4.4615,4.4615,4.4615,4.5362,4.6005,4.6092,4.7293,4.8206,4.8293,4.8715,4.89,4.8597,4.8174,4.7684,4.7126,4.7329,4.7293,4.6834,4.8058,4.9022,4.953,5.0348,5.1269,5.226,5.1793,5.1555,5.1555,5.1234,5.0408,4.9105,4.8545,4.8296,0.0,1.9962,1.9685,2.0214,1.995,1.9578,1.9614,1.9628,0.0,1.9685,1.9654,1.9654,1.9744,1.9563,1.9517,1.9864,1.9816,2.0459,2.254,2.3486,2.5166,2.8427,2.9368,2.9967,3.0522,3.1122,3.1782,3.2479,3.2559,3.3161,3.4448,3.5976,3.7145,3.7877,3.9331,4.0096,4.0096,4.0096,4.0096,4.0096,4.0096,4.0096,4.0096,4.0096,4.0096,4.0096,4.0096,4.0096,4.0096,4.0096,4.0096,4.0096,4.0096,4.0096,4.0096,4.0096,4.0096,4.0096,4.0096,4.0096,4.0096,4.0096,4.0608,4.1339,4.2066,4.235,4.2689,4.4178,4.4615,4.4615,4.4615,4.4615,4.4615,4.4615,4.4615,4.4615,4.4615,4.4615,4.4615,4.4615,4.4615,4.4615,4.4615,4.4699,4.521,4.6597,4.6902,4.7445,4.8832,4.9001,4.8715,4.7988,4.7853,4.7244,4.5821,4.6329,4.6699,4.6648,4.7901,4.8668,4.8721,4.996,5.0692,5.0802,5.0747,5.071,5.071,4.9894,4.9087,4.8296,4.8296,4.8296,1.647,0.0,1.7213,1.6936,1.7087,1.7386,0.0,1.8511,1.9203,0.0,0.0,0.0,0.0,1.9882,1.997,2.1718,2.2639,2.3376,2.4069,2.6037,2.8278,3.0539,3.0972,3.1107,3.1256,3.1406,3.1568,3.1754,3.2285,3.2938,3.3706,3.5685,3.71,3.7801,3.9299,4.0096,4.0096,4.0096,4.0096,4.0096,4.0096,4.0096,4.0096,4.0096,4.0096,4.0096,4.0096,4.0096,4.0096,4.0096,4.0096,4.0096,4.0096,4.0096,4.0096,4.0096,4.0096,4.0096,4.0096,4.0096,4.0096,4.0096,4.0608,4.1339,4.2066,4.2692,4.3352,4.433,4.4615,4.4615,4.4615,4.4615,4.4615,4.4615,4.4615,4.4615,4.4615,4.4615,4.4615,4.4615,4.4615,4.4615,4.4615,4.5531,4.6394,4.675,4.775,4.8612,4.8968,4.9001,4.8715,4.7988,4.7411,4.6684,4.5788,4.5872,4.572,4.5142,4.6272,4.7262,4.7931,4.8552,4.9489,5.0765,5.0206,4.9876,4.9876,4.9022,4.8508,4.8296,4.8296,4.8296,1.44,1.5332,1.6195,1.6419,1.6631,1.7002,1.784,1.8209,1.8514,0.0,0.0,0.0,0.0,1.9647,2.0032,2.1534,2.2798,2.4132,2.5755,2.7767,2.9669,3.1316,3.1511,3.1511,3.1511,3.1511,3.1511,3.1511,3.2154,3.2982,3.4003,3.5798,3.7282,3.8315,3.9489,4.0096,4.0096,4.0096,4.0096,4.0096,4.0096,4.0096,4.0096,4.0096,4.0096,4.0096,4.0096,4.0096,4.0096,4.0096,4.0096,4.0096,4.0096,4.0096,4.0096,4.0096,4.0096,4.0096,4.0096,4.0096,4.0163,4.0489,4.1102,4.1847,4.2591,4.3335,4.4045,4.4482,4.4615,4.4615,4.4615,4.4615,4.4615,4.4615,4.4615,4.4615,4.4615,4.4615,4.4615,4.4615,4.4615,4.4615,4.4615,4.5548,4.6295,4.6295,4.7564,4.8496,4.8496,4.8783,4.8595,4.7513,4.7039,4.6346,4.5294,4.5196,4.5024,4.4618,4.5732,4.6613,4.708,4.7881,4.8728,4.9646,4.9224,4.9003,4.9003,4.8526,4.8296,4.8296,4.8296,4.8296,1.3407,1.4616,1.6005,1.6719,1.701,1.7404,1.8422,1.8319,1.817,1.8747,0.0,0.0,0.0,1.9609,2.0168,2.1137,2.2423,2.441,2.76,2.9022,3.0192,3.1361,3.1511,3.1511,3.1511,3.1585,3.1645,3.1645,3.2273,3.3252,3.4596,3.5914,3.7294,3.8757,3.9412,3.9863,4.0096,4.0096,4.0096,4.0096,4.0096,4.0096,4.01,3.9965,3.9978,4.0083,3.9965,3.9995,4.0096,4.0096,4.0096,4.0096,4.0096,4.0096,4.0096,4.0096,4.0096,4.0096,4.0096,4.0096,4.0218,4.0967,4.1694,4.2439,4.3186,4.3961,4.4615,4.4615,4.4615,4.4615,4.4615,4.4615,4.4615,4.4615,4.4615,4.4615,4.4615,4.4615,4.4615,4.4615,4.4615,4.4615,4.4615,4.5213,4.5703,4.5703,4.6855,4.7735,4.7735,4.8291,4.8139,4.6783,4.6616,4.609,4.4733,4.4615,4.4615,4.4615,4.5732,4.6489,4.6687,4.7728,4.8296,4.8296,4.8296,4.8296,4.8296,4.8296,4.8296,4.8296,4.8296,4.8296,1.4384,1.549,1.6084,1.4893,1.5955,1.7315,1.7495,1.8505,1.9414,1.9528,1.9016,1.9271,2.1655,2.1246,2.1301,2.3618,2.5136,2.6944,2.9669,3.0238,3.0643,3.1406,3.1511,3.1511,3.1511,3.2004,3.2347,3.2347,3.2976,3.3682,3.4485,3.5335,3.6461,3.7929,3.8086,3.8778,4.0083,4.0096,4.0096,4.0096,4.0096,4.0096,4.007,3.9381,3.9463,4.0058,3.9368,3.9476,4.0096,4.0096,4.0096,4.0096,4.0096,4.0096,4.0096,4.0096,4.0096,4.0096,4.0096,4.0096,4.0218,4.0967,4.1694,4.2439,4.3186,4.3961,4.4615,4.4615,4.4615,4.4615,4.4615,4.4615,4.4615,4.4615,4.4615,4.4615,4.4615,4.4615,4.4615,4.4615,4.4615,4.4615,4.4615,4.5213,4.5703,4.5703,4.6413,4.6972,4.6972,4.7056,4.6802,4.5957,4.5872,4.5517,4.4668,4.4615,4.4615,4.4615,4.5732,4.688,4.7967,4.8201,4.8296,4.8296,4.8296,4.8296,4.8296,4.8296,4.8296,4.8296,4.8296,4.8296,1.3839,1.4789,1.5691,1.5925,1.7609,1.9475,2.0514,2.0771,2.0776,2.0776,2.0243,2.0264,2.1869,2.2218,2.3255,2.6276,2.729,2.8338,3.0238,3.0507,3.0747,3.1421,3.1511,3.1511,3.1511,3.2108,3.2497,3.2497,3.3455,3.4361,3.5065,3.5752,3.6827,3.8358,3.8386,3.8938,4.0083,3.9662,3.9662,4.0096,4.0096,3.9859,3.9437,3.9072,3.9099,3.9437,3.9072,3.9355,4.0096,4.0096,4.0096,4.0096,4.0096,4.0096,4.0096,4.0096,4.0096,4.0096,4.0096,4.0354,4.0828,4.1542,4.2286,4.3047,4.3809,4.4313,4.4615,4.4615,4.4615,4.4615,4.4615,4.4615,4.4615,4.4615,4.4615,4.4615,4.4615,4.4615,4.4615,4.4615,4.4615,4.4615,4.4615,4.5213,4.5568,4.5176,4.6073,4.6665,4.6261,4.6549,4.6515,4.5788,4.5703,4.5399,4.4651,4.4615,4.4879,4.552,4.6082,4.6959,4.8258,4.8296,4.8296,4.8296,4.8296,4.8296,4.8296,4.8296,4.8296,4.8296,4.8296,4.8296,1.3717,1.4503,1.5705,1.7545,1.9089,2.0762,2.2997,2.2573,2.1784,2.2084,2.1739,2.1625,2.2458,2.3804,2.5659,2.8382,2.8951,2.9445,3.0568,3.0732,3.0927,3.1451,3.1511,3.157,3.172,3.2347,3.2796,3.2961,3.4084,3.4981,3.5554,3.6061,3.7054,3.8594,3.8467,3.884,3.9808,3.9032,3.9032,3.9808,3.9636,3.9236,3.8635,3.8453,3.8564,3.8894,3.8718,3.9196,4.0096,4.0096,4.0096,4.013,4.0286,4.0455,4.0557,4.0231,4.0214,4.032,4.0163,4.0591,4.1322,4.2049,4.2811,4.3558,4.4364,4.4615,4.4615,4.4615,4.4615,4.4615,4.4615,4.4615,4.4615,4.4615,4.4615,4.4615,4.4615,4.4615,4.4615,4.4615,4.4615,4.4615,4.4615,4.5074,4.5246,4.4699,4.5565,4.609,4.5517,4.594,4.6073,4.55,4.5449,4.5213,4.4649,4.4615,4.5048,4.6119,4.6478,4.701,4.7828,4.8134,4.822,4.8085,4.822,4.8296,4.8296,4.8296,4.8296,4.8296,4.8296,4.8296,1.5251,1.5934,1.6832,1.8713,1.8734,1.9116,2.2238,2.2302,2.2049,2.3221,2.3415,2.3789,2.5079,2.6931,2.8517,2.9383,2.9998,3.0613,3.1331,3.1436,3.1451,3.1496,3.1511,3.175,3.2362,3.3036,3.3694,3.4308,3.5011,3.5446,3.5495,3.554,3.629,3.782,3.7159,3.7482,3.8962,3.8262,3.8262,3.8975,3.8304,3.7951,3.7849,3.7114,3.754,3.8867,3.8177,3.872,4.0096,4.0096,4.0096,4.018,4.0849,4.1542,4.1978,4.0591,4.054,4.1018,4.0337,4.0591,4.1322,4.2049,4.2811,4.3558,4.4364,4.4615,4.4615,4.4615,4.4615,4.4615,4.4615,4.4615,4.4615,4.4615,4.4615,4.4615,4.4615,4.4615,4.4615,4.4615,4.4615,4.4615,4.4615,4.4635,4.4651,4.4601,4.4699,4.475,4.4699,4.4719,4.475,4.4668,4.4668,4.4651,4.4615,4.4615,4.4882,4.5507,4.6682,4.7077,4.656,4.7677,4.8035,4.7488,4.8007,4.8296,4.8296,4.8296,4.8296,4.8296,4.8296,4.8296,1.4588,1.5578,1.6965,1.8879,1.9573,2.0531,2.342,2.4433,2.4998,2.5896,2.5761,2.5615,2.6123,2.7872,2.9294,2.9563,3.0462,3.1212,3.1466,3.1511,3.1511,3.1511,3.1869,3.2228,3.2482,3.3484,3.4218,3.4488,3.5115,3.5504,3.5504,3.5504,3.5974,3.7009,3.6768,3.7129,3.822,3.744,3.7188,3.7467,3.7688,3.7544,3.7039,3.6753,3.7188,3.8189,3.7921,3.8665,4.0096,4.0096,4.0096,4.0168,4.0916,4.1644,4.2232,4.1674,4.164,4.183,4.1555,4.1948,4.2611,4.2882,4.3504,4.4212,4.4499,4.4615,4.4615,4.4615,4.4615,4.4615,4.4615,4.4615,4.4615,4.4615,4.4615,4.4615,4.4615,4.4615,4.4615,4.4615,4.4615,4.4615,4.4615,4.4615,4.4615,4.4615,4.4615,4.4615,4.4615,4.4615,4.4615,4.4615,4.4615,4.4615,4.4615,4.4615,4.4692,4.4934,4.61,4.6664,4.6419,4.7617,4.8025,4.7406,4.7987,4.8296,4.8296,4.8296,4.8296,4.8296,4.8296,4.8296,1.4916,1.5804,1.7179,1.8854,1.9921,2.1227,2.3773,2.5009,2.5989,2.7338,2.724,2.7048,2.7467,2.8665,2.9653,2.9862,3.0792,3.1511,3.1511,3.1511,3.1585,3.1795,3.2228,3.2662,3.3095,3.3964,3.4578,3.4802,3.5235,3.5504,3.5504,3.5504,3.5846,3.6584,3.6615,3.6858,3.7427,3.6873,3.6477,3.6259,3.6814,3.6784,3.6244,3.6244,3.6814,3.7807,3.7807,3.8665,4.013,4.0354,4.0726,4.114,4.1144,4.1903,4.2932,4.2169,4.222,4.2608,4.2384,4.2777,4.3406,4.3406,4.3944,4.4615,4.4615,4.4615,4.4615,4.4615,4.4615,4.4615,4.4615,4.4615,4.4615,4.4615,4.4615,4.4615,4.4615,4.4615,4.4615,4.4615,4.4615,4.4615,4.4615,4.4615,4.4615,4.4615,4.4615,4.4615,4.4615,4.4615,4.4615,4.4615,4.4615,4.4615,4.4615,4.4615,4.4615,4.4615,4.5545,4.6124,4.6124,4.7335,4.7818,4.7406,4.7987,4.8296,4.8296,4.8296,4.8296,4.8296,4.8296,4.8296,1.6649,1.6936,1.7663,1.8732,1.9521,2.0633,2.2894,2.3469,2.4291,2.7046,2.763,2.8034,2.9367,2.9593,2.9803,3.0402,3.1076,3.1511,3.1525,3.1525,3.1765,3.2452,3.2527,3.3036,3.4384,3.4503,3.4787,3.5459,3.5504,3.5504,3.5504,3.5504,3.5831,3.6569,3.66,3.66,3.66,3.66,3.6212,3.5504,3.5504,3.5504,3.5504,3.5504,3.6336,3.7793,3.7793,3.8668,4.0138,4.087,4.2057,4.3225,4.1624,4.2454,4.43,4.1889,4.2021,4.3291,4.2574,4.2811,4.3423,4.3423,4.3944,4.4615,4.4615,4.4615,4.4615,4.4615,4.4615,4.4615,4.4615,4.4615,4.4615,4.4615,4.4615,4.4615,4.4615,4.4615,4.4615,4.4615,4.4615,4.4615,4.4615,4.4615,4.4615,4.4615,4.4615,4.4615,4.4615,4.4615,4.4615,4.4615,4.4615,4.4615,4.4615,4.4615,4.4615,4.4615,4.5152,4.5498,4.5498,4.6716,4.7396,4.7385,4.7977,4.8296,4.8296,4.8296,4.8296,4.8296,4.8296,4.8296,1.5527,1.6635,1.8145,1.8881,2.0988,2.3199,2.4392,2.4682,2.5347,2.7628,2.8916,2.9624,2.9593,2.9952,3.0283,3.0477,3.145,3.2362,3.2841,3.2916,3.3335,3.4456,3.4188,3.4263,3.5115,3.519,3.5295,3.5489,3.5504,3.5504,3.5504,3.5504,3.5603,3.583,3.583,3.583,3.583,3.583,3.5717,3.5504,3.5504,3.5504,3.5504,3.5504,3.6022,3.698,3.745,3.7973,3.8537,3.9225,4.0349,4.1587,4.1119,4.1679,4.2766,4.2661,4.2929,4.339,4.3777,4.4059,4.4245,4.4245,4.4415,4.4615,4.4615,4.4615,4.4615,4.4615,4.4615,4.4615,4.4615,4.4615,4.4615,4.4615,4.4615,4.4615,4.4615,4.4615,4.4615,4.4615,4.4615,4.4615,4.4615,4.4615,4.4615,4.4615,4.4615,4.4615,4.4615,4.4615,4.4615,4.4615,4.4615,4.4615,4.4615,4.4615,4.4615,4.4615,4.4776,4.4882,4.4882,4.6495,4.7183,4.6698,4.7749,4.8296,4.8296,4.8296,4.8296,4.8296,4.8296,4.8296,1.7172,1.8329,1.9762,2.0798,2.2231,2.3726,2.5057,2.5647,2.6264,2.7479,2.8756,2.9761,3.0159,3.0594,3.1151,3.1958,3.2766,3.3529,3.4203,3.4292,3.4696,3.5774,3.555,3.5461,3.5848,3.5893,3.5789,3.5534,3.5504,3.5504,3.5504,3.5504,3.5504,3.5504,3.5504,3.5504,3.5504,3.5504,3.5504,3.5504,3.5504,3.5504,3.5504,3.5504,3.591,3.6661,3.7653,3.8301,3.8702,3.936,4.0304,4.1294,4.0974,4.1309,4.2029,4.2205,4.2724,4.3366,4.3902,4.4312,4.4615,4.4615,4.4615,4.4615,4.4615,4.4615,4.4615,4.4615,4.4615,4.4615,4.4615,4.4615,4.4615,4.4615,4.4615,4.4615,4.4615,4.4615,4.4615,4.4615,4.4615,4.4615,4.4615,4.4615,4.4615,4.4615,4.4615,4.4615,4.4615,4.4615,4.4615,4.4615,4.4615,4.4615,4.4615,4.4615,4.4615,4.4615,4.4615,4.4706,4.4961,4.6269,4.6943,4.679,4.7787,4.8296,4.8296,4.8296,4.8296,4.8296,4.8296,4.8296,2.005,2.0905,2.1884,2.3452,2.3226,2.315,2.5209,2.6374,2.702,2.7033,2.7798,2.9013,3.088,3.1376,3.2154,3.4122,3.4495,3.4795,3.5563,3.5667,3.5953,3.6688,3.6673,3.6613,3.6673,3.6568,3.6254,3.5639,3.5518,3.5504,3.5504,3.5504,3.5504,3.5504,3.5504,3.5504,3.5504,3.5504,3.5504,3.5504,3.5504,3.5518,3.5594,3.5534,3.5923,3.6739,3.8037,3.9069,3.991,4.0452,4.1103,4.169,4.0878,4.1063,4.1674,4.0962,4.174,4.3184,4.3276,4.3858,4.4615,4.4615,4.4615,4.4615,4.4615,4.4615,4.4615,4.4615,4.4615,4.4615,4.4615,4.4615,4.4615,4.4615,4.4615,4.4615,4.4615,4.4615,4.4615,4.4615,4.4615,4.4615,4.4615,4.4615,4.4615,4.4615,4.4615,4.4615,4.4615,4.4615,4.4615,4.4615,4.4615,4.4615,4.4615,4.4615,4.4615,4.4615,4.4615,4.4865,4.5472,4.6088,4.671,4.7385,4.7987,4.8296,4.8296,4.8296,4.8296,4.8296,4.8296,4.826,1.7476,1.9409,2.1696,2.2472,2.3791,2.5134,2.6097,2.6794,2.7417,2.8037,2.8855,2.9882,3.1195,3.1469,3.205,3.3749,3.4477,3.5317,3.6777,3.6984,3.7449,3.8629,3.7853,3.7404,3.7928,3.7092,3.6449,3.6314,3.5804,3.5504,3.5504,3.5504,3.5504,3.5504,3.5504,3.5504,3.5504,3.5504,3.5504,3.5504,3.5504,3.5774,3.6269,3.5744,3.6142,3.7226,3.7062,3.7948,3.948,3.9087,3.9347,3.9935,3.9755,3.9776,4.0008,4.0518,4.1379,4.2379,4.3063,4.3858,4.4615,4.4615,4.4615,4.4615,4.4615,4.4615,4.4615,4.4615,4.4615,4.4615,4.4615,4.4615,4.4615,4.4615,4.4615,4.4615,4.4615,4.4615,4.4615,4.4615,4.4615,4.4615,4.4615,4.4615,4.4615,4.4615,4.4615,4.4615,4.4615,4.4615,4.4615,4.4615,4.4615,4.4615,4.4615,4.4615,4.4615,4.4615,4.4615,4.4865,4.5472,4.6088,4.671,4.7385,4.7987,4.8296,4.8296,4.8296,4.8296,4.8296,4.8296,4.7966,1.8531,2.0363,2.2196,2.3552,2.4958,2.6168,2.6746,2.7097,2.7655,2.888,2.9592,3.0275,3.1195,3.1906,3.2847,3.4329,3.5274,3.6223,3.7414,3.8029,3.8614,3.9316,3.8778,3.824,3.7943,3.7315,3.6671,3.6073,3.5699,3.5504,3.5504,3.5504,3.5504,3.5504,3.5504,3.5504,3.5504,3.5504,3.5504,3.5504,3.5833,3.6312,3.6911,3.6567,3.6776,3.7387,3.7404,3.7973,3.8931,3.8901,3.9077,3.9406,3.9406,3.9406,3.9445,3.9902,4.0638,4.1511,4.2379,4.3244,4.4049,4.4454,4.4615,4.4615,4.4615,4.4615,4.4615,4.4615,4.4615,4.4615,4.4615,4.4615,4.4615,4.4615,4.4615,4.4615,4.4615,4.4615,4.4615,4.4615,4.4615,4.4615,4.4615,4.4615,4.4615,4.4615,4.4615,4.4615,4.4615,4.4615,4.4615,4.4615,4.4615,4.4615,4.4615,4.4615,4.4615,4.4615,4.4615,4.4865,4.5472,4.5808,4.6419,4.7385,4.7715,4.8015,4.8296,4.8296,4.8296,4.8296,4.8296,4.7874,1.9748,2.138,2.2859,2.5188,2.6118,2.6637,2.7173,2.7449,2.8015,2.9478,2.9984,3.0401,3.1214,3.2328,3.3563,3.4979,3.5884,3.6765,3.7681,3.8564,3.9177,3.9388,3.9406,3.8913,3.7704,3.7479,3.6926,3.5759,3.5564,3.5504,3.5504,3.5504,3.5504,3.5504,3.5504,3.5504,3.5504,3.5609,3.5669,3.5684,3.6447,3.709,3.7584,3.7686,3.7671,3.7599,3.8153,3.8484,3.8616,3.9167,3.9406,3.9406,3.9406,3.9406,3.9406,3.9406,3.9955,4.0811,4.1707,4.2567,4.3441,4.4327,4.4615,4.4615,4.4615,4.4615,4.4615,4.4615,4.4615,4.4615,4.4615,4.4615,4.4615,4.4615,4.4615,4.4615,4.4615,4.4615,4.4615,4.4615,4.4615,4.4615,4.4615,4.4615,4.4615,4.4615,4.4615,4.4615,4.4615,4.4615,4.4615,4.4615,4.4615,4.4615,4.4615,4.4615,4.4615,4.4615,4.4615,4.4865,4.5472,4.5511,4.6088,4.7374,4.7396,4.7705,4.8296,4.8296,4.8296,4.8296,4.815,4.7746,1.6346,1.9334,2.2962,2.5707,2.6436,2.6637,2.7173,2.8021,2.8894,2.9641,2.9825,3.0313,3.1784,3.2215,3.289,3.4521,3.4879,3.564,3.7515,3.7919,3.8364,3.9283,3.9406,3.9092,3.8332,3.7749,3.712,3.6434,3.5833,3.5504,3.5504,3.5504,3.5504,3.5504,3.5504,3.5504,3.5504,3.6073,3.6374,3.6372,3.7586,3.82,3.8305,3.8871,3.8826,3.8257,3.8365,3.8736,3.9272,3.9361,3.9406,3.9406,3.9406,3.9406,3.9406,3.9406,3.9955,4.0811,4.1707,4.2567,4.3441,4.4327,4.4615,4.4615,4.4615,4.4615,4.4615,4.4615,4.4615,4.4615,4.4615,4.4615,4.4615,4.4615,4.4615,4.4615,4.4615,4.4615,4.4615,4.4615,4.4615,4.4615,4.4615,4.4615,4.4615,4.4615,4.4615,4.4615,4.4615,4.4615,4.4615,4.4615,4.4615,4.4615,4.4615,4.4615,4.4615,4.4615,4.4615,4.4865,4.5472,4.5511,4.6088,4.7374,4.7396,4.7705,4.8296,4.8296,4.8296,4.8278,4.7581,4.7204,1.7825,2.0577,2.3349,2.5871,2.6725,2.716,2.8009,2.8819,2.9741,3.0909,3.1148,3.1373,3.2077,3.2478,3.2958,3.3674,3.4317,3.502,3.5935,3.7055,3.7975,3.8453,3.8709,3.8571,3.7898,3.727,3.6626,3.5983,3.5669,3.5504,3.5504,3.5504,3.5504,3.5504,3.5504,3.5684,3.6058,3.6359,3.6868,3.7571,3.814,3.8601,3.8975,3.9272,3.9242,3.896,3.896,3.914,3.9406,3.9406,3.9406,3.9406,3.9406,3.9406,3.9406,3.9406,3.9646,4.0168,4.1527,4.2252,4.2801,4.415,4.4615,4.4615,4.4615,4.4615,4.4615,4.4615,4.4615,4.4615,4.4615,4.4615,4.4615,4.4615,4.4615,4.4615,4.4615,4.4615,4.4615,4.4615,4.4615,4.4615,4.4615,4.4615,4.4615,4.4615,4.4615,4.4615,4.4615,4.4615,4.4615,4.4615,4.4615,4.4615,4.4615,4.4615,4.4615,4.4615,4.4615,4.472,4.4984,4.532,4.5933,4.6813,4.7205,4.7705,4.8296,4.8296,4.8296,4.8296,4.7948,4.7526,1.858,2.0614,2.2332,2.515,2.6268,2.7092,2.8743,2.9591,3.0419,3.1901,3.2307,3.2428,3.2428,3.2801,3.3102,3.3102,3.3776,3.4387,3.4664,3.6035,3.7133,3.7504,3.7806,3.7785,3.7221,3.6746,3.6207,3.5549,3.5504,3.5504,3.5504,3.5504,3.5504,3.5504,3.5504,3.5818,3.6493,3.6823,3.7556,3.8646,3.8646,3.8916,3.9406,3.9406,3.9406,3.9406,3.9406,3.9406,3.9406,3.9406,3.9406,3.9406,3.9406,3.9406,3.9406,3.9406,3.9406,3.9646,4.1411,4.1997,4.2284,4.4018,4.4615,4.4615,4.4615,4.4615,4.4615,4.4615,4.4615,4.4615,4.4615,4.4615,4.4615,4.4615,4.4615,4.4615,4.4615,4.4615,4.4615,4.4615,4.4615,4.4615,4.4615,4.4615,4.4615,4.4615,4.4615,4.4615,4.4615,4.4615,4.4615,4.4615,4.4615,4.4615,4.4615,4.4615,4.4615,4.4615,4.4615,4.4615,4.4615,4.532,4.594,4.6395,4.7216,4.7856,4.8296,4.8296,4.8296,4.8296,4.8095,4.7783,1.6086,1.72,1.8731,2.305,2.4528,2.577,2.9013,3.0181,3.0864,3.1968,3.2654,3.3052,3.3052,3.3077,3.3102,3.3102,3.3154,3.3535,3.4573,3.4787,3.5358,3.6691,3.6864,3.6786,3.6557,3.6523,3.6207,3.5549,3.5504,3.5504,3.5504,3.5504,3.5504,3.5504,3.5504,3.5818,3.6493,3.7706,3.8646,3.9346,3.9346,3.9376,3.9406,3.9406,3.9406,3.9406,3.9406,3.9406,3.9406,3.9406,3.9406,3.9406,3.9406,3.9406,3.9406,3.9406,3.9406,3.9646,4.1411,4.1997,4.2284,4.4018,4.4615,4.4615,4.4615,4.4615,4.4615,4.4615,4.4615,4.4615,4.4615,4.4615,4.4615,4.4615,4.4615,4.4615,4.4615,4.4615,4.4615,4.4615,4.4615,4.4615,4.4615,4.4615,4.4615,4.4615,4.4615,4.4615,4.4615,4.4615,4.4615,4.4615,4.4615,4.4615,4.4615,4.4615,4.4615,4.4615,4.4615,4.4615,4.4615,4.5732,4.6371,4.6407,4.7617,4.8277,4.8296,4.8296,4.8296,4.8278,4.7516,4.7562,1.5808,1.6442,1.7256,2.0961,2.3399,2.5453,2.7691,2.998,3.1851,3.2616,3.2952,3.3102,3.3102,3.3102,3.3102,3.3102,3.3102,3.3114,3.3109,3.3688,3.418,3.4333,3.5126,3.5608,3.5536,3.5726,3.5759,3.5519,3.5504,3.5504,3.5504,3.5504,3.5504,3.5504,3.5908,3.6641,3.7721,3.8601,3.9152,3.9406,3.9406,3.9406,3.9406,3.9406,3.9406,3.9406,3.9406,3.9406,3.9406,3.9406,3.9406,3.9406,3.9406,3.9406,3.9406,3.9406,3.9406,3.9646,4.1411,4.1997,4.2284,4.4018,4.4615,4.4615,4.4615,4.4615,4.4615,4.4615,4.4615,4.4615,4.4615,4.4615,4.4615,4.4615,4.4615,4.4615,4.4615,4.4615,4.4615,4.4615,4.4615,4.4615,4.4615,4.4615,4.4615,4.4615,4.4615,4.4615,4.4615,4.4615,4.4615,4.4615,4.4615,4.4615,4.4615,4.4615,4.4615,4.4615,4.4615,4.4615,4.4615,4.5399,4.6002,4.6395,4.727,4.7917,4.8296,4.8296,4.8296,4.8296,4.8003,4.8021,1.4629,1.5171,1.6001,1.9201,2.133,2.3536,2.692,2.9173,3.1035,3.2751,3.3102,3.3102,3.3102,3.3102,3.3102,3.3102,3.2939,3.2654,3.2265,3.2675,3.292,3.2691,3.3439,3.4161,3.4626,3.4873,3.5133,3.5472,3.5504,3.5504,3.5504,3.5504,3.5609,3.5833,3.6688,3.7541,3.8395,3.9047,3.9406,3.9406,3.9406,3.9406,3.9406,3.9406,3.9406,3.9406,3.9406,3.9406,3.9406,3.9406,3.9406,3.9406,3.9406,3.9406,3.9406,3.9406,3.9406,3.9646,4.1411,4.1997,4.2284,4.4018,4.4615,4.4615,4.4615,4.4615,4.4615,4.4615,4.4615,4.4615,4.4615,4.4615,4.4615,4.4615,4.4615,4.4615,4.4615,4.4615,4.4615,4.4615,4.4615,4.4615,4.4615,4.4615,4.4615,4.4615,4.4615,4.4615,4.4615,4.4615,4.4615,4.4615,4.4615,4.4615,4.4615,4.4615,4.4615,4.4615,4.4615,4.4615,4.4615,4.5178,4.5783,4.6395,4.7055,4.7705,4.8296,4.8296,4.8296,4.8296,4.8296,4.815,0.0,0.0,0.0,1.7705,1.8298,1.9938,2.6705,2.7693,2.8278,3.2173,3.2964,3.2977,3.3077,3.3102,3.309,3.3077,3.2579,3.2181,3.219,3.1712,3.1518,3.1899,3.1954,3.2504,3.3831,3.3993,3.4411,3.5408,3.5504,3.5504,3.5504,3.5534,3.5848,3.6538,3.7766,3.8424,3.8422,3.9062,3.9406,3.9406,3.9406,3.9406,3.9406,3.9406,3.9406,3.9406,3.9406,3.9406,3.9406,3.9406,3.9406,3.9406,3.9406,3.9406,3.9406,3.9406,3.9406,3.9646,4.1378,4.1965,4.2237,4.396,4.4528,4.4528,4.4528,4.4542,4.4556,4.4556,4.457,4.4615,4.4615,4.4615,4.4615,4.4615,4.4615,4.4615,4.4615,4.4615,4.4615,4.4615,4.4615,4.4615,4.4615,4.4615,4.4615,4.4615,4.4615,4.4615,4.4615,4.4615,4.4615,4.4615,4.4615,4.4615,4.4615,4.4615,4.4615,4.4615,4.4615,4.4615,4.4615,4.5152,4.577,4.6395,4.7033,4.7684,4.8296,4.8296,4.8296,4.8296,4.8296,4.7856,1.2466,0.0,0.0,0.0,0.0,0.0,2.1426,2.3271,2.5369,2.9258,2.9754,3.0218,3.265,3.3102,3.2964,3.2516,3.2315,3.2056,3.1675,3.116,3.072,3.0431,3.1011,3.1839,3.2887,3.3602,3.4411,3.5408,3.5504,3.5504,3.5504,3.5953,3.6733,3.7841,3.823,3.8631,3.9107,3.9316,3.9406,3.9406,3.9406,3.9406,3.9406,3.9406,3.9406,3.9406,3.9406,3.9406,3.9406,3.9406,3.9406,3.9406,3.9406,3.9406,3.9406,3.9406,3.9406,3.9556,4.0673,4.1063,4.1247,4.2363,4.2723,4.2723,4.2723,4.3169,4.3651,4.3651,4.4107,4.4615,4.4615,4.4615,4.4615,4.4615,4.4615,4.4615,4.4615,4.4615,4.4615,4.4615,4.4615,4.4615,4.4615,4.4615,4.4615,4.4615,4.4615,4.4615,4.4615,4.4615,4.4615,4.4615,4.4615,4.4615,4.4615,4.4615,4.4615,4.4615,4.4615,4.4615,4.4615,4.4759,4.5346,4.6383,4.6583,4.7208,4.8296,4.8296,4.8296,4.8296,4.8296,4.7562,0.0,0.0,0.0,0.0,0.0,0.0,2.0171,2.178,2.389,2.8907,2.9704,3.0068,3.2035,3.2399,3.2286,3.1926,3.1687,3.1416,3.111,3.0608,3.0156,2.9829,3.0279,3.1137,3.2482,3.3101,3.4007,3.5392,3.5504,3.5624,3.5893,3.6522,3.733,3.838,3.8661,3.9005,3.9406,3.9406,3.9406,3.9406,3.9406,3.9406,3.9406,3.9406,3.9406,3.9406,3.9406,3.9406,3.9406,3.9406,3.9406,3.9406,3.9406,3.9406,3.9406,3.9406,3.9406,3.952,4.0397,4.0707,4.0844,4.1723,4.1997,4.1997,4.1997,4.2347,4.2832,4.32,4.3933,4.4615,4.4615,4.4615,4.4615,4.4615,4.4615,4.4615,4.4615,4.4615,4.4615,4.4615,4.4615,4.4615,4.4615,4.4615,4.4615,4.4615,4.4615,4.4615,4.4615,4.4615,4.4615,4.4615,4.4615,4.4615,4.4615,4.4615,4.4615,4.4615,4.4615,4.4615,4.4615,4.4841,4.542,4.6383,4.6675,4.7313,4.8296,4.8296,4.8296,4.8296,4.8296,4.7617,0.0,0.0,0.0,0.0,0.0,0.0,2.0624,2.1339,2.2558,2.8744,3.0018,3.0131,3.0514,3.069,3.0728,3.0595,3.0432,3.0387,3.0563,3.0143,2.9792,2.9792,2.9895,3.0652,3.2429,3.2696,3.3515,3.5359,3.5579,3.5893,3.6568,3.718,3.7823,3.8482,3.9077,3.9406,3.9406,3.9406,3.9406,3.9406,3.9406,3.9406,3.9406,3.9406,3.9406,3.9406,3.9406,3.9406,3.9406,3.9406,3.9406,3.9406,3.9406,3.9406,3.9406,3.9406,3.9406,3.9517,4.0291,4.0569,4.069,4.1461,4.1707,4.1707,4.1707,4.1788,4.2062,4.3032,4.3933,4.4615,4.4615,4.4615,4.4615,4.4615,4.4615,4.4615,4.4615,4.4615,4.4615,4.4615,4.4615,4.4615,4.4615,4.4615,4.4615,4.4615,4.4615,4.4615,4.4615,4.4615,4.4615,4.4615,4.4615,4.4615,4.4615,4.4615,4.4615,4.4615,4.4615,4.4615,4.4615,4.5115,4.5707,4.6395,4.711,4.7736,4.8201,4.8277,4.8296,4.8296,4.8296,4.7874,0.0,0.0,0.0,0.0,0.0,0.0,1.6075,1.6115,1.6872,2.0639,2.1415,2.2245,2.4946,2.6138,2.644,2.5573,2.7218,2.9063,3.04,3.0143,2.9792,2.9792,3.0476,3.1365,3.25,3.3276,3.4211,3.5408,3.5998,3.6567,3.7195,3.7838,3.8512,3.9182,3.9331,3.9406,3.9406,3.9406,3.9406,3.9406,3.9406,3.9406,3.9406,3.9406,3.9406,3.9406,3.9406,3.9406,3.9406,3.9406,3.9406,3.9406,3.9406,3.9406,3.9406,3.9406,3.9406,3.9409,3.9592,3.9648,3.9684,3.9847,3.99,3.99,3.99,4.0395,4.128,4.2862,4.3933,4.4615,4.4615,4.4615,4.4615,4.4615,4.4615,4.4615,4.4615,4.4615,4.4615,4.4615,4.4615,4.4615,4.4615,4.4615,4.4615,4.4615,4.4615,4.4615,4.4615,4.4615,4.4615,4.4615,4.4615,4.4615,4.4615,4.4615,4.4615,4.4615,4.4615,4.4615,4.4615,4.4706,4.528,4.6383,4.7533,4.7937,4.7572,4.8065,4.8296,4.8296,4.8296,4.7874,0.0,0.0,0.0,1.4886,0.0,0.0,0.0,1.7073,1.7568,2.1854,2.1617,2.1403,2.3938,2.4167,2.3879,2.36,2.5661,2.7293,2.7306,2.875,2.9792,2.9792,3.0222,3.0871,3.1815,3.2749,3.3908,3.5392,3.6118,3.6746,3.7375,3.8033,3.8706,3.9376,3.9406,3.9406,3.9406,3.9406,3.9406,3.9406,3.9406,3.9406,3.9406,3.9406,3.9406,3.9406,3.9406,3.9406,3.9406,3.9406,3.9406,3.9406,3.9406,3.9406,3.9406,3.9406,3.9406,3.9406,3.9406,3.9406,3.9406,3.9406,3.9406,3.9406,3.9406,4.0309,4.1543,4.2411,4.359,4.4615,4.4615,4.4615,4.4615,4.4615,4.4615,4.4615,4.4615,4.4615,4.4615,4.4615,4.4615,4.4615,4.4615,4.4615,4.4615,4.4615,4.4615,4.4615,4.4615,4.4615,4.4615,4.4615,4.4615,4.4615,4.4615,4.4615,4.4615,4.4615,4.4615,4.4615,4.4615,4.4879,4.5472,4.6383,4.7356,4.7705,4.7396,4.8015,4.8296,4.8296,4.7893,4.748,0.0,0.0,0.0,0.0,0.0,1.6372,0.0,0.0,0.0,2.34,2.2625,2.1567,2.2822,2.2031,2.1291,2.1616,2.3768,2.484,2.3263,2.6302,2.8674,2.8674,2.9486,3.0246,3.0682,3.1455,3.2911,3.5314,3.5639,3.6207,3.7327,3.8153,3.8841,3.9376,3.9406,3.9406,3.9406,3.9406,3.9406,3.9406,3.9406,3.9406,3.9406,3.9406,3.9406,3.9406,3.9406,3.9406,3.9406,3.9406,3.9406,3.9406,3.9406,3.9406,3.9406,3.9406,3.9406,3.9406,3.9406,3.9406,3.9406,3.9406,3.9406,3.9406,3.9406,4.0619,4.1997,4.1997,4.3259,4.4615,4.4615,4.4615,4.4615,4.4615,4.4615,4.4615,4.4615,4.4615,4.4615,4.4615,4.4615,4.4615,4.4615,4.4615,4.4615,4.4615,4.4615,4.4615,4.4615,4.4615,4.4615,4.4615,4.4615,4.4615,4.4615,4.4615,4.4615,4.4615,4.4615,4.4615,4.4615,4.5178,4.5669,4.6051,4.6932,4.7342,4.7205,4.7937,4.8296,4.8278,4.7471,4.7094,0.0,0.0,0.0,0.0,1.792,0.0,0.0,0.0,1.6895,1.6332,0.0,1.7075,1.6785,0.0,0.0,1.6609,1.9258,2.0943,1.9748,2.2523,2.4657,2.4657,2.8437,3.0495,2.9129,2.9301,3.117,3.5199,3.3918,3.4262,3.7238,3.8599,3.9316,3.9406,3.9406,3.9406,3.9406,3.9406,3.9406,3.9406,3.9406,3.9406,3.9406,3.9406,3.9406,3.9406,3.9406,3.9406,3.9406,3.9406,3.9406,3.9406,3.9406,3.9406,3.9406,3.9406,3.9406,3.9406,3.9406,3.9406,3.9406,3.9406,3.9406,3.9406,3.9406,4.0619,4.1997,4.1997,4.3259,4.4615,4.4615,4.4615,4.4615,4.4615,4.4615,4.4615,4.4615,4.4615,4.4615,4.4615,4.4615,4.4615,4.4615,4.4615,4.4615,4.4615,4.4615,4.4615,4.4615,4.4615,4.4615,4.4615,4.4615,4.4615,4.4615,4.4615,4.4615,4.4615,4.4615,4.4615,4.4615,4.5178,4.5267,4.4814,4.6507,4.7117,4.6524,4.7718,4.8296,4.8278,4.7471,4.7094,0.0,0.0,0.0,0.0,0.0,0.0,1.8248,0.0,1.7382,0.0,0.0,0.0,0.0,0.0,0.0,0.0,1.8166,1.9208,1.7754,2.0701,2.3138,2.3436,2.5266,2.6959,2.8126,2.8272,3.0042,3.4309,3.2954,3.3529,3.7193,3.8302,3.9005,3.9391,3.9406,3.9406,3.9406,3.9406,3.9406,3.9406,3.9406,3.9406,3.9406,3.9406,3.9406,3.9406,3.9406,3.9406,3.9406,3.9406,3.9406,3.9406,3.9406,3.9406,3.9406,3.9406,3.9406,3.9406,3.9406,3.9406,3.9406,3.9406,3.9406,3.9406,3.9406,4.0272,4.1247,4.1247,4.2489,4.3844,4.3844,4.4224,4.4615,4.4615,4.4615,4.4615,4.4615,4.4615,4.4615,4.4615,4.4615,4.4615,4.4615,4.4615,4.4615,4.4615,4.4615,4.4615,4.4615,4.4615,4.4615,4.4615,4.4615,4.4615,4.4615,4.4615,4.4615,4.4615,4.4615,4.4615,4.4615,4.4841,4.4869,4.4598,4.5711,4.6341,4.6407,4.7324,4.771,4.7581,4.6773,4.6406,2.1278,0.0,0.0,0.0,0.0,0.0,0.0,0.0,0.0,0.0,0.0,0.0,0.0,0.0,0.0,0.0,0.0,1.8252,0.0,1.9039,0.0,0.0,0.0,2.3977,2.7357,2.6604,2.805,3.3207,3.1619,3.2467,3.7148,3.8033,3.8706,3.9376,3.9406,3.9406,3.9406,3.9406,3.9406,3.9406,3.9406,3.9406,3.9406,3.9406,3.9406,3.9406,3.9406,3.9406,3.9406,3.9406,3.9406,3.9406,3.9406,3.9406,3.9406,3.9406,3.9406,3.9406,3.9406,3.9406,3.9406,3.9406,3.9406,3.9406,3.9406,4.0008,4.0707,4.0707,4.1965,4.3306,4.3306,4.3962,4.4615,4.4615,4.4615,4.4615,4.4615,4.4615,4.4615,4.4615,4.4615,4.4615,4.4615,4.4615,4.4615,4.4615,4.4615,4.4615,4.4615,4.4615,4.4615,4.4615,4.4615,4.4615,4.4615,4.4615,4.4615,4.4615,4.4615,4.4615,4.4615,4.4615,4.4615,4.4615,4.5192,4.5707,4.6155,4.6988,4.7215,4.6839,4.6195,4.5773,2.3883,2.3826,2.3913,2.0627,2.0238,2.0113,1.7976,0.0,2.044,0.0,0.0,0.0,0.0,0.0,0.0,0.0,0.0,0.0,0.0,0.0,0.0,0.0,0.0,0.0,0.0,2.3669,2.4515,3.199,2.9551,3.0551,3.7043,3.8033,3.8706,3.9376,3.9406,3.9406,3.9406,3.9406,3.9406,3.9406,3.9406,3.9406,3.9406,3.9406,3.9406,3.9406,3.9406,3.9406,3.9406,3.9406,3.9406,3.9406,3.9406,3.9406,3.9406,3.9406,3.9406,3.9406,3.9406,3.9406,3.9406,3.9406,3.9406,3.9406,3.9406,4.0008,4.0707,4.0707,4.1965,4.3306,4.3306,4.3962,4.4615,4.4615,4.4615,4.4615,4.4615,4.4615,4.4615,4.4615,4.4615,4.4615,4.4615,4.4615,4.4615,4.4615,4.4615,4.4615,4.4615,4.4615,4.4615,4.4615,4.4615,4.4615,4.4615,4.4615,4.4615,4.4615,4.4615,4.4615,4.4615,4.4615,4.4615,4.4615,4.5192,4.5511,4.552,4.6785,4.6998,4.6233,4.5998,4.548,2.5536,2.6615,2.7306,2.3938,2.3261,2.2736,2.0176,2.044,0.0,0.0,0.0,0.0,0.0,0.0,0.0,0.0,0.0,0.0,0.0,0.0,0.0,0.0,0.0,0.0,0.0,0.0,0.0,2.9958,2.9799,3.1824,3.712,3.7629,3.8257,3.9361,3.9406,3.9406,3.9406,3.9406,3.9406,3.9406,3.9406,3.9406,3.9406,3.9406,3.9406,3.9406,3.9406,3.9406,3.9406,3.9406,3.9406,3.9406,3.9406,3.9406,3.9406,3.9406,3.9406,3.9406,3.9406,3.9406,3.9406,3.9406,3.9406,3.9406,3.9406,3.961,3.9847,3.9847,4.0689,4.1593,4.1593,4.2661,4.3741,4.3741,4.4181,4.4615,4.4615,4.4615,4.4615,4.4615,4.4615,4.4615,4.4615,4.4615,4.4615,4.4615,4.4615,4.4615,4.4615,4.4615,4.4615,4.4615,4.4615,4.4615,4.4615,4.4615,4.4615,4.4615,4.4615,4.4615,4.4615,4.4615,4.4615,4.4615,4.5192,4.5694,4.6112,4.6966,4.7195,4.6781,4.6186,4.548,2.6393,2.7687,2.8538,2.6036,2.5548,2.4971,2.2198,2.2133,2.2472,0.0,0.0,0.0,0.0,0.0,0.0,0.0,0.0,0.0,0.0,0.0,0.0,0.0,0.0,0.0,0.0,0.0,0.0,0.0,0.0,0.0,0.0,3.7387,3.8,3.9361,3.9406,3.9406,3.9406,3.9406,3.9406,3.9406,3.9406,3.9406,3.9406,3.9406,3.9406,3.9406,3.9406,3.9406,3.9406,3.9406,3.9406,3.9406,3.9406,3.9406,3.9406,3.9406,3.9406,3.9406,3.9406,3.9406,3.9406,3.9406,3.9406,3.9406,3.9406,3.9406,3.9406,3.9406,4.0043,4.0707,4.0707,4.1772,4.2909,4.3231,4.3741,4.4224,4.4528,4.4615,4.4615,4.4615,4.4615,4.4615,4.4615,4.4615,4.4615,4.4615,4.4615,4.4615,4.4615,4.4615,4.4615,4.4615,4.4615,4.4615,4.4615,4.4615,4.4615,4.4615,4.4615,4.4615,4.4615,4.4615,4.4615,4.4615,4.4984,4.5485,4.6088,4.6721,4.6804,4.6352,4.6039,4.5314]},{"header":{"parameterUnit":"m.s-1","parameterCategory":1,"la1":30.6,"la2":29.2853,"lo1":-89.7004,"lo2":-87.6739,"dx":0.0162,"dy":0.0183,"nx":112,"ny":82,"refTime":"2023-01-09T06:00:00:Z","depth":0,"parameterNumber":3,"parameterNumberName":"V-component_of_WINDS"},"data":[0.0,0.0,0.0,0.0,0.0,0.0,0.0,0.0,0.0,0.0,0.0,0.0,0.0,0.0,0.0,0.0,0.0,0.0,0.0,0.0,0.0,0.0,0.0,0.0,0.0,0.0,0.0,0.0,0.0,0.0,0.0,0.0,0.0,0.0,0.0,0.0,0.0,0.0,0.0,0.0,0.0,0.0,0.0,0.0,0.0,0.0,0.0,0.0,0.0,0.0,0.0,0.0,0.0,0.0,0.0,0.0,0.0,0.0,0.0,0.0,0.0,0.0,0.0,0.0,0.0,0.0,0.0,0.0,0.0,0.0,0.0,0.0,0.0,0.0,0.0,0.0,0.0,0.0,0.0,0.0,0.0,0.0,0.0,0.0,0.0,0.0,0.0,0.0,0.0,0.0,0.5653,0.7627,1.0245,1.2257,1.324,1.2792,1.1443,0.9092,0.0,0.0,0.0,0.0,0.0,0.0,0.0,0.0,0.0,0.0,0.0,0.0,0.0,0.0,0.0,0.0,0.0,0.0,0.0,0.0,0.0,0.0,0.0,0.0,0.0,0.0,0.0,0.0,0.0,0.0,0.0,0.0,0.0,0.0,0.0,0.0,0.0,0.0,0.0,0.0,0.0,0.0,0.0,0.0,0.0,0.0,0.0,0.0,0.0,0.0,0.0,0.0,0.0,0.0,0.0,0.0,0.0,0.0,0.0,0.0,0.0,0.0,0.0,0.0,0.0,0.0,0.0,0.0,0.0,0.0,0.0,0.0,0.0,0.0,0.0,0.0,0.0,0.0,0.0,0.0,0.0,0.0,0.0,0.0,0.0,0.0,0.0,0.0,0.0,0.0,0.0,0.0,0.0,0.0,0.0,0.0,0.0,0.0,0.0,0.0,0.0,0.0,0.0,0.0,0.6285,0.9896,1.1601,1.2879,1.3892,1.3414,1.2064,0.9714,0.0,0.0,0.0,0.0,0.0,0.0,0.0,0.0,0.0,0.0,0.0,0.0,0.0,0.0,0.0,0.0,0.0,0.0,0.0,0.0,0.0,0.0,0.0,0.0,0.0,0.0,0.0,0.0,0.0,0.0,0.0,0.0,0.0,0.0,0.0,0.0,0.0,0.0,0.0,0.0,0.0,0.0,0.0,0.0,0.0,0.0,0.0,0.0,0.0,0.0,0.0,0.0,0.0,0.0,0.0,0.0,0.0,0.0,0.0,0.0,0.0,0.0,0.0,0.0,0.0,0.0,0.0,0.0,0.0,0.0,0.0,0.0,0.0,0.0,0.0,0.0,0.0,0.0,0.0,0.0,0.0,0.0,0.0,0.0,0.0,0.0,0.0,0.0,0.0,0.0,0.0,0.0,0.0,0.0,0.0,0.0,0.0,0.0,0.0,0.0,0.0,0.0,0.0,0.631,0.8503,1.0815,1.2768,1.4004,1.4292,1.376,1.2353,0.9861,0.9018,0.0,0.0,0.0,0.0,0.0,0.0,0.0,0.0,0.0,0.0,0.0,0.0,0.0,0.0,0.0,0.0,0.0,0.0,0.0,0.0,0.0,0.0,0.0,0.0,0.0,0.0,0.0,0.0,0.0,0.0,0.0,0.0,0.0,0.0,0.0,0.0,0.0,0.0,0.0,0.0,0.0,0.0,0.0,0.0,0.0,0.0,0.0,0.0,0.0,0.0,0.0,0.0,0.0,0.0,0.0,0.0,0.0,0.0,0.0,0.0,0.0,0.0,0.0,0.0,0.0,0.0,0.0,0.0,0.0,0.0,0.0,0.0,0.0,0.0,0.0,0.0,0.0,0.0,0.0,0.0,0.0,0.0,0.0,0.0,0.0,0.0,0.0,0.0,0.0,0.0,0.0,0.0,0.0,0.0,0.0,0.0,0.0,0.0,0.0,0.0,0.0,0.0,0.8449,1.0603,1.1742,1.3866,1.5017,1.4656,1.4127,1.27,1.0075,0.9339,0.0,0.0,0.0,0.0,0.0,0.0,0.0,0.0,0.0,0.0,0.0,0.0,0.0,0.0,0.0,0.0,0.0,0.0,0.0,0.0,0.0,0.0,0.0,0.0,0.0,0.0,0.0,0.0,0.0,0.0,0.0,0.0,0.0,0.0,0.0,0.0,0.0,0.0,0.0,0.0,0.0,0.0,0.0,0.0,0.0,0.0,0.0,0.0,0.0,0.0,0.0,0.0,0.0,0.0,0.0,0.0,0.0,0.0,0.0,0.0,0.0,0.0,0.0,0.0,0.0,0.0,0.0,0.0,0.0,0.0,0.0,0.0,0.0,0.0,0.0,0.0,0.0,0.0,0.0,0.0,0.0,0.0,0.0,0.0,0.0,0.0,0.0,0.0,0.0,0.0,0.0,0.0,0.0,0.0,0.0,0.0,0.0,0.0,0.0,0.0,0.0,0.0,0.9453,1.1581,1.3344,1.4852,1.5538,1.5006,1.4643,1.3327,1.07,0.9976,0.0,0.0,0.0,0.0,0.0,0.0,0.0,0.0,0.0,0.0,0.0,0.0,0.0,0.0,0.0,0.0,0.0,0.0,0.0,0.0,0.0,0.0,0.0,0.0,0.0,0.0,0.0,0.0,0.0,0.0,0.0,0.0,0.0,0.0,0.0,0.0,0.0,0.0,0.0,0.0,0.0,0.0,0.0,0.0,0.0,0.0,0.0,0.0,0.0,0.0,0.0,0.0,0.0,0.0,0.0,0.0,0.0,0.0,0.0,0.0,0.0,0.0,0.0,0.0,0.0,0.0,0.0,0.0,0.0,0.0,0.0,0.0,0.0,0.0,0.0,0.0,0.0,0.0,0.0,0.0,0.0,0.0,0.0,0.0,0.0,0.0,0.0,0.0,0.0,0.0,0.0,0.0,0.0,0.0,0.0,0.0,0.0,0.0,0.0,0.0,0.0,0.0,0.9402,1.1514,1.3489,1.4963,1.5568,1.5062,1.4689,1.352,1.1236,0.0,0.0,0.0,0.0,0.0,0.0,0.0,0.0,0.0,0.0,0.0,0.0,0.0,0.0,0.0,0.0,0.0,0.0,0.0,0.0,0.0,0.0,0.0,0.0,0.0,0.0,0.0,0.0,0.0,0.0,0.0,0.0,0.0,0.0,0.0,0.0,0.0,0.0,0.0,0.0,0.0,0.0,0.0,0.0,0.0,0.0,0.0,0.0,0.0,0.0,0.0,0.0,0.0,0.0,0.0,0.0,0.0,0.0,0.0,0.0,0.0,0.0,0.0,0.0,0.0,0.0,0.0,0.0,0.0,0.0,0.0,0.0,0.0,0.0,0.0,0.0,0.0,0.0,0.0,0.0,0.0,0.0,0.0,0.0,0.0,0.0,0.0,0.0,0.0,0.0,0.0,0.0,0.0,0.0,0.0,0.0,0.0,0.0,0.0,0.0,0.0,0.0,0.7786,0.9684,1.1731,1.4103,1.5149,1.5531,1.516,1.4743,1.362,1.1531,0.0,0.0,0.0,0.0,0.0,0.0,0.0,0.0,0.0,0.0,0.0,0.0,0.0,0.0,0.0,0.0,0.0,0.0,0.0,0.0,0.0,0.0,0.0,0.0,0.0,0.0,0.0,0.0,0.0,0.0,0.0,0.0,0.0,0.0,0.0,0.0,0.0,0.0,0.0,0.0,0.0,0.0,0.0,0.0,0.0,0.0,0.0,0.0,0.0,0.0,0.0,0.0,0.0,0.0,0.0,0.0,0.0,0.0,0.0,0.0,0.0,0.0,0.0,0.0,0.0,0.0,0.0,0.0,0.0,0.0,0.0,0.0,0.0,0.0,0.0,0.0,0.0,0.0,0.0,0.0,0.0,0.0,0.0,0.0,0.0,0.0,0.0,0.0,0.0,0.0,0.0,0.0,0.0,0.0,0.0,0.0,0.0,0.0,0.0,0.0,0.0,0.0,0.8942,1.0463,1.2468,1.5472,1.5578,1.5404,1.5398,1.4856,1.362,0.0,0.0,0.0,0.0,0.0,0.0,0.0,0.0,0.0,0.0,0.0,0.0,0.0,0.0,0.0,0.0,0.0,0.0,0.0,0.0,0.0,0.0,0.0,0.0,0.0,0.0,0.0,0.0,0.0,0.0,0.0,0.0,0.0,0.0,0.0,0.0,0.0,0.0,0.0,0.0,0.0,0.0,0.0,0.0,0.0,0.0,0.0,0.0,0.0,0.0,0.0,0.0,0.0,0.0,0.0,0.0,0.0,0.0,0.0,0.0,0.0,0.0,0.0,0.0,0.0,0.0,0.0,0.0,0.0,0.0,0.0,0.0,0.0,0.0,0.0,0.0,0.0,0.0,0.0,0.0,0.0,0.0,0.0,0.0,0.0,0.0,0.0,0.0,0.0,0.0,0.0,0.0,0.0,0.0,0.0,0.0,0.0,0.0,0.0,0.0,0.0,0.0,0.0,0.8942,1.0716,1.2763,1.5511,1.5939,1.5869,1.5431,1.505,1.4021,1.2092,0.0,0.0,0.0,0.0,0.0,0.0,0.0,0.0,0.0,0.0,0.0,0.0,0.0,0.0,0.0,0.0,0.0,0.0,0.0,0.0,0.0,0.0,0.0,0.0,0.0,0.0,0.0,0.0,0.0,0.0,0.0,0.0,0.0,0.0,0.0,0.0,0.0,0.0,0.0,0.0,0.0,0.0,0.0,0.0,0.0,0.0,0.0,0.0,0.0,0.0,0.0,0.0,0.0,0.0,0.0,0.0,0.0,0.0,0.0,0.0,0.0,0.0,0.0,0.0,0.0,0.0,0.0,0.0,0.0,0.0,0.0,0.0,0.0,0.0,0.0,0.0,0.0,0.0,0.0,0.0,0.0,0.0,0.0,0.0,0.0,0.0,0.0,0.0,0.0,0.0,0.0,0.0,0.0,0.0,0.0,0.0,0.0,0.0,0.0,0.0,0.0,0.0,0.8942,1.0733,1.279,1.5518,1.5885,1.5849,1.5585,1.5476,1.4666,1.2864,0.0,0.0,0.0,0.0,0.0,0.0,0.0,0.0,0.0,0.0,0.0,0.0,0.0,0.0,0.0,0.0,0.0,0.0,0.0,0.0,0.0,0.0,0.0,0.0,0.0,0.0,0.0,0.0,0.0,0.0,0.0,0.0,0.0,0.0,0.0,0.0,0.0,0.0,0.0,0.0,0.0,0.0,0.0,0.0,0.0,0.0,0.0,0.0,0.0,0.0,0.0,0.0,0.0,0.0,0.0,0.0,0.0,0.0,0.0,0.0,0.0,0.0,0.0,0.0,0.0,0.0,0.0,0.0,0.0,0.0,0.0,0.0,0.0,0.0,0.0,0.0,0.0,0.0,0.0,0.0,0.0,0.0,0.0,0.0,0.0,0.0,0.0,0.0,0.0,0.0,0.0,0.0,0.0,0.0,0.0,0.0,0.0,0.0,0.0,0.0,0.0,0.0,0.8942,1.0606,1.2633,1.5498,1.5618,1.5571,1.5781,1.5913,1.5356,1.3843,0.0,0.0,0.0,0.0,0.0,0.0,0.0,0.0,0.0,0.0,0.0,0.0,0.0,0.0,0.0,0.0,0.0,0.0,0.0,0.0,0.0,0.0,0.0,0.0,0.0,0.0,0.0,0.0,0.0,0.0,0.0,0.0,0.0,0.0,0.0,0.0,0.0,0.0,0.0,0.0,0.0,0.0,0.0,0.0,0.0,0.0,0.0,0.0,0.0,0.0,0.0,0.0,0.0,0.0,0.0,0.0,0.0,0.0,0.0,0.0,1.063,0.9219,0.0,0.0,0.0,0.0,0.0,0.0,0.0,0.0,0.0,0.0,0.0,0.0,0.0,0.0,0.0,0.0,0.0,0.0,0.0,0.0,0.0,0.0,0.0,0.0,0.0,0.0,0.0,0.0,0.0,0.0,0.0,0.0,0.0,0.0,0.0,0.0,0.0,0.0,0.0,0.0,0.892,1.0771,1.284,1.5501,1.5979,1.6012,1.5821,1.5459,1.5127,1.4866,1.2794,0.0,0.0,0.0,0.0,0.0,0.0,0.0,0.0,0.0,0.0,0.0,0.0,0.0,0.0,0.0,0.0,0.0,0.0,0.0,0.0,0.0,0.0,0.0,0.0,0.0,0.0,0.0,0.0,0.0,0.0,0.0,0.0,0.0,0.0,0.0,0.0,0.0,0.0,0.0,0.0,0.0,0.0,0.0,0.0,0.0,0.0,0.0,0.0,0.0,0.0,0.0,0.0,0.0,0.0,0.0,0.0,0.0,0.0,0.0,1.1593,1.0733,0.0,0.0,0.0,0.0,0.0,0.0,0.0,0.0,0.0,0.0,0.0,0.0,0.0,0.0,0.0,0.0,0.0,0.0,0.0,0.0,0.0,0.0,0.0,0.0,0.0,0.0,0.0,0.0,0.0,0.0,0.0,0.0,0.0,0.0,0.0,0.0,0.0,0.0,0.0,0.0,0.9203,1.1409,1.3549,1.5579,1.5965,1.5999,1.5821,1.6431,1.6553,1.5911,1.4398,0.0,0.0,0.0,0.0,0.0,0.0,0.0,0.0,0.0,0.0,0.0,0.0,0.0,0.0,0.0,0.0,0.0,0.0,0.0,0.0,0.0,0.0,0.0,0.0,0.0,0.0,0.0,0.0,0.0,0.0,0.0,0.0,0.0,0.0,0.0,0.0,0.0,0.0,0.0,0.0,0.0,0.0,0.0,0.0,0.0,0.0,0.0,0.0,0.0,0.0,0.0,0.0,0.0,1.2935,1.3069,1.3069,1.3069,1.368,1.4643,1.2808,1.261,1.3464,1.1689,0.0,0.0,0.0,0.0,0.0,0.0,0.0,0.0,0.0,0.0,0.0,0.0,0.0,0.0,0.0,0.0,0.0,0.0,0.0,0.0,0.0,0.0,0.9624,0.9445,1.0169,1.0492,0.8991,0.0,0.0,0.0,0.0,0.0,0.0,0.0,0.0,0.0,0.0,0.0,0.9907,1.2223,1.4248,1.5656,1.5808,1.5808,1.5808,1.7271,1.7757,1.6736,1.5992,1.5246,0.0,0.0,0.0,0.0,0.0,0.0,0.0,0.0,0.0,0.0,0.0,0.0,0.0,0.0,0.0,0.0,0.0,0.0,0.0,0.0,0.0,0.0,0.0,0.0,0.0,0.0,0.0,0.0,0.0,0.0,0.0,0.0,1.0136,1.0136,0.0,0.0,0.0,0.0,0.0,0.0,0.0,0.0,0.0,0.0,0.0,0.0,0.0,1.2541,1.2729,1.388,1.4467,1.4463,1.5595,1.6113,1.6113,1.6113,1.642,1.6938,1.6245,0.0,1.4007,1.3714,0.0,0.0,0.0,0.0,0.0,0.0,0.0,0.0,0.0,0.0,0.0,0.0,0.0,0.0,0.0,0.0,0.0,0.0,0.0,0.0,0.0,0.0,1.1594,1.179,1.1957,1.2011,1.1777,1.0339,0.8918,0.8282,0.8145,0.7706,0.0,0.0,0.0,0.0,0.0,0.0,1.1562,1.2976,1.4248,1.5656,1.5808,1.5808,1.5808,1.5831,1.6153,1.6898,1.5525,1.4594,1.4422,1.2297,0.0,0.0,0.0,0.0,0.0,0.0,0.0,0.0,0.0,0.0,0.0,0.0,0.0,0.0,0.0,0.0,0.0,0.0,0.0,0.0,0.0,0.0,0.0,0.0,0.0,0.0,0.0,0.0,0.0,0.9995,1.0399,1.0659,1.0319,0.9733,0.0,0.0,0.0,0.0,0.0,0.0,0.0,0.0,0.0,1.5058,1.4849,1.5279,1.6493,1.678,1.7078,1.7344,1.8116,1.8382,1.8164,1.8164,1.8271,1.8465,1.8252,1.7581,1.6541,1.5323,1.4176,1.3115,0.0,0.0,0.0,0.0,1.3086,1.3252,1.4352,1.4439,1.3765,1.1961,0.0,0.0,0.0,0.0,0.0,0.0,0.0,0.9763,1.1553,1.241,1.3095,1.4308,1.4606,1.4411,1.3632,1.2765,1.1621,0.996,0.9367,0.86,0.6912,0.6498,0.0,0.0,0.0,0.9987,1.2299,1.3942,1.5113,1.5717,1.5808,1.5808,1.5808,1.6362,1.7087,1.8009,1.6639,1.6207,1.7172,1.3984,1.1861,0.0,0.0,0.0,0.0,0.0,0.0,0.0,0.0,0.0,0.0,0.0,0.0,0.0,0.0,0.0,0.0,0.0,0.0,0.0,0.0,0.0,0.0,0.0,0.0,0.0,0.0,0.0,0.0,1.0636,1.1328,1.1495,1.1913,1.1662,0.0,0.0,0.0,0.0,0.0,0.0,1.4097,1.4568,1.5799,1.7968,1.7664,1.8225,1.9821,1.9638,1.9694,2.003,2.0094,1.9963,1.9677,1.9433,1.9305,1.9305,1.9305,1.9102,1.8654,1.6927,1.603,1.5669,1.502,1.463,1.4504,1.5078,1.5283,1.5459,1.6635,1.6644,1.5898,1.4442,1.3101,1.1646,0.9459,0.0,0.0,0.0,0.0,1.1405,1.3329,1.4099,1.4751,1.6275,1.6624,1.639,1.5505,1.4969,1.3922,1.1492,1.0671,0.9864,0.8253,0.8049,0.0,0.8645,1.0103,1.1717,1.3265,1.4825,1.5808,1.5808,1.6086,1.6298,1.6298,1.7451,1.8279,1.8564,1.7609,1.744,1.8329,1.5142,1.3328,1.3284,0.0,0.0,0.0,0.0,0.0,0.0,0.0,0.0,0.0,0.0,0.0,0.0,0.0,0.0,0.0,0.0,0.0,0.0,0.0,0.0,0.0,0.0,0.0,0.0,0.0,0.0,0.0,0.0,0.0,1.2978,1.4537,0.0,0.0,0.0,0.0,1.3116,1.4067,1.5032,1.5924,1.7484,1.877,1.9737,2.0661,2.1189,2.13,2.1784,2.2026,2.2031,2.1176,2.0734,2.0684,1.9749,1.9305,1.9305,1.9305,1.9296,1.9219,1.8674,1.773,1.6629,1.659,1.6054,1.5435,1.6287,1.6599,1.6726,1.762,1.7906,1.7726,1.6873,1.4985,1.2793,1.159,1.0889,0.0,0.0,1.2269,1.3545,1.4483,1.5743,1.6823,1.7157,1.7256,1.7355,1.7747,1.6465,1.4651,1.2607,1.2191,1.1953,1.1285,0.0,1.1195,1.2353,1.2613,1.3313,1.5043,1.5588,1.5808,1.5808,1.6873,1.7598,1.7598,1.8703,1.8948,1.7824,1.7693,1.7035,1.5656,1.5143,1.4358,1.3226,1.2281,0.0,0.0,0.0,0.0,0.0,0.0,0.0,0.0,0.0,0.0,0.0,0.0,0.0,0.0,0.0,0.0,0.0,0.0,0.0,0.0,0.0,0.0,0.0,0.0,0.0,0.0,0.0,0.0,1.5902,1.6933,0.0,1.572,1.6025,1.6213,1.5961,1.7033,1.8188,1.9316,2.029,2.1339,2.2497,2.2679,2.3018,2.3583,2.3223,2.3197,2.3472,2.2493,2.1858,2.1536,2.0579,2.0136,2.0136,2.0136,2.0136,2.0117,1.996,1.9287,1.8379,1.8379,1.8184,1.7978,1.8547,1.8762,1.8849,1.9471,1.9667,1.945,1.8081,1.6315,1.4619,1.4237,1.4092,1.4153,1.4527,1.5125,1.6032,1.7499,1.8253,1.8907,2.0012,2.0257,2.0108,1.9552,1.8314,1.6889,1.5468,1.408,1.296,1.2397,1.2212,1.2431,1.3207,1.3342,1.3934,1.5451,1.5741,1.5808,1.5808,1.6399,1.7156,1.8022,1.8385,1.8777,1.9214,1.8256,1.7453,1.6902,1.6007,1.515,1.4377,1.3675,1.2357,0.0,0.0,0.0,0.0,0.0,0.0,0.0,0.0,0.0,0.0,0.0,0.0,0.0,0.0,0.0,0.0,0.0,0.0,0.0,0.0,0.0,0.0,0.0,0.0,0.0,1.6017,1.7859,1.7724,1.8964,1.9315,1.7934,1.8543,1.89,1.8629,1.9743,2.0822,2.1665,2.2487,2.3354,2.4239,2.4222,2.4488,2.5067,2.4689,2.4672,2.4973,2.3962,2.332,2.2962,2.1669,2.1078,2.1039,2.0731,2.0605,2.0615,2.0752,2.0459,1.9932,1.9794,1.9735,1.9774,2.0029,2.0137,2.0176,2.0488,2.0684,2.0527,1.8916,1.7733,1.6883,1.6529,1.6632,1.691,1.7094,1.7556,1.8285,1.9486,2.0092,2.0617,2.1662,2.1905,2.1718,2.1102,2.002,1.8891,1.7908,1.5742,1.3961,1.3601,1.3632,1.3727,1.3874,1.4302,1.4847,1.5561,1.5921,1.6102,1.6102,1.7082,1.811,1.8993,1.8987,1.9325,2.0197,1.8348,1.7225,1.7229,1.5938,1.5064,1.4698,1.4088,1.2892,1.1035,0.0,0.0,0.0,0.0,0.0,0.0,0.0,0.0,0.0,0.0,0.0,0.0,0.0,0.0,0.0,0.0,0.0,0.0,0.0,0.0,0.0,0.0,0.0,1.616,1.7963,1.9117,1.835,2.0659,2.168,2.0062,2.0613,2.1063,2.1101,2.2126,2.2754,2.2766,2.407,2.4813,2.4813,2.536,2.5624,2.5624,2.6223,2.6499,2.6499,2.5476,2.4969,2.488,2.2917,2.1991,2.1926,2.1022,2.0644,2.0674,2.1054,2.121,2.1171,2.0801,2.0644,2.0644,2.0644,2.0644,2.0644,2.0644,2.0889,2.1001,1.9557,1.9355,1.9479,1.8446,1.8397,1.8695,1.8695,1.9455,2.0268,2.0265,2.1087,2.1925,2.1924,2.1944,2.2031,2.242,2.1561,2.0492,1.9649,1.7116,1.5057,1.5035,1.5253,1.5231,1.4634,1.5551,0.0,1.5511,1.6179,1.6693,1.6667,1.8963,2.0513,2.0561,2.0611,2.0627,2.0615,1.7984,1.6395,1.6299,1.4932,1.4163,1.4136,1.3527,1.2786,1.1915,0.0,0.0,0.0,0.0,0.0,0.0,0.0,0.0,0.0,0.0,0.0,0.0,0.0,0.0,0.0,0.0,0.0,0.0,0.0,0.0,0.0,1.7203,1.8714,1.8415,2.0162,2.1537,2.1714,2.2418,2.2694,2.223,2.2387,2.2688,2.3139,2.3477,2.3823,2.4204,2.4953,2.5385,2.5385,2.5954,2.626,2.626,2.6411,2.6499,2.6499,2.5476,2.4618,2.3884,2.2945,2.2116,2.1421,2.1498,2.1544,2.1553,2.166,2.1709,2.1699,2.1593,2.1544,2.1544,2.1544,2.1544,2.1544,2.1544,2.1602,2.1648,2.1226,2.1173,2.1207,2.0917,2.09,2.0994,2.0994,2.1212,2.1487,2.1784,2.2092,2.2412,2.2703,2.2771,2.2801,2.2918,2.1983,2.0811,1.9722,1.8118,1.6663,1.5748,1.5838,1.6003,1.5842,1.6246,1.6526,1.6366,1.6553,1.646,1.5825,1.724,1.8715,1.997,2.064,2.0966,2.1021,2.0026,1.8486,1.6388,1.5909,1.5394,1.4758,1.3914,1.3186,0.0,0.0,0.0,0.0,0.0,0.0,0.0,0.0,0.0,0.0,0.0,0.0,0.0,0.0,0.0,0.0,0.0,0.0,0.0,0.0,0.0,0.0,1.9266,2.0641,2.0863,2.1889,2.2744,2.3058,2.3108,2.3195,2.3461,2.3487,2.3725,2.429,2.4544,2.4808,2.5118,2.5661,2.5979,2.5979,2.6323,2.6499,2.6499,2.6499,2.6612,2.6839,2.6235,2.5769,2.5409,2.4668,2.3777,2.2789,2.2625,2.2584,2.2554,2.2269,2.2421,2.2806,0.0,0.0,0.0,0.0,2.2002,2.2129,2.1974,2.2002,2.2119,2.1943,2.2002,2.2148,2.2148,2.2275,2.2412,2.2412,2.2412,2.2471,2.2693,2.2752,2.281,2.3033,2.3091,2.3091,2.3091,2.2142,2.0935,1.9739,1.8613,0.0,1.6228,1.6159,1.6257,1.6106,1.6547,1.7027,1.733,1.7681,1.7953,1.8026,1.9207,2.0396,2.1401,2.095,0.0,0.0,0.0,1.7627,1.5833,1.5772,0.0,0.0,0.0,1.4208,1.4264,1.2479,0.0,0.0,0.7155,0.6111,0.0,0.0,0.0,0.0,0.0,0.0,0.0,0.0,0.0,0.0,0.0,0.0,0.0,0.0,0.0,0.0,2.1291,2.2558,2.3032,2.3108,2.3108,2.3108,2.3158,2.3409,2.3954,2.4054,2.4302,2.4854,2.5335,2.5624,2.5703,2.6223,0.0,0.0,0.0,2.6524,2.6587,2.6587,2.6864,2.7386,2.7386,2.7566,2.7895,2.7049,2.6096,2.5044,2.421,2.3852,2.3783,2.3066,2.329,2.394,2.2566,2.2052,2.2052,2.2052,2.2266,2.2529,2.2158,0.0,0.0,2.2148,2.2275,2.2557,2.2557,2.282,2.3091,2.3091,2.3091,2.3091,2.3091,2.3091,2.3091,2.3091,2.3091,2.3091,2.3091,2.2262,2.1101,1.9797,1.8863,1.7905,1.6622,1.6397,1.6304,1.5995,1.6698,1.7535,1.8336,1.9114,2.0089,2.1402,2.2701,0.0,2.3542,2.1438,2.0572,2.1636,1.7869,1.5501,1.5269,1.52,1.518,1.518,1.518,1.5568,1.6344,1.514,1.3761,1.2149,0.8701,0.7019,0.0,0.0,0.0,0.0,0.0,0.0,0.0,0.0,0.0,0.0,0.0,0.0,0.0,0.0,0.0,2.0402,2.1895,2.2982,2.3095,2.3108,2.3108,2.3108,2.3537,2.3879,2.3991,2.439,2.4867,2.541,2.5536,2.5816,2.6298,2.6436,2.6499,2.6499,2.6499,2.6713,2.7135,2.7148,2.7412,2.7946,2.7946,0.0,2.6907,2.7081,2.6613,2.5649,2.583,2.5926,2.5844,2.4798,2.3938,2.328,2.2985,2.2869,2.2869,2.2869,2.2927,2.2964,2.2898,2.2927,2.2976,2.2898,2.2927,2.2974,2.2974,2.3033,0.0,2.3091,2.3091,2.3091,2.3091,2.3091,2.3091,2.3091,2.3091,2.3091,2.3091,2.2906,2.2178,2.0193,1.9679,1.9009,1.7317,1.7032,1.7012,1.6926,1.7267,1.797,1.9187,1.9508,1.9846,2.0501,2.1523,2.2299,2.2625,2.1895,2.1507,2.1677,1.8661,1.6837,1.6784,1.6524,1.6366,1.6366,1.6366,1.6453,1.662,1.5363,1.3985,1.246,1.047,0.9028,0.0,0.0,0.0,0.0,0.0,0.0,0.0,0.0,0.0,0.0,0.0,1.72,1.7991,0.0,2.0928,2.1769,2.2583,2.3208,2.3512,2.3549,2.3549,2.3549,2.3828,2.4205,2.4745,2.5046,2.5435,2.6005,2.6042,2.6168,2.6474,2.6499,2.6499,2.6499,2.6763,2.7022,2.7298,2.7575,2.7971,2.8493,2.8493,2.8406,2.8218,2.843,2.7963,2.6949,2.7195,2.7005,2.641,2.5273,2.4125,2.3091,2.3091,2.3091,2.3091,2.3091,2.3091,2.3091,2.3091,2.3091,2.3091,2.3091,2.3091,2.3091,2.3091,2.3091,2.3091,2.3091,2.3091,2.3091,2.3091,2.3091,2.3091,2.3091,2.3091,2.3091,2.3091,2.2815,2.202,2.0249,1.9702,1.9041,1.7471,1.732,1.7394,1.7394,1.8076,1.9091,2.0461,2.1253,2.2003,2.291,2.3445,2.3819,2.4041,2.264,2.1155,1.9737,1.8228,1.7394,1.7394,1.7247,1.7141,1.7141,1.7141,1.7141,1.7141,1.651,1.5451,1.397,1.2445,1.0573,0.0,0.0,0.0,0.0,0.0,0.0,0.0,1.536,1.5475,1.7011,1.8205,1.9258,2.0125,2.1217,2.2234,2.2982,2.3195,2.3449,2.3929,2.4004,2.4079,2.428,2.4305,2.4644,2.5511,2.5716,2.5979,2.6461,2.6499,2.6499,2.6499,2.6499,2.6549,2.665,2.7072,2.7412,2.7607,2.8047,2.853,2.907,2.907,2.9321,2.9792,2.9792,2.9294,2.8426,2.8426,2.7695,2.6442,2.5504,2.4467,2.3408,2.32,2.3091,2.3091,2.3091,2.3091,2.3091,2.3091,2.3091,2.3091,2.3091,2.3091,2.3091,2.3091,2.3091,2.3091,2.3091,2.3091,2.3091,2.3091,2.3091,2.3091,2.3091,2.3091,2.312,2.322,2.2554,2.1591,2.0348,1.9605,1.8767,1.7498,1.7454,1.7608,1.7608,1.8734,2.011,2.1524,2.2868,2.4196,2.5562,2.5693,2.5479,2.4971,2.2943,2.0531,1.7759,1.7608,1.7608,1.7608,1.7608,1.7608,1.7608,1.7608,1.7608,1.7608,1.7608,1.6849,1.5364,1.4234,1.2211,1.8627,1.7162,1.5996,1.594,1.6012,1.6651,0.0,1.8818,1.8782,1.9987,2.1093,2.1881,2.1994,2.2949,2.3574,2.317,2.3549,2.3916,2.3991,2.4004,2.4356,2.5297,2.5423,2.546,2.5586,2.608,2.6424,2.6487,2.6499,2.6499,2.6499,2.6499,2.6713,2.7198,2.7273,2.7758,2.8718,2.8781,2.9107,2.9691,2.9691,2.9729,2.9792,2.9792,2.9733,2.9624,2.9624,2.8442,2.6483,2.6348,2.563,2.45,2.3507,2.3091,2.3091,2.3091,2.3091,2.3091,2.3091,2.3091,2.3091,2.3091,2.3091,2.3091,2.3091,2.3091,2.3091,2.3091,2.3091,2.3091,2.3091,2.3091,2.3091,2.3091,2.3091,2.3198,2.3633,2.2715,2.1634,2.1005,1.9875,1.8713,1.7717,1.7588,1.7608,1.7608,1.8734,2.011,2.1524,2.2868,2.4196,2.5562,2.5693,2.4741,2.2366,2.1879,2.0531,1.7759,1.7608,1.7608,1.7608,1.7608,1.7608,1.7608,1.7608,1.7608,1.7608,1.7608,1.6849,1.539,1.523,1.4423,2.055,1.9404,1.8422,1.864,1.8331,1.8427,2.0259,2.032,2.0388,2.1807,2.2458,2.2771,2.2771,2.3145,2.3384,2.3145,2.3308,2.3712,2.4365,2.4465,2.5048,2.6626,2.6821,2.6634,2.6168,2.6781,2.7007,2.6538,2.6499,2.6499,2.6499,2.6499,2.6751,2.7286,2.7595,2.8134,2.8888,2.9245,2.9553,2.9792,2.9792,2.9792,2.9792,2.9792,2.9443,2.8806,2.8806,2.7553,2.5504,2.5504,2.484,2.3757,2.3288,2.3091,2.3091,2.3091,2.3091,2.3091,2.3091,2.3091,2.3091,2.3091,2.3091,2.3091,2.3091,2.3091,2.3091,2.3091,2.3091,2.3091,2.3091,2.3091,2.3091,2.3091,2.3308,2.3564,2.375,2.3758,2.3183,2.1343,2.078,2.0196,1.8965,1.876,1.9039,1.987,2.0461,2.1321,2.2692,2.4023,2.5069,2.5635,2.4996,2.3766,2.1853,2.0939,1.9646,1.7707,1.7608,1.7608,1.7608,1.7608,1.7608,1.7608,1.7608,1.7608,1.7608,1.7608,1.7351,1.6891,1.6058,1.6061,2.1276,2.0904,2.0727,2.0826,2.0808,2.1004,2.1915,2.1894,2.1962,2.2902,2.3108,2.3108,2.3108,2.3233,2.3296,2.3133,2.3246,2.3637,2.4465,2.4578,2.5159,2.6716,2.7471,2.7515,2.6692,2.7276,2.7467,2.6871,2.6624,2.6499,2.6499,2.6499,2.6751,2.7286,2.7821,2.8355,2.8888,2.9503,2.9792,2.9792,2.9792,2.9792,2.9792,2.9475,2.872,2.7663,2.7663,2.6573,2.4808,2.4808,2.4307,2.3529,2.3222,2.3091,2.3091,2.3091,2.3091,2.3091,2.3091,2.3091,2.3091,2.3091,2.3091,2.3091,2.3091,2.3091,2.3091,2.3091,2.3091,2.3091,2.3091,2.3091,2.312,2.3269,2.3555,2.388,2.4114,2.4363,2.3962,2.2112,2.172,2.1372,2.0359,2.0179,2.0641,2.203,2.2257,2.2592,2.3592,2.4864,2.5693,2.5693,2.4839,2.3558,2.1853,2.0769,1.9457,1.7808,1.7629,1.7622,1.7709,1.7629,1.7608,1.7608,1.7669,1.7709,1.7709,1.7789,1.7949,1.8115,1.7094,1.7435,2.0459,2.1164,2.2325,2.1875,2.35,2.5038,2.4358,2.4199,2.398,2.3248,2.3108,2.3108,2.3108,2.3574,2.3775,2.3195,2.3587,2.3979,2.4017,2.4017,2.423,2.4811,2.6847,2.7839,2.6972,2.7374,2.7687,2.767,2.6939,2.6499,2.6499,2.6499,2.6751,2.7286,2.7821,2.8355,2.8888,2.9503,2.9792,2.9792,2.9792,2.9792,2.9772,2.8668,2.7562,2.6554,2.6554,2.588,2.4808,2.4808,2.4787,2.4638,2.3529,2.3091,2.3091,2.3091,2.3091,2.3091,2.3091,2.3091,2.3091,2.3091,2.3091,2.3091,2.3091,2.3091,2.3091,2.3091,2.3091,2.3091,2.3091,2.3091,2.3198,2.3672,2.3779,2.4036,2.4867,2.4011,2.318,2.3543,2.2583,2.1702,2.1651,2.1651,2.208,2.3434,2.3642,2.3658,2.3683,2.4864,2.5693,2.5693,2.5659,2.4559,2.1929,2.1651,2.0584,1.8144,1.7749,1.7716,1.7969,1.7742,1.7608,1.7608,1.7856,1.7975,1.7975,1.8323,1.847,1.8477,1.8449,1.8582,2.1723,2.243,2.3314,2.3432,2.4434,2.5077,2.3796,2.3914,2.4074,2.326,2.3108,2.3108,2.3108,2.3258,2.3349,2.3133,2.3271,2.3537,2.3941,2.4004,2.4399,2.5532,2.6334,2.7053,2.7693,2.825,2.8314,2.7736,2.6956,2.6499,2.6499,2.6499,2.6751,2.7286,2.6844,2.6978,2.7825,2.8128,2.8043,2.7617,2.7617,2.7617,2.7597,2.7209,2.644,2.542,2.6182,2.541,2.3735,2.45,2.435,2.3627,2.3256,2.3091,2.3091,2.3091,2.3091,2.3091,2.3091,2.3091,2.3091,2.3091,2.3091,2.3091,2.3091,2.3091,2.3149,2.3486,2.3574,2.3574,2.3574,2.3757,2.3932,2.3828,2.4251,2.474,2.5033,2.4934,2.4572,2.3838,2.3335,2.3026,2.3026,2.3026,2.3484,2.4839,2.502,2.502,2.502,2.543,2.5693,2.5693,2.4888,2.3725,2.2109,2.1143,1.9973,1.8426,1.8029,1.7996,1.833,1.8022,1.7983,1.8183,1.829,1.8343,1.8343,1.8444,1.8591,1.8778,1.8778,1.8938,2.3037,2.3779,2.4492,2.497,2.5646,2.5796,2.428,2.4322,2.4394,2.332,2.2945,2.2807,2.2807,2.2807,2.2807,2.2807,2.316,2.3487,2.365,2.3866,2.426,2.4961,2.5481,2.6222,2.7337,2.7937,2.8099,2.7739,2.6956,2.6499,2.6499,2.6499,2.6663,2.6997,2.6214,2.6118,2.6759,2.6862,2.6754,2.6504,2.6504,2.6504,2.6483,2.6079,2.5483,2.4808,2.5136,2.4456,2.3157,2.3877,2.3757,2.3091,2.3091,2.3091,2.3091,2.3091,2.3091,2.3091,2.3091,2.3091,2.3091,2.3091,2.3198,2.3318,2.314,2.3305,2.3601,2.375,2.3896,2.4014,2.4014,2.4209,2.4394,2.43,2.4691,2.5141,2.5273,2.5513,2.5455,2.4584,2.4402,2.4402,2.4402,2.4402,2.4716,2.5562,2.5693,2.5693,2.5693,2.5693,2.5767,2.5923,2.5165,2.402,2.2456,2.1507,2.0334,1.8736,1.8343,1.8309,1.8637,1.8336,1.8269,1.849,1.8591,1.8644,1.8644,1.8751,1.8898,1.9085,1.9085,1.9185,2.4235,2.5116,2.5836,2.6364,2.7047,2.7214,2.5742,2.5425,2.5007,2.3433,2.2692,2.2302,2.2234,2.2232,2.2257,2.2257,2.3213,2.375,2.3183,2.3587,2.3738,2.317,2.4279,2.5338,2.597,2.6493,2.7041,2.7597,2.6922,2.6482,2.6435,2.6418,2.6401,2.6349,2.5852,2.5614,2.5638,2.5639,2.5878,2.641,2.6348,2.6338,2.6286,2.521,2.4702,2.4638,2.3572,2.3091,2.3091,2.3091,2.3091,2.3091,2.3091,2.3091,2.3091,2.3091,2.3132,2.313,2.313,2.311,2.3091,2.3091,2.3415,2.3711,2.3279,2.3737,2.4336,2.3965,2.4141,2.443,2.443,2.4449,2.458,2.4994,2.5112,2.5239,2.562,2.5693,2.5693,2.5693,2.5693,2.5693,2.5693,2.5693,2.5693,2.5693,2.5693,2.5718,2.5713,2.5747,2.5913,2.6377,2.6426,2.5432,2.2926,2.272,2.1643,1.9095,1.8677,1.8644,1.8903,1.8664,1.8517,1.8565,1.8804,1.8916,1.8916,1.9232,1.9395,1.9395,1.9395,1.9395,2.5094,2.6197,2.6991,2.6595,2.7047,2.7214,2.5742,2.5824,2.567,2.3727,2.2908,2.2236,2.1278,2.1432,2.1694,2.1694,2.2621,2.3283,2.312,2.3233,2.3271,2.312,2.3419,2.4025,2.5043,2.5259,2.5726,2.6722,2.6624,2.6164,2.5423,2.5388,2.504,2.4289,2.3424,2.3131,2.3501,2.338,2.398,2.521,2.4371,2.3973,2.3951,2.3681,2.3529,2.3507,2.3222,2.3091,2.3091,2.3091,2.3091,2.3091,2.3091,2.3091,2.3091,2.3091,2.3327,2.3623,2.3623,2.3386,2.3091,2.3091,2.3415,2.3792,2.3662,2.3994,2.444,2.4701,2.4838,2.4926,2.4926,2.5146,2.5318,2.5141,2.5322,2.5571,2.5689,2.5693,2.5693,2.5693,2.5693,2.5693,2.5693,2.5693,2.5693,2.5693,2.5693,2.5835,2.6182,2.6221,2.6387,2.6807,2.6855,2.5827,2.3282,2.3072,2.2001,1.9434,1.8978,1.8945,1.9267,1.8971,1.8918,1.9167,1.9247,1.9281,1.9281,1.9361,1.9395,1.9395,1.9395,1.9395,2.6213,2.7031,2.7496,2.71,2.7293,2.7217,2.5779,2.555,2.4973,2.2724,2.1799,2.0939,1.951,2.0289,2.1055,2.0804,2.2309,2.3396,2.3145,2.3321,2.3411,2.3133,2.3333,2.3838,2.4729,2.5005,2.5523,2.6424,2.6499,2.625,2.5681,2.5247,2.4743,2.4174,2.2758,2.2113,2.2351,2.2272,2.2838,2.4049,2.3408,2.3091,2.3091,2.3091,2.3091,2.3091,2.3091,2.3091,2.3091,2.3091,2.3091,2.3091,2.3091,2.3091,2.312,2.3327,2.3574,2.3818,2.4004,2.3884,2.3679,2.3679,2.3994,2.4339,2.4121,2.4502,2.4986,2.5082,2.5229,2.5361,2.5361,2.5523,2.565,2.542,2.5532,2.5693,2.5693,2.5693,2.5693,2.5693,2.5693,2.5693,2.5693,2.5693,2.5693,2.5693,2.5884,2.6182,2.6611,2.6504,2.6621,2.7236,2.7305,2.6248,2.3684,2.347,2.2289,1.9584,1.9212,1.9192,1.9388,1.9205,1.9199,1.9395,1.9395,1.9395,1.9395,1.9395,1.9395,1.9395,1.9395,1.9395,2.7285,2.76,2.76,2.76,2.76,2.7254,2.5943,2.5015,2.3753,2.1343,2.0188,1.9181,1.7673,1.9145,2.044,1.9987,2.2146,2.3703,2.317,2.3549,2.3687,2.3158,2.3625,2.4217,2.4754,2.5297,2.5854,2.6449,2.6499,2.6383,2.6129,2.527,2.4671,2.4409,2.272,2.1831,2.1896,2.1905,2.2305,2.3091,2.3091,2.3091,2.3091,2.3091,2.3091,2.3091,2.3091,2.3091,2.3091,2.3091,2.3091,2.3091,2.3091,2.3091,2.314,2.3564,2.3779,2.3926,2.4287,2.4469,2.4547,2.443,2.4717,2.5024,2.4619,2.5054,2.563,2.5273,2.5439,2.5693,2.5693,2.5693,2.5693,2.5693,2.5693,2.5693,2.5693,2.5693,2.5693,2.5693,2.5693,2.5693,2.5693,2.5693,2.5728,2.5786,2.6143,2.6562,2.7041,2.6787,2.6891,2.7692,2.778,2.6713,2.4019,2.3794,2.2548,1.9591,1.9395,1.9395,1.9395,1.9395,1.9395,1.9395,1.9395,1.9395,1.9395,1.9395,1.9395,1.9395,1.9395,1.9395,2.754,2.76,2.76,2.76,2.76,2.7395,2.6587,2.5204,2.3514,2.1479,1.9818,1.8457,1.7561,1.8794,2.0088,2.0478,2.2071,2.3221,2.3105,2.3195,2.3221,2.3108,2.3625,2.4217,2.4754,2.5297,2.5854,2.6449,2.6499,2.5774,2.4108,2.3854,2.3017,2.1413,2.1011,2.1174,2.1896,2.1905,2.2305,2.3091,2.3091,2.3091,2.3091,2.3091,2.3091,2.3091,2.3091,2.3091,2.3091,2.3091,2.3091,2.3091,2.3091,2.3091,2.311,2.3201,2.3679,2.4316,2.4371,2.4869,2.5367,2.4625,2.4717,2.5082,2.5004,2.5322,2.5698,2.562,2.565,2.5693,2.5693,2.5693,2.5693,2.5693,2.5693,2.5693,2.5693,2.5693,2.5693,2.5693,2.5693,2.5693,2.5693,2.5693,2.5835,2.6221,2.6338,2.6695,2.7477,2.7516,2.7663,2.8135,2.821,2.7012,2.4044,2.3794,2.2548,1.9591,1.9395,1.9395,1.9395,1.9395,1.9395,1.9395,1.9395,1.9395,1.9395,1.9395,1.9395,1.9395,1.9395,1.9395,2.76,2.76,2.76,2.76,2.76,2.7166,2.5517,2.4045,2.2212,1.9386,1.7873,1.6757,1.5845,1.726,1.8743,1.9309,2.1016,2.2357,2.2631,2.292,2.3108,2.3108,2.3888,2.4515,2.4779,2.5561,2.6197,2.6474,2.6499,2.5856,2.4355,2.3294,2.2075,2.0644,2.0791,2.1221,2.1896,2.21,2.2498,2.3091,2.3091,2.3091,2.3091,2.3091,2.3091,2.3091,2.3091,2.3091,2.3091,2.3091,2.3091,2.3091,2.3091,2.3091,2.312,2.3367,2.374,2.4121,2.4323,2.4664,2.4957,2.4528,2.4873,2.541,2.541,2.5542,2.5693,2.5693,2.5693,2.5693,2.5693,2.5693,2.5693,2.5693,2.5693,2.5693,2.5693,2.5693,2.5693,2.5693,2.5693,2.5693,2.5693,2.5903,2.6143,2.6357,2.6793,2.7233,2.7643,2.7888,2.8093,2.8271,2.8291,2.7087,2.4044,2.4544,2.371,2.073,2.0537,2.0537,2.0537,1.9815,1.9395,1.9395,1.9395,1.9395,1.9395,1.9395,1.9395,1.9395,1.9395,1.9395,2.76,2.76,2.76,2.76,2.76,2.6924,2.4375,2.2732,2.081,1.7548,1.6164,1.5349,1.4727,1.6229,1.7777,1.8442,2.0213,2.1696,2.2219,2.2757,2.3145,2.3283,2.4173,2.4854,2.4954,2.5904,2.6499,2.6499,2.6112,2.5499,2.4725,2.2787,2.1355,2.0625,2.0976,2.1425,2.1905,2.2305,2.2703,2.3091,2.3091,2.3091,2.3091,2.3091,2.3091,2.3091,2.3091,2.3091,2.3091,2.3091,2.3091,2.3091,2.3091,2.3091,2.314,2.3503,2.3711,2.386,2.417,2.4323,2.4391,2.4391,2.4859,2.5435,2.5435,2.5493,2.5571,2.5571,2.564,2.5693,2.5693,2.5693,2.5693,2.5693,2.5693,2.5693,2.5693,2.5693,2.5693,2.5693,2.5693,2.5693,2.5693,2.6103,2.6387,2.6387,2.7145,2.7692,2.7692,2.8054,2.8291,2.8291,2.8014,2.6861,2.4488,2.5096,2.4452,2.1777,2.1614,2.1472,2.1145,2.0004,1.9395,1.9395,1.9395,1.9395,1.9395,1.9395,1.9395,1.9395,1.9395,1.9361,2.76,2.76,2.76,2.76,2.76,2.6924,2.4375,2.2117,1.9957,1.7857,1.6125,1.5248,1.612,1.7289,1.8468,1.9497,2.069,2.1696,2.2219,2.2757,2.3296,2.3838,2.444,2.4992,2.5473,2.6122,2.6499,2.6499,2.482,2.3745,2.3642,2.1783,2.0702,2.0605,2.0976,2.1425,2.1905,2.2305,2.2703,2.3091,2.3091,2.3091,2.3091,2.3091,2.3091,2.3091,2.3091,2.3091,2.3091,2.3091,2.3091,2.3091,2.3091,2.3091,2.3101,2.314,2.3425,2.3821,2.3838,2.4092,2.4391,2.4391,2.4449,2.4518,2.4518,2.4814,2.5151,2.5151,2.543,2.5693,2.5693,2.5693,2.5693,2.5693,2.5693,2.5693,2.5693,2.5693,2.5693,2.5693,2.5693,2.5693,2.5693,2.6103,2.6387,2.6387,2.7145,2.7692,2.7692,2.8054,2.8291,2.8291,2.7105,2.6182,2.59,2.4737,2.3319,2.1692,2.1614,2.1002,1.9649,1.9482,1.9395,1.9395,1.9395,1.9395,1.9395,1.9395,1.9395,1.9395,1.9395,1.9254,2.76,2.76,2.76,2.76,2.73,2.627,2.3418,2.1487,1.9547,1.6953,1.5604,1.5135,1.5881,1.6384,1.7174,1.8594,1.9497,2.0174,2.0714,2.1581,2.2347,2.2909,2.3778,2.4657,2.5511,2.616,2.625,2.5646,2.4289,2.3239,2.2627,2.1572,2.0967,2.0967,2.162,2.2069,2.2266,2.2654,2.2925,2.3091,2.3091,2.3091,2.3091,2.3091,2.3091,2.3091,2.3091,2.3091,2.3091,2.3091,2.3091,2.3091,2.3091,2.3091,2.3091,2.3091,2.323,2.3376,2.3376,2.3484,2.363,2.363,2.363,2.3718,2.4235,2.4541,2.4727,2.5024,2.5219,2.54,2.564,2.5693,2.5693,2.5693,2.5693,2.5693,2.5693,2.5693,2.5693,2.5693,2.5693,2.5693,2.5693,2.6284,2.668,2.6426,2.736,2.7976,2.7721,2.8054,2.8291,2.8291,2.7753,2.7051,2.6182,2.6354,2.5882,2.4397,2.3423,2.2653,2.2076,2.0349,1.9395,1.9395,1.9395,1.9395,1.9395,1.9395,1.9308,1.9098,1.9098,1.8945,2.748,2.76,2.76,2.76,2.7106,2.5808,2.28,2.1114,1.9392,1.6537,1.5502,1.5299,1.5831,1.5784,1.6166,1.7716,1.8261,1.8797,1.9672,2.064,2.152,2.2219,2.3148,2.4152,2.5259,2.6042,2.6077,2.5075,2.4072,2.3054,2.2046,2.1619,2.1347,2.12,2.2049,2.2488,2.2488,2.2908,2.3091,2.3091,2.3091,2.3091,2.3091,2.3091,2.3091,2.3091,2.3091,2.3091,2.3091,2.3091,2.3091,2.3091,2.3091,2.3091,2.3091,2.3091,2.3091,2.3091,2.3091,2.3091,2.3091,2.3091,2.3091,2.3208,2.3835,2.4196,2.4459,2.4785,2.5082,2.5342,2.563,2.5693,2.5693,2.5693,2.5693,2.5693,2.5693,2.5693,2.5693,2.5693,2.5693,2.5693,2.5693,2.6313,2.6728,2.6435,2.7373,2.8024,2.7731,2.8054,2.8291,2.8291,2.8291,2.787,2.6825,2.7303,2.7222,2.6182,2.4654,2.3599,2.3179,2.0737,1.9395,1.9395,1.9395,1.9395,1.9395,1.9308,1.9125,1.889,1.881,1.8637,2.724,2.76,2.76,2.76,2.7106,2.5808,2.28,2.1114,1.9492,1.6991,1.607,1.5867,1.6387,1.6007,1.6001,1.7209,1.7359,1.7897,1.9571,2.0314,2.1093,2.2169,2.2782,2.3559,2.4704,2.5841,2.6077,2.5075,2.4072,2.3054,2.2046,2.194,2.168,2.121,2.2049,2.2488,2.2488,2.2908,2.3091,2.3091,2.3091,2.3091,2.3091,2.3091,2.3091,2.3091,2.3091,2.3091,2.3091,2.3091,2.3091,2.3091,2.3091,2.3091,2.3091,2.3091,2.3091,2.3091,2.3091,2.3091,2.3091,2.3091,2.3091,2.3091,2.311,2.3718,2.4391,2.4401,2.5035,2.5684,2.5693,2.5693,2.5693,2.5693,2.5693,2.5693,2.5693,2.5693,2.5693,2.5693,2.5693,2.5693,2.5693,2.6079,2.6396,2.6387,2.7145,2.7692,2.7692,2.8054,2.8291,2.8291,2.8291,2.8291,2.8291,2.6943,2.6127,2.61,2.4654,2.3151,2.1663,2.0199,1.9395,1.9395,1.9395,1.9395,1.9395,1.9072,1.8896,1.889,1.8631,1.8309,2.6123,2.6228,2.6123,2.5663,2.4732,2.337,2.1213,2.0082,1.8892,1.6905,1.635,1.6298,1.6473,1.6008,1.6242,1.8184,1.813,1.8296,1.9621,2.0953,2.192,2.2257,2.4142,2.5565,2.5929,2.6285,2.6077,2.5075,2.4072,2.3054,2.2046,2.194,2.1816,2.168,2.2479,2.2918,2.2918,2.3054,2.3091,2.3091,2.3091,2.3091,2.3091,2.3091,2.3091,2.3091,2.3091,2.3091,2.3091,2.3091,2.3091,2.3091,2.3091,2.3091,2.3091,2.3091,2.3091,2.3091,2.3091,2.3091,2.3091,2.3091,2.3091,2.3091,2.3091,2.3513,2.4111,2.4721,2.5283,2.5693,2.5693,2.5693,2.5693,2.5693,2.5693,2.5693,2.5693,2.5693,2.5693,2.5693,2.5693,2.5693,2.5693,2.6313,2.6719,2.6435,2.7389,2.8015,2.7731,2.8054,2.8291,2.8291,2.8064,2.7888,2.7888,2.7473,2.7075,2.6726,2.4411,2.2931,2.2707,2.0186,1.8986,1.9388,1.9165,1.9065,1.9065,1.8936,1.8689,1.8289,1.8009,1.7816,2.4885,2.5035,2.481,2.4649,2.3498,2.1988,2.0453,1.9427,1.8359,1.6826,1.65,1.65,1.65,1.5838,1.5907,1.7749,1.7385,1.7472,1.9258,2.0563,2.1743,2.2824,2.4673,2.5929,2.6147,2.6361,2.6077,2.5075,2.4409,2.3459,2.2065,2.2268,2.2267,2.1905,2.2684,2.3091,2.3091,2.3091,2.3091,2.3091,2.3091,2.3091,2.3091,2.3091,2.3091,2.3091,2.3091,2.3091,0.0,2.3091,2.3091,2.3091,2.3091,2.3091,2.3091,2.3091,2.3091,2.3091,2.3091,2.3091,2.3091,2.3091,2.323,2.3396,2.353,2.3786,2.4209,2.5078,2.5518,2.5693,2.5693,2.5693,2.5693,2.5693,2.5693,2.5693,2.5693,2.5693,2.5693,2.5693,2.5693,2.5693,2.5693,2.6157,2.6528,2.6611,2.7305,2.7832,2.7917,2.8161,2.8232,2.8093,2.7848,2.7565,2.7242,2.736,2.7305,2.7006,2.4289,2.2794,2.2998,2.0119,1.8692,1.9053,1.8851,1.8764,1.8764,1.8616,1.8316,1.7842,1.7669,1.7608,0.0,2.3763,2.346,2.4036,2.29,2.1319,2.0157,1.9037,0.0,1.6739,1.6473,1.6473,1.6549,1.5596,1.5214,1.6466,1.578,1.6038,1.8746,1.9685,2.1117,2.3853,2.4616,2.5118,2.5611,2.6172,2.6112,2.5176,2.504,2.4204,2.2371,2.2919,2.293,2.2089,2.2736,2.3091,2.3091,2.3091,2.3091,2.3091,2.3091,2.3091,2.3091,2.3091,2.3091,2.3091,2.3091,2.3091,2.3091,2.3091,2.3091,2.3091,2.3091,2.3091,2.3091,2.3091,2.3091,2.3091,2.3091,2.3091,2.3091,2.3091,2.3415,2.3867,2.4287,2.442,2.4615,2.5474,2.5693,2.5693,2.5693,2.5693,2.5693,2.5693,2.5693,2.5693,2.5693,2.5693,2.5693,2.5693,2.5693,2.5693,2.5693,2.5742,2.6069,2.6869,2.7045,2.7393,2.8193,2.8291,2.8161,2.7741,2.7663,2.7311,2.6455,2.6748,2.6928,2.6898,2.421,2.263,2.2654,1.9932,1.845,1.849,1.847,1.8457,1.8457,1.8129,1.7836,1.7608,1.7608,1.7608,1.9606,0.0,2.0537,2.0183,1.9462,1.8665,0.0,1.7663,1.7348,0.0,0.0,0.0,0.0,1.5886,1.5585,1.8023,1.8129,1.849,2.0084,2.1871,2.3728,2.5682,2.6017,2.616,2.6285,2.6411,2.6401,2.6176,2.5423,2.4962,2.4913,2.39,2.3408,2.365,2.3293,2.3091,2.3091,2.3091,2.3091,2.3091,2.3091,2.3091,2.3091,2.3091,2.3091,2.3091,2.3091,2.3091,2.3091,2.3091,2.3091,2.3091,2.3091,2.3091,2.3091,2.3091,2.3091,2.3091,2.3091,2.3091,2.3091,2.3091,2.3415,2.3867,2.4287,2.4648,2.5029,2.5562,2.5693,2.5693,2.5693,2.5693,2.5693,2.5693,2.5693,2.5693,2.5693,2.5693,2.5693,2.5693,2.5693,2.5693,2.5693,2.6254,2.6752,2.6957,2.7568,2.8066,2.8271,2.8291,2.8161,2.7741,2.7373,2.6953,2.6435,2.6484,2.6396,2.603,2.345,2.2039,2.2223,1.9401,1.8043,1.8477,1.8243,1.8123,1.8123,1.7842,1.7655,1.7608,1.7608,1.7608,1.7161,1.8292,1.9301,1.9546,1.8613,1.7683,1.7957,1.7073,1.6183,0.0,0.0,0.0,0.0,1.6052,1.6167,1.7969,1.8648,1.9607,2.1539,2.3273,2.4895,2.6336,2.6499,2.6499,2.6499,2.6499,2.6499,2.6499,2.6212,2.5769,2.5103,2.4603,2.4067,2.3451,2.3203,2.3091,2.3091,2.3091,2.3091,2.3091,2.3091,2.3091,2.3091,2.3091,2.3091,2.3091,2.3091,2.3091,2.3091,2.3091,2.3091,2.3091,2.3091,2.3091,2.3091,2.3091,2.3091,2.3091,2.3091,2.3091,2.313,2.3347,2.373,2.416,2.459,2.5019,2.543,2.565,2.5693,2.5693,2.5693,2.5693,2.5693,2.5693,2.5693,2.5693,2.5693,2.5693,2.5693,2.5693,2.5693,2.5693,2.5693,2.6264,2.6728,2.6728,2.7461,2.8034,2.8034,2.82,2.8057,2.7432,2.7158,2.6758,2.6118,2.6094,2.5962,2.5728,2.3176,2.1767,2.1922,1.9133,1.7736,1.807,1.7916,1.7836,1.7836,1.7662,1.7608,1.7608,1.7608,1.7608,1.6031,1.7438,1.9053,1.9881,1.8666,1.7537,1.8563,1.6897,1.5264,1.5731,0.0,0.0,0.0,1.6436,1.6923,1.7775,1.8794,2.0437,2.3108,2.4299,2.5306,2.6373,2.6499,2.6499,2.6499,2.6562,2.6612,2.6612,2.711,2.6687,2.502,2.5528,2.5007,2.3173,2.3448,2.3452,2.3091,2.3091,2.3091,2.3091,2.3091,2.3091,2.3123,2.3278,2.3256,2.3113,2.3278,2.3266,2.3091,2.3091,2.3091,2.3091,2.3091,2.3091,2.3091,2.3091,2.3091,2.3091,2.3091,2.3091,2.3191,2.3652,2.4072,2.4502,2.4965,2.5381,2.5693,2.5693,2.5693,2.5693,2.5693,2.5693,2.5693,2.5693,2.5693,2.5693,2.5693,2.5693,2.5693,2.5693,2.5693,2.5693,2.5693,2.6103,2.6387,2.6387,2.7086,2.7594,2.7594,2.7881,2.7793,2.6976,2.6914,2.6576,2.5762,2.5693,2.5693,2.5693,2.3176,2.1524,2.1092,1.8831,1.7608,1.7608,1.7608,1.7608,1.7608,1.7608,1.7608,1.7608,1.7608,1.7608,1.7123,1.8439,1.919,1.769,1.7222,1.7184,1.7362,1.6809,1.6272,1.635,1.5957,1.617,1.813,1.7827,1.7913,1.9862,2.1091,2.2583,2.4895,2.5372,2.5741,2.6411,2.6499,2.6499,2.6499,2.6914,2.7173,2.7173,2.767,2.8044,2.8175,2.7452,2.6673,2.5916,2.5963,2.5062,2.3113,2.3091,2.3091,2.3091,2.3091,2.3091,2.3135,2.4103,2.4006,2.3157,2.4125,2.3984,2.3091,2.3091,2.3091,2.3091,2.3091,2.3091,2.3091,2.3091,2.3091,2.3091,2.3091,2.3091,2.3191,2.3652,2.4072,2.4502,2.4965,2.5381,2.5693,2.5693,2.5693,2.5693,2.5693,2.5693,2.5693,2.5693,2.5693,2.5693,2.5693,2.5693,2.5693,2.5693,2.5693,2.5693,2.5693,2.6103,2.6387,2.6387,2.6797,2.7119,2.7119,2.7168,2.7021,2.6533,2.6484,2.6279,2.5757,2.5693,2.5693,2.5693,2.3176,2.0658,1.8323,1.7812,1.7608,1.7608,1.7608,1.7608,1.7608,1.7608,1.7608,1.7608,1.7608,1.7608,1.651,1.7625,1.8474,1.7882,1.8455,1.9222,1.9467,1.8437,1.7414,1.7414,1.6986,1.7022,1.833,1.8643,1.9535,2.2072,2.2899,2.3778,2.5372,2.5598,2.5829,2.6424,2.6499,2.6499,2.6499,2.7002,2.7298,2.7298,2.8072,2.8388,2.8048,2.7839,2.7065,2.563,2.5588,2.4776,2.3113,2.3714,2.3714,2.3091,2.3091,2.342,2.4049,2.4564,2.4521,2.4049,2.4564,2.4146,2.3091,2.3091,2.3091,2.3091,2.3091,2.3091,2.3091,2.3091,2.3091,2.3091,2.3091,2.3269,2.3542,2.3984,2.4414,2.4853,2.5293,2.5552,2.5693,2.5693,2.5693,2.5693,2.5693,2.5693,2.5693,2.5693,2.5693,2.5693,2.5693,2.5693,2.5693,2.5693,2.5693,2.5693,2.5693,2.6103,2.6309,2.605,2.6567,2.6908,2.6709,2.6875,2.6855,2.6435,2.6387,2.6211,2.5747,2.5693,2.5069,2.3633,2.2383,2.0479,1.7714,1.7608,1.7608,1.7608,1.7608,1.7608,1.7608,1.7608,1.7608,1.7608,1.7608,1.7608,1.6383,1.7304,1.8308,1.8917,1.966,2.0448,2.1188,1.9731,1.8279,1.853,1.8242,1.8165,1.8844,1.9974,2.1531,2.3816,2.4293,2.4707,2.5678,2.5816,2.5979,2.6449,2.6499,2.6549,2.6675,2.7173,2.755,2.7657,2.8568,2.874,2.7934,2.8269,2.7481,2.5273,2.5431,2.4893,2.3507,2.4628,2.4628,2.3507,2.3757,2.4339,2.521,2.5452,2.5284,2.4808,2.5083,2.4403,2.3091,2.3091,2.3091,2.311,2.323,2.3327,2.3386,2.3169,2.3159,2.3249,2.313,2.3406,2.3857,2.4277,2.4717,2.518,2.5581,2.5693,2.5693,2.5693,2.5693,2.5693,2.5693,2.5693,2.5693,2.5693,2.5693,2.5693,2.5693,2.5693,2.5693,2.5693,2.5693,2.5693,2.5693,2.5991,2.6123,2.5742,2.6274,2.6576,2.6279,2.6523,2.6567,2.6269,2.624,2.6103,2.5713,2.5693,2.4682,2.2307,2.155,2.041,1.8629,1.7937,1.7759,1.8068,1.7759,1.7608,1.7608,1.7608,1.7608,1.7608,1.7608,1.7608,1.8155,1.901,1.9708,2.0311,1.9378,1.8724,2.031,1.9387,1.8481,1.9484,1.9648,1.9962,2.1067,2.2598,2.3929,2.4628,2.5172,2.5716,2.6348,2.6436,2.6449,2.6487,2.6499,2.67,2.7185,2.772,2.8242,2.8756,2.9377,2.971,2.962,2.9657,2.8673,2.6451,2.734,2.6828,2.4702,2.5808,2.5808,2.4681,2.5745,2.6297,2.641,2.74,2.6746,2.4851,2.5933,2.5115,2.3091,2.3091,2.3091,2.314,2.3584,2.3984,2.4206,2.3406,2.3376,2.3682,2.3259,2.3406,2.3857,2.4277,2.4717,2.518,2.5581,2.5693,2.5693,2.5693,2.5693,2.5693,2.5693,2.5693,2.5693,2.5693,2.5693,2.5693,2.5693,2.5693,2.5693,2.5693,2.5693,2.5693,2.5693,2.5737,2.5747,2.5718,2.5742,2.5771,2.5742,2.5786,2.5771,2.5757,2.5757,2.5747,2.5693,2.5693,2.5103,2.3658,2.1151,2.0256,2.1372,1.8961,1.8199,1.9428,1.8218,1.7608,1.7608,1.7608,1.7608,1.7608,1.7608,1.7608,1.7309,1.8544,1.9646,1.9401,1.9594,2.0154,2.1391,2.1193,2.0952,2.1705,2.1592,2.1493,2.192,2.3361,2.4553,2.4779,2.5561,2.6248,2.6461,2.6499,2.6499,2.6499,2.6801,2.7072,2.7286,2.8097,2.8681,2.8875,2.9465,2.9792,2.9792,2.9792,2.9099,2.7542,2.7896,2.738,2.5871,2.6953,2.7267,2.6849,2.6605,2.6842,2.7501,2.7916,2.7267,2.588,2.6307,2.52,2.3091,2.3091,2.3091,2.3162,2.3623,2.4043,2.4352,2.403,2.401,2.415,2.3962,2.4219,2.4633,2.4789,2.5117,2.5493,2.5659,2.5693,2.5693,2.5693,2.5693,2.5693,2.5693,2.5693,2.5693,2.5693,2.5693,2.5693,2.5693,2.5693,2.5693,2.5693,2.5693,2.5693,2.5693,2.5693,2.5693,2.5693,2.5693,2.5693,2.5693,2.5693,2.5693,2.5693,2.5693,2.5693,2.5693,2.5693,2.5479,2.4971,2.2391,2.1143,2.1676,1.9057,1.8225,1.9576,1.8271,1.7608,1.7608,1.7608,1.7608,1.7608,1.7608,1.7608,1.7697,1.8813,2.0003,1.9912,2.0539,2.153,2.2983,2.2692,2.232,2.2964,2.2807,2.2671,2.3022,2.4026,2.4854,2.503,2.5866,2.6499,2.6499,2.6499,2.6562,2.6738,2.7072,2.7437,2.777,2.8467,2.8982,2.917,2.9566,2.9792,2.9792,2.9792,2.9287,2.8136,2.8096,2.7743,2.7005,2.7723,2.8275,2.8617,2.7899,2.7939,2.8636,2.8636,2.7867,2.6504,2.6504,2.52,2.311,2.3269,2.3484,2.3782,2.4356,2.4683,2.4818,2.4963,2.4838,2.46,2.444,2.4697,2.5092,2.5092,2.5371,2.5693,2.5693,2.5693,2.5693,2.5693,2.5693,2.5693,2.5693,2.5693,2.5693,2.5693,2.5693,2.5693,2.5693,2.5693,2.5693,2.5693,2.5693,2.5693,2.5693,2.5693,2.5693,2.5693,2.5693,2.5693,2.5693,2.5693,2.5693,2.5693,2.5693,2.5693,2.5693,2.5693,2.5693,2.5693,2.3583,2.2341,2.2341,1.9697,1.8655,1.9576,1.8271,1.7608,1.7608,1.7608,1.7608,1.7608,1.7608,1.7608,1.9863,2.0183,2.1027,2.2348,2.2211,2.2419,2.493,2.3597,2.2088,2.2947,2.3133,2.3471,2.4587,2.4804,2.498,2.5511,2.6105,2.6499,2.6512,2.6512,2.6713,2.7261,2.7324,2.772,2.8787,2.8919,2.9157,2.9754,2.9792,2.9792,2.9792,2.9792,2.9275,2.8156,2.8116,2.8116,2.8116,2.8116,2.8676,2.9792,2.9792,2.9792,2.9792,2.9792,2.8613,2.6524,2.6524,2.5231,2.3174,2.3626,2.4343,2.5208,2.6009,2.6079,2.577,2.6175,2.5814,2.5057,2.458,2.4717,2.5102,2.5102,2.5371,2.5693,2.5693,2.5693,2.5693,2.5693,2.5693,2.5693,2.5693,2.5693,2.5693,2.5693,2.5693,2.5693,2.5693,2.5693,2.5693,2.5693,2.5693,2.5693,2.5693,2.5693,2.5693,2.5693,2.5693,2.5693,2.5693,2.5693,2.5693,2.5693,2.5693,2.5693,2.5693,2.5693,2.5693,2.5693,2.4452,2.3716,2.3716,2.1075,1.9602,1.9627,1.8297,1.7608,1.7608,1.7608,1.7608,1.7608,1.7608,1.7608,1.8484,1.9824,2.1386,2.1317,2.3232,2.5207,2.5453,2.4925,2.4558,2.5096,2.5026,2.4858,2.4804,2.5105,2.541,2.5573,2.6419,2.7185,2.7557,2.762,2.7971,2.8944,2.8687,2.8718,2.9465,2.9528,2.9616,2.9779,2.9792,2.9792,2.9792,2.9792,2.9643,2.9307,2.9307,2.9307,2.9307,2.9307,2.9475,2.9792,2.9792,2.9792,2.9792,2.9792,2.9008,2.7646,2.8029,2.7148,2.5537,2.6055,2.6833,2.7722,2.7964,2.8146,2.8206,2.7473,2.7053,2.672,2.5658,2.5406,2.5513,2.5513,2.561,2.5693,2.5693,2.5693,2.5693,2.5693,2.5693,2.5693,2.5693,2.5693,2.5693,2.5693,2.5693,2.5693,2.5693,2.5693,2.5693,2.5693,2.5693,2.5693,2.5693,2.5693,2.5693,2.5693,2.5693,2.5693,2.5693,2.5693,2.5693,2.5693,2.5693,2.5693,2.5693,2.5693,2.5693,2.5693,2.5333,2.5103,2.5103,2.1558,2.0058,2.1067,1.8779,1.7608,1.7608,1.7608,1.7608,1.7608,1.7608,1.7608,2.0419,2.1819,2.3344,2.3741,2.5238,2.6758,2.7345,2.682,2.6437,2.7211,2.6524,2.59,2.6217,2.6101,2.6168,2.6816,2.7494,2.8134,2.8699,2.8775,2.9114,3.0018,2.9797,2.9722,3.008,3.0118,3.003,2.9817,2.9792,2.9792,2.9792,2.9792,2.9792,2.9792,2.9792,2.9792,2.9792,2.9792,2.9792,2.9792,2.9792,2.9792,2.9792,2.9792,2.9177,2.8099,2.8213,2.7796,2.7099,2.7657,2.8352,2.9083,2.9565,2.9602,2.9361,2.9108,2.8412,2.7494,2.6706,2.6135,2.5693,2.5693,2.5693,2.5693,2.5693,2.5693,2.5693,2.5693,2.5693,2.5693,2.5693,2.5693,2.5693,2.5693,2.5693,2.5693,2.5693,2.5693,2.5693,2.5693,2.5693,2.5693,2.5693,2.5693,2.5693,2.5693,2.5693,2.5693,2.5693,2.5693,2.5693,2.5693,2.5693,2.5693,2.5693,2.5693,2.5693,2.5693,2.5693,2.5455,2.4922,2.2038,2.0564,2.0863,1.8734,1.7608,1.7608,1.7608,1.7608,1.7608,1.7608,1.7608,2.3868,2.4859,2.6051,2.7949,2.7679,2.759,3.0043,2.9131,2.8102,2.9244,2.7859,2.6937,2.8514,2.782,2.7462,2.8886,2.917,2.9391,2.9874,2.9962,3.0168,3.0751,3.0738,3.0688,3.0738,3.0651,3.0387,2.9905,2.9836,2.9792,2.9792,2.9792,2.9792,2.9792,2.9792,2.9792,2.9792,2.9792,2.9792,2.9792,2.9792,2.9836,2.9867,2.9817,2.9285,2.8383,2.7826,2.79,2.8402,2.892,2.9352,2.9841,3.0944,3.0698,2.9863,3.0832,2.9738,2.7744,2.7636,2.6778,2.5693,2.5693,2.5693,2.5693,2.5693,2.5693,2.5693,2.5693,2.5693,2.5693,2.5693,2.5693,2.5693,2.5693,2.5693,2.5693,2.5693,2.5693,2.5693,2.5693,2.5693,2.5693,2.5693,2.5693,2.5693,2.5693,2.5693,2.5693,2.5693,2.5693,2.5693,2.5693,2.5693,2.5693,2.5693,2.5693,2.5693,2.5693,2.5693,2.5094,2.3766,2.2416,2.1041,1.9627,1.8271,1.7608,1.7608,1.7608,1.7608,1.7608,1.7608,1.7595,2.0827,2.3131,2.5827,2.6782,2.8353,2.9953,3.1032,3.1337,3.1263,3.0866,2.9913,2.9558,3.0924,3.0925,3.0748,3.079,3.1179,3.1383,3.11,3.1067,3.1424,3.2449,3.1763,3.1386,3.1825,3.109,3.055,3.0437,3.0043,2.9792,2.9792,2.9792,2.9792,2.9792,2.9792,2.9792,2.9792,2.9792,2.9792,2.9792,2.9792,3.0018,3.04,2.9993,3.0125,3.0653,3.0113,3.0695,3.197,3.1617,3.1792,3.2339,3.259,3.2534,3.2217,3.1478,3.0271,2.8889,2.7932,2.6778,2.5693,2.5693,2.5693,2.5693,2.5693,2.5693,2.5693,2.5693,2.5693,2.5693,2.5693,2.5693,2.5693,2.5693,2.5693,2.5693,2.5693,2.5693,2.5693,2.5693,2.5693,2.5693,2.5693,2.5693,2.5693,2.5693,2.5693,2.5693,2.5693,2.5693,2.5693,2.5693,2.5693,2.5693,2.5693,2.5693,2.5693,2.5693,2.5693,2.5094,2.3766,2.2416,2.1041,1.9627,1.8271,1.7608,1.7608,1.7608,1.7608,1.7608,1.7608,1.7488,2.2109,2.4268,2.6452,2.8068,2.9744,3.1151,3.1839,3.2258,3.2631,3.3149,3.233,3.1799,3.273,3.2859,3.2919,3.3224,3.311,3.2975,3.2992,3.2552,3.2437,3.3027,3.2575,3.2123,3.1838,3.1311,3.0771,3.0269,2.9955,2.9792,2.9792,2.9792,2.9792,2.9792,2.9792,2.9792,2.9792,2.9792,2.9792,2.9792,3.0068,3.047,3.0972,3.0683,3.0859,3.1406,3.1386,3.1863,3.2667,3.2641,3.2826,3.3102,3.3102,3.3102,3.3025,3.2348,3.1323,3.009,2.8889,2.7649,2.65,2.5893,2.5693,2.5693,2.5693,2.5693,2.5693,2.5693,2.5693,2.5693,2.5693,2.5693,2.5693,2.5693,2.5693,2.5693,2.5693,2.5693,2.5693,2.5693,2.5693,2.5693,2.5693,2.5693,2.5693,2.5693,2.5693,2.5693,2.5693,2.5693,2.5693,2.5693,2.5693,2.5693,2.5693,2.5693,2.5693,2.5693,2.5693,2.5094,2.3766,2.3026,2.1676,1.9627,1.8916,1.8251,1.7608,1.7608,1.7608,1.7608,1.7608,1.7454,2.3509,2.548,2.7273,2.9985,3.1091,3.1675,3.2347,3.2677,3.3349,3.513,3.4493,3.3837,3.4629,3.4668,3.487,3.5673,3.5071,3.4547,3.468,3.3932,3.3313,3.3124,3.3102,3.2688,3.1637,3.1449,3.0984,3.0005,2.9842,2.9792,2.9792,2.9792,2.9792,2.9792,2.9792,2.9792,2.9792,2.988,2.993,2.9942,3.0583,3.1122,3.1537,3.1658,3.1645,3.1549,3.2014,3.2256,3.2403,3.2901,3.3102,3.3102,3.3102,3.3102,3.3102,3.3102,3.2283,3.1033,2.9818,2.8611,2.7376,2.611,2.5693,2.5693,2.5693,2.5693,2.5693,2.5693,2.5693,2.5693,2.5693,2.5693,2.5693,2.5693,2.5693,2.5693,2.5693,2.5693,2.5693,2.5693,2.5693,2.5693,2.5693,2.5693,2.5693,2.5693,2.5693,2.5693,2.5693,2.5693,2.5693,2.5693,2.5693,2.5693,2.5693,2.5693,2.5693,2.5693,2.5693,2.5094,2.3766,2.3692,2.2416,1.9653,1.9602,1.8942,1.7608,1.7608,1.7608,1.7608,1.7555,1.7408,1.948,2.3041,2.7365,3.0569,3.1436,3.1675,3.2347,3.3395,3.4473,3.5325,3.5348,3.5728,3.7503,3.7803,3.7711,3.7509,3.7363,3.6665,3.4945,3.4594,3.4129,3.3219,3.3102,3.2839,3.2164,3.1675,3.1148,3.0538,3.0068,2.9792,2.9792,2.9792,2.9792,2.9792,2.9792,2.9792,2.9792,3.0269,3.0487,3.052,3.1504,3.2018,3.2106,3.2616,3.2579,3.2102,3.2156,3.2503,3.2989,3.3065,3.3102,3.3102,3.3102,3.3102,3.3102,3.3102,3.2283,3.1033,2.9818,2.8611,2.7376,2.611,2.5693,2.5693,2.5693,2.5693,2.5693,2.5693,2.5693,2.5693,2.5693,2.5693,2.5693,2.5693,2.5693,2.5693,2.5693,2.5693,2.5693,2.5693,2.5693,2.5693,2.5693,2.5693,2.5693,2.5693,2.5693,2.5693,2.5693,2.5693,2.5693,2.5693,2.5693,2.5693,2.5693,2.5693,2.5693,2.5693,2.5693,2.5094,2.3766,2.3692,2.2416,1.9653,1.9602,1.8942,1.7608,1.7608,1.7608,1.7602,1.7347,1.7239,2.1196,2.4522,2.7857,3.0763,3.178,3.2333,3.338,3.4383,3.5444,3.6836,3.712,3.7389,3.8227,3.8706,3.8889,3.8738,3.8196,3.7472,3.6568,3.5433,3.4532,3.4058,3.317,3.2365,3.18,3.1273,3.0733,3.0193,2.993,2.9792,2.9792,2.9792,2.9792,2.9792,2.9792,2.9942,3.0256,3.0475,3.0901,3.1491,3.1968,3.239,3.2704,3.2989,3.2964,3.2692,3.2692,3.2842,3.3102,3.3102,3.3102,3.3102,3.3102,3.3102,3.3102,3.3102,3.2754,3.1987,3.0067,2.9039,2.8296,2.6332,2.5693,2.5693,2.5693,2.5693,2.5693,2.5693,2.5693,2.5693,2.5693,2.5693,2.5693,2.5693,2.5693,2.5693,2.5693,2.5693,2.5693,2.5693,2.5693,2.5693,2.5693,2.5693,2.5693,2.5693,2.5693,2.5693,2.5693,2.5693,2.5693,2.5693,2.5693,2.5693,2.5693,2.5693,2.5693,2.5693,2.5693,2.543,2.4839,2.4097,2.2776,2.0812,2.0007,1.8942,1.7608,1.7608,1.7608,1.7608,1.7481,1.7327,2.2093,2.4567,2.6644,2.994,3.1271,3.2287,3.4293,3.5265,3.6252,3.8018,3.8544,3.8646,3.8646,3.9047,3.9406,3.9406,3.8727,3.8107,3.7829,3.647,3.5238,3.4555,3.3374,3.2236,3.1301,3.0834,3.0382,2.9829,2.9792,2.9792,2.9792,2.9792,2.9792,2.9792,2.9792,3.0055,3.0588,3.0864,3.1479,3.2428,3.2428,3.2654,3.3102,3.3102,3.3102,3.3102,3.3102,3.3102,3.3102,3.3102,3.3102,3.3102,3.3102,3.3102,3.3102,3.3102,3.3102,3.2754,3.026,2.9407,2.8993,2.6514,2.5693,2.5693,2.5693,2.5693,2.5693,2.5693,2.5693,2.5693,2.5693,2.5693,2.5693,2.5693,2.5693,2.5693,2.5693,2.5693,2.5693,2.5693,2.5693,2.5693,2.5693,2.5693,2.5693,2.5693,2.5693,2.5693,2.5693,2.5693,2.5693,2.5693,2.5693,2.5693,2.5693,2.5693,2.5693,2.5693,2.5693,2.5693,2.5693,2.4097,2.2717,2.1727,1.9981,1.861,1.7608,1.7608,1.7608,1.7608,1.7535,1.7421,1.9214,2.0498,2.2298,2.747,2.9264,3.0746,3.4577,3.5968,3.6823,3.814,3.8916,3.9346,3.9346,3.9376,3.9406,3.9406,3.9337,3.8962,3.7937,3.7715,3.6694,3.414,3.3779,3.2905,3.0846,3.0613,3.0382,2.9829,2.9792,2.9792,2.9792,2.9792,2.9792,2.9792,2.9792,3.0055,3.0588,3.1604,3.2428,3.3052,3.3052,3.3077,3.3102,3.3102,3.3102,3.3102,3.3102,3.3102,3.3102,3.3102,3.3102,3.3102,3.3102,3.3102,3.3102,3.3102,3.3102,3.2754,3.026,2.9407,2.8993,2.6514,2.5693,2.5693,2.5693,2.5693,2.5693,2.5693,2.5693,2.5693,2.5693,2.5693,2.5693,2.5693,2.5693,2.5693,2.5693,2.5693,2.5693,2.5693,2.5693,2.5693,2.5693,2.5693,2.5693,2.5693,2.5693,2.5693,2.5693,2.5693,2.5693,2.5693,2.5693,2.5693,2.5693,2.5693,2.5693,2.5693,2.5693,2.5693,2.5693,2.3176,2.1777,2.1702,1.9057,1.7661,1.7608,1.7608,1.7608,1.7602,1.7353,1.7341,1.886,2.0035,2.1286,2.5092,2.8323,3.1084,3.3111,3.5729,3.7958,3.8871,3.9227,3.9406,3.9406,3.9406,3.9406,3.9406,3.9406,3.9116,3.8298,3.7579,3.6653,3.5321,3.3663,3.2344,3.1578,3.0648,3.0005,2.9804,2.9792,2.9792,2.9792,2.9792,2.9792,2.9792,3.0131,3.0746,3.1617,3.239,3.2889,3.3102,3.3102,3.3102,3.3102,3.3102,3.3102,3.3102,3.3102,3.3102,3.3102,3.3102,3.3102,3.3102,3.3102,3.3102,3.3102,3.3102,3.3102,3.2754,3.026,2.9407,2.8993,2.6514,2.5693,2.5693,2.5693,2.5693,2.5693,2.5693,2.5693,2.5693,2.5693,2.5693,2.5693,2.5693,2.5693,2.5693,2.5693,2.5693,2.5693,2.5693,2.5693,2.5693,2.5693,2.5693,2.5693,2.5693,2.5693,2.5693,2.5693,2.5693,2.5693,2.5693,2.5693,2.5693,2.5693,2.5693,2.5693,2.5693,2.5693,2.5693,2.5693,2.3949,2.2592,2.1727,1.9852,1.8454,1.7608,1.7608,1.7608,1.7608,1.7501,1.7508,1.7453,1.8526,1.9915,2.3632,2.6281,2.8968,3.2912,3.5155,3.6985,3.8987,3.9406,3.9406,3.9406,3.9406,3.9406,3.9406,3.9212,3.8916,3.8452,3.7588,3.6642,3.5715,3.4065,3.2666,3.1798,3.0853,3.0139,2.983,2.9792,2.9792,2.9792,2.9792,2.988,3.0068,3.0751,3.1466,3.2181,3.2801,3.3102,3.3102,3.3102,3.3102,3.3102,3.3102,3.3102,3.3102,3.3102,3.3102,3.3102,3.3102,3.3102,3.3102,3.3102,3.3102,3.3102,3.3102,3.3102,3.2754,3.026,2.9407,2.8993,2.6514,2.5693,2.5693,2.5693,2.5693,2.5693,2.5693,2.5693,2.5693,2.5693,2.5693,2.5693,2.5693,2.5693,2.5693,2.5693,2.5693,2.5693,2.5693,2.5693,2.5693,2.5693,2.5693,2.5693,2.5693,2.5693,2.5693,2.5693,2.5693,2.5693,2.5693,2.5693,2.5693,2.5693,2.5693,2.5693,2.5693,2.5693,2.5693,2.5693,2.4402,2.3076,2.1727,2.0308,1.8942,1.7608,1.7608,1.7608,1.7608,1.7608,1.7555,0.0,0.0,0.0,2.3022,2.3004,2.424,3.3837,3.4122,3.3664,3.83,3.9242,3.9257,3.9376,3.9406,3.9391,3.9376,3.8826,3.8395,3.8362,3.7793,3.6781,3.5195,3.4987,3.3991,3.1479,3.1217,3.0814,2.9876,2.9792,2.9792,2.9792,2.9817,3.008,3.0625,3.1654,3.2206,3.224,3.2813,3.3102,3.3102,3.3102,3.3102,3.3102,3.3102,3.3102,3.3102,3.3102,3.3102,3.3102,3.3102,3.3102,3.3102,3.3102,3.3102,3.3102,3.3102,3.3102,3.2754,3.0305,2.9453,2.9062,2.661,2.5805,2.5805,2.5805,2.5781,2.5757,2.5757,2.5732,2.5693,2.5693,2.5693,2.5693,2.5693,2.5693,2.5693,2.5693,2.5693,2.5693,2.5693,2.5693,2.5693,2.5693,2.5693,2.5693,2.5693,2.5693,2.5693,2.5693,2.5693,2.5693,2.5693,2.5693,2.5693,2.5693,2.5693,2.5693,2.5693,2.5693,2.5693,2.5693,2.4452,2.3101,2.1727,2.0359,1.8994,1.7608,1.7608,1.7608,1.7608,1.7608,1.7448,1.5689,0.0,0.0,0.0,0.0,0.0,2.6429,2.8074,3.0267,3.4907,3.5459,3.6013,3.8868,3.9406,3.9242,3.8751,3.8512,3.8245,3.7749,3.7135,3.6408,3.5474,3.4707,3.3735,3.2353,3.1609,3.0814,2.9876,2.9792,2.9792,2.9792,3.0168,3.0789,3.1717,3.2043,3.2416,3.2851,3.3027,3.3102,3.3102,3.3102,3.3102,3.3102,3.3102,3.3102,3.3102,3.3102,3.3102,3.3102,3.3102,3.3102,3.3102,3.3102,3.3102,3.3102,3.3102,3.3102,3.2862,3.1245,3.0698,3.0451,2.8878,2.8378,2.8378,2.8378,2.7767,2.7078,2.7078,2.6404,2.5693,2.5693,2.5693,2.5693,2.5693,2.5693,2.5693,2.5693,2.5693,2.5693,2.5693,2.5693,2.5693,2.5693,2.5693,2.5693,2.5693,2.5693,2.5693,2.5693,2.5693,2.5693,2.5693,2.5693,2.5693,2.5693,2.5693,2.5693,2.5693,2.5693,2.5693,2.5693,2.5323,2.4048,2.1752,2.1321,1.9948,1.7608,1.7608,1.7608,1.7608,1.7608,1.7341,0.0,0.0,0.0,0.0,0.0,0.0,2.5731,2.7047,2.8981,3.4564,3.54,3.5833,3.8135,3.8569,3.8434,3.8048,3.7764,3.7481,3.7075,3.6477,3.5938,3.5549,3.4986,3.4092,3.2731,3.2105,3.123,2.9895,2.9792,2.9892,3.0118,3.0645,3.1323,3.2169,3.2441,3.2729,3.3102,3.3102,3.3102,3.3102,3.3102,3.3102,3.3102,3.3102,3.3102,3.3102,3.3102,3.3102,3.3102,3.3102,3.3102,3.3102,3.3102,3.3102,3.3102,3.3102,3.3102,3.2905,3.1633,3.1201,3.0989,2.9795,2.9407,2.9407,2.9407,2.8901,2.8249,2.7754,2.6692,2.5693,2.5693,2.5693,2.5693,2.5693,2.5693,2.5693,2.5693,2.5693,2.5693,2.5693,2.5693,2.5693,2.5693,2.5693,2.5693,2.5693,2.5693,2.5693,2.5693,2.5693,2.5693,2.5693,2.5693,2.5693,2.5693,2.5693,2.5693,2.5693,2.5693,2.5693,2.5693,2.5177,2.3865,2.1752,2.1118,1.9749,1.7608,1.7608,1.7608,1.7608,1.7608,1.7361,0.0,0.0,0.0,0.0,0.0,0.0,2.7745,2.7841,2.8076,3.4446,3.5774,3.5908,3.6326,3.6535,3.658,3.6462,3.6267,3.6254,3.6464,3.5923,3.5504,3.5504,3.5392,3.4608,3.2784,3.2518,3.1701,2.9934,2.9854,3.0118,3.0651,3.1198,3.1738,3.229,3.2826,3.3102,3.3102,3.3102,3.3102,3.3102,3.3102,3.3102,3.3102,3.3102,3.3102,3.3102,3.3102,3.3102,3.3102,3.3102,3.3102,3.3102,3.3102,3.3102,3.3102,3.3102,3.3102,3.2939,3.1799,3.1412,3.1223,3.0158,2.9818,2.9818,2.9818,2.9704,2.9315,2.7979,2.6692,2.5693,2.5693,2.5693,2.5693,2.5693,2.5693,2.5693,2.5693,2.5693,2.5693,2.5693,2.5693,2.5693,2.5693,2.5693,2.5693,2.5693,2.5693,2.5693,2.5693,2.5693,2.5693,2.5693,2.5693,2.5693,2.5693,2.5693,2.5693,2.5693,2.5693,2.5693,2.5693,2.4559,2.3226,2.1727,2.0179,1.8864,1.7812,1.7661,1.7608,1.7608,1.7608,1.7454,0.0,0.0,0.0,0.0,0.0,0.0,2.0529,2.0696,2.1914,2.4954,2.5578,2.6539,2.9729,3.115,3.1509,3.0477,3.2437,3.4637,3.6269,3.5923,3.5504,3.5504,3.4789,3.3856,3.2713,3.1924,3.1007,2.9876,3.0206,3.0683,3.121,3.175,3.2315,3.2914,3.304,3.3102,3.3102,3.3102,3.3102,3.3102,3.3102,3.3102,3.3102,3.3102,3.3102,3.3102,3.3102,3.3102,3.3102,3.3102,3.3102,3.3102,3.3102,3.3102,3.3102,3.3102,3.3102,3.3068,3.2819,3.272,3.2677,3.2447,3.2382,3.2382,3.2382,3.1667,3.0406,2.8202,2.6692,2.5693,2.5693,2.5693,2.5693,2.5693,2.5693,2.5693,2.5693,2.5693,2.5693,2.5693,2.5693,2.5693,2.5693,2.5693,2.5693,2.5693,2.5693,2.5693,2.5693,2.5693,2.5693,2.5693,2.5693,2.5693,2.5693,2.5693,2.5693,2.5693,2.5693,2.5693,2.5693,2.5455,2.4171,2.1752,1.9265,1.8401,1.922,1.812,1.7608,1.7608,1.7608,1.7454,0.0,0.0,0.0,1.989,0.0,0.0,0.0,2.1633,2.2486,2.6306,2.5791,2.5563,2.856,2.8801,2.8457,2.8156,3.0582,3.2527,3.2542,3.4262,3.5504,3.5504,3.5036,3.4361,3.338,3.2464,3.131,2.9895,3.0306,3.0834,3.1361,3.1913,3.2478,3.3077,3.3102,3.3102,3.3102,3.3102,3.3102,3.3102,3.3102,3.3102,3.3102,3.3102,3.3102,3.3102,3.3102,3.3102,3.3102,3.3102,3.3102,3.3102,3.3102,3.3102,3.3102,3.3102,3.3102,3.3102,3.3102,3.3102,3.3102,3.3102,3.3102,3.3102,3.3102,3.1777,3.0045,2.8843,2.7139,2.5693,2.5693,2.5693,2.5693,2.5693,2.5693,2.5693,2.5693,2.5693,2.5693,2.5693,2.5693,2.5693,2.5693,2.5693,2.5693,2.5693,2.5693,2.5693,2.5693,2.5693,2.5693,2.5693,2.5693,2.5693,2.5693,2.5693,2.5693,2.5693,2.5693,2.5693,2.5693,2.5069,2.3766,2.1752,1.9646,1.8942,1.9602,1.8251,1.7608,1.7608,1.7461,1.734,0.0,0.0,0.0,0.0,0.0,2.1288,0.0,0.0,0.0,2.8042,2.6934,2.5731,2.7228,2.6285,2.5402,2.5818,2.8295,2.9537,2.7724,3.1345,3.4173,3.4173,3.4791,3.4756,3.3556,3.2289,3.1061,2.9896,2.9905,3.0382,3.1356,3.2014,3.2591,3.3077,3.3102,3.3102,3.3102,3.3102,3.3102,3.3102,3.3102,3.3102,3.3102,3.3102,3.3102,3.3102,3.3102,3.3102,3.3102,3.3102,3.3102,3.3102,3.3102,3.3102,3.3102,3.3102,3.3102,3.3102,3.3102,3.3102,3.3102,3.3102,3.3102,3.3102,3.3102,3.138,2.9407,2.9407,2.7626,2.5693,2.5693,2.5693,2.5693,2.5693,2.5693,2.5693,2.5693,2.5693,2.5693,2.5693,2.5693,2.5693,2.5693,2.5693,2.5693,2.5693,2.5693,2.5693,2.5693,2.5693,2.5693,2.5693,2.5693,2.5693,2.5693,2.5693,2.5693,2.5693,2.5693,2.5693,2.5693,2.4402,2.3301,2.2492,2.059,1.9731,2.0007,1.8401,1.7608,1.7602,1.7307,1.7199,0.0,0.0,0.0,0.0,2.362,0.0,0.0,0.0,2.2019,1.9746,0.0,2.0372,2.0004,0.0,0.0,1.9794,2.29,2.4903,2.3561,2.6841,2.9385,2.9385,3.2213,3.3462,3.1615,2.9173,2.8313,2.9699,2.8492,2.875,3.1281,3.2424,3.3027,3.3102,3.3102,3.3102,3.3102,3.3102,3.3102,3.3102,3.3102,3.3102,3.3102,3.3102,3.3102,3.3102,3.3102,3.3102,3.3102,3.3102,3.3102,3.3102,3.3102,3.3102,3.3102,3.3102,3.3102,3.3102,3.3102,3.3102,3.3102,3.3102,3.3102,3.3102,3.3102,3.138,2.9407,2.9407,2.7626,2.5693,2.5693,2.5693,2.5693,2.5693,2.5693,2.5693,2.5693,2.5693,2.5693,2.5693,2.5693,2.5693,2.5693,2.5693,2.5693,2.5693,2.5693,2.5693,2.5693,2.5693,2.5693,2.5693,2.5693,2.5693,2.5693,2.5693,2.5693,2.5693,2.5693,2.5693,2.5693,2.4402,2.4196,2.5226,2.1532,2.0213,2.1448,1.8857,1.7608,1.7602,1.7307,1.7199,0.0,0.0,0.0,0.0,0.0,0.0,2.2039,0.0,2.1537,0.0,0.0,0.0,0.0,0.0,0.0,0.0,2.165,2.2892,2.1205,2.4698,2.7575,2.7961,2.9355,3.0338,3.0494,2.8928,2.8665,3.0488,2.827,2.8165,3.1243,3.2139,3.2729,3.309,3.3102,3.3102,3.3102,3.3102,3.3102,3.3102,3.3102,3.3102,3.3102,3.3102,3.3102,3.3102,3.3102,3.3102,3.3102,3.3102,3.3102,3.3102,3.3102,3.3102,3.3102,3.3102,3.3102,3.3102,3.3102,3.3102,3.3102,3.3102,3.3102,3.3102,3.3102,3.1855,3.0451,3.0451,2.8693,2.6802,2.6802,2.6245,2.5693,2.5693,2.5693,2.5693,2.5693,2.5693,2.5693,2.5693,2.5693,2.5693,2.5693,2.5693,2.5693,2.5693,2.5693,2.5693,2.5693,2.5693,2.5693,2.5693,2.5693,2.5693,2.5693,2.5693,2.5693,2.5693,2.5693,2.5693,2.5693,2.5177,2.5128,2.5684,2.326,2.1887,2.1702,1.9723,1.8284,1.7347,1.7053,1.6919,2.6072,0.0,0.0,0.0,0.0,0.0,0.0,0.0,0.0,0.0,0.0,0.0,0.0,0.0,0.0,0.0,0.0,2.168,0.0,2.2292,0.0,0.0,0.0,2.7161,2.8671,2.728,2.7354,2.9933,2.7305,2.7273,3.1205,3.1913,3.2478,3.3077,3.3102,3.3102,3.3102,3.3102,3.3102,3.3102,3.3102,3.3102,3.3102,3.3102,3.3102,3.3102,3.3102,3.3102,3.3102,3.3102,3.3102,3.3102,3.3102,3.3102,3.3102,3.3102,3.3102,3.3102,3.3102,3.3102,3.3102,3.3102,3.3102,3.3102,3.3102,3.2217,3.1201,3.1201,2.9453,2.7589,2.7589,2.6644,2.5693,2.5693,2.5693,2.5693,2.5693,2.5693,2.5693,2.5693,2.5693,2.5693,2.5693,2.5693,2.5693,2.5693,2.5693,2.5693,2.5693,2.5693,2.5693,2.5693,2.5693,2.5693,2.5693,2.5693,2.5693,2.5693,2.5693,2.5693,2.5693,2.5693,2.5693,2.5693,2.4378,2.3226,2.2232,2.0461,1.8957,1.7717,1.7042,1.666,3.0985,2.9987,2.853,2.4582,2.4092,2.3917,2.1376,0.0,2.4306,0.0,0.0,0.0,0.0,0.0,0.0,0.0,0.0,0.0,0.0,0.0,0.0,0.0,0.0,0.0,0.0,2.2584,2.2538,2.7082,2.4824,2.5607,3.1117,3.1913,3.2478,3.3077,3.3102,3.3102,3.3102,3.3102,3.3102,3.3102,3.3102,3.3102,3.3102,3.3102,3.3102,3.3102,3.3102,3.3102,3.3102,3.3102,3.3102,3.3102,3.3102,3.3102,3.3102,3.3102,3.3102,3.3102,3.3102,3.3102,3.3102,3.3102,3.3102,3.3102,3.3102,3.2217,3.1201,3.1201,2.9453,2.7589,2.7589,2.6644,2.5693,2.5693,2.5693,2.5693,2.5693,2.5693,2.5693,2.5693,2.5693,2.5693,2.5693,2.5693,2.5693,2.5693,2.5693,2.5693,2.5693,2.5693,2.5693,2.5693,2.5693,2.5693,2.5693,2.5693,2.5693,2.5693,2.5693,2.5693,2.5693,2.5693,2.5693,2.5693,2.4378,2.3692,2.3633,2.0922,1.9437,1.9091,1.7456,1.6553,3.3581,3.3459,3.2542,2.856,2.7752,2.7096,2.3992,2.4306,0.0,0.0,0.0,0.0,0.0,0.0,0.0,0.0,0.0,0.0,0.0,0.0,0.0,0.0,0.0,0.0,0.0,0.0,0.0,2.6974,2.5677,2.6703,3.1148,3.1574,3.2102,3.3065,3.3102,3.3102,3.3102,3.3102,3.3102,3.3102,3.3102,3.3102,3.3102,3.3102,3.3102,3.3102,3.3102,3.3102,3.3102,3.3102,3.3102,3.3102,3.3102,3.3102,3.3102,3.3102,3.3102,3.3102,3.3102,3.3102,3.3102,3.3102,3.3102,3.3102,3.3102,3.2797,3.2447,3.2447,3.1257,2.9977,2.9977,2.8471,2.6969,2.6969,2.6318,2.5693,2.5693,2.5693,2.5693,2.5693,2.5693,2.5693,2.5693,2.5693,2.5693,2.5693,2.5693,2.5693,2.5693,2.5693,2.5693,2.5693,2.5693,2.5693,2.5693,2.5693,2.5693,2.5693,2.5693,2.5693,2.5693,2.5693,2.5693,2.5693,2.4378,2.3251,2.2366,2.0513,1.9008,1.787,1.7067,1.6553,3.6037,3.5919,3.5046,3.1236,3.0447,2.9759,2.6425,2.6378,2.6782,0.0,0.0,0.0,0.0,0.0,0.0,0.0,0.0,0.0,0.0,0.0,0.0,0.0,0.0,0.0,0.0,0.0,0.0,0.0,0.0,0.0,0.0,3.1406,3.1922,3.3065,3.3102,3.3102,3.3102,3.3102,3.3102,3.3102,3.3102,3.3102,3.3102,3.3102,3.3102,3.3102,3.3102,3.3102,3.3102,3.3102,3.3102,3.3102,3.3102,3.3102,3.3102,3.3102,3.3102,3.3102,3.3102,3.3102,3.3102,3.3102,3.3102,3.3102,3.3102,3.3102,3.3102,3.3102,3.2174,3.1201,3.1201,2.9727,2.8132,2.7707,2.6969,2.6245,2.5805,2.5693,2.5693,2.5693,2.5693,2.5693,2.5693,2.5693,2.5693,2.5693,2.5693,2.5693,2.5693,2.5693,2.5693,2.5693,2.5693,2.5693,2.5693,2.5693,2.5693,2.5693,2.5693,2.5693,2.5693,2.5693,2.5693,2.5693,2.4839,2.3741,2.2416,2.1016,1.9447,1.7735,1.7013,1.6493]}]]